[[{"header":{"parameterUnit":"m.s-1","parameterCategory":1,"la1":30.6,"la2":28.766,"lo1":-90.7593,"lo2":-88.6598,"dy":0.0162,"dx":0.0183,"nx":116,"ny":114,"refTime":"2023-07-04T18:00:00:Z","depth":0,"parameterNumber":2,"parameterNumberName":"U-component_of_WINDS"},"data":[0.0,0.0,0.0,0.0,0.0,0.0,0.0,0.0,0.0,0.0,0.0,0.0,0.0,0.0,0.0,0.0,0.0,0.0,0.0,0.0,0.0,0.0,0.0,0.0,0.0,0.0,0.0,0.0,0.0,0.0,0.0,0.0,0.0,0.0,0.0,0.0,0.0,0.0,0.0,0.0,0.0,0.0,0.0,0.0,0.0,0.0,0.0,0.0,0.0,0.0,0.0,0.0,0.0,0.0,0.0,0.0,0.0,0.0,0.0,0.0,0.0,0.0,0.0,0.0,0.0,0.0,0.0,0.0,0.0,0.0,0.0,0.0,0.0,0.0,0.0,0.0,0.0,0.0,0.0,0.0,0.0,0.0,0.0,0.0,0.0,0.0,0.0,0.0,0.0,0.0,0.0,0.0,0.0,0.0,0.0,0.0,0.0,0.0,0.0,0.0,0.0,0.0,0.0,0.0,0.0,0.0,0.0,0.0,0.0,0.0,0.0,0.0,0.0,0.0,0.0,0.0,0.0,0.0,0.0,0.0,0.0,0.0,0.0,0.0,0.0,0.0,0.0,0.0,0.0,0.0,0.0,0.0,0.0,0.0,0.0,0.0,0.0,0.0,0.0,0.0,0.0,0.0,0.0,0.0,0.0,0.0,0.0,0.0,0.0,0.0,0.0,0.0,0.0,0.0,0.0,0.0,0.0,0.0,0.0,0.0,0.0,0.0,0.0,0.0,0.0,0.0,0.0,0.0,0.0,0.0,0.0,0.0,0.0,0.0,0.0,0.0,0.0,0.0,0.0,0.0,0.0,0.0,0.0,0.0,0.0,0.0,0.0,0.0,0.0,0.0,0.0,0.0,0.0,0.0,0.0,0.0,0.0,0.0,0.0,0.0,0.0,0.0,0.0,0.0,0.0,0.0,0.0,0.0,0.0,0.0,0.0,0.0,0.0,0.0,0.0,0.0,0.0,0.0,0.0,0.0,0.0,0.0,0.0,0.0,0.0,0.0,0.0,0.0,0.0,0.0,0.0,0.0,0.0,0.0,0.0,0.0,0.0,0.0,0.0,0.0,0.0,0.0,0.0,0.0,0.0,0.0,0.0,0.0,0.0,0.0,0.0,0.0,0.0,0.0,0.0,0.0,0.0,0.0,0.0,0.0,0.0,0.0,0.0,0.0,0.0,0.0,0.0,0.0,0.0,0.0,0.0,0.0,0.0,0.0,0.0,0.0,0.0,0.0,0.0,0.0,0.0,0.0,0.0,0.0,0.0,0.0,0.0,0.0,0.0,0.0,0.0,0.0,0.0,0.0,0.0,0.0,0.0,0.0,0.0,0.0,0.0,0.0,0.0,0.0,0.0,0.0,0.0,0.0,0.0,0.0,0.0,0.0,0.0,0.0,0.0,0.0,0.0,0.0,0.0,0.0,0.0,0.0,0.0,0.0,0.0,0.0,0.0,0.0,0.0,0.0,0.0,0.0,0.0,0.0,0.0,0.0,0.0,0.0,0.0,0.0,0.0,0.0,0.0,0.0,0.0,0.0,0.0,0.0,0.0,0.0,0.0,0.0,0.0,0.0,0.0,0.0,0.0,0.0,0.0,0.0,0.0,0.0,0.0,0.0,0.0,0.0,0.0,0.0,0.0,0.0,0.0,0.0,0.0,0.0,0.0,0.0,0.0,0.0,0.0,0.0,0.0,0.0,0.0,0.0,0.0,0.0,0.0,0.0,0.0,0.0,0.0,0.0,0.0,0.0,0.0,0.0,0.0,0.0,0.0,0.0,0.0,0.0,0.0,0.0,0.0,0.0,0.0,0.0,0.0,0.0,0.0,0.0,0.0,0.0,0.0,0.0,0.0,0.0,0.0,0.0,0.0,0.0,0.0,0.0,0.0,0.0,0.0,0.0,0.0,0.0,0.0,0.0,0.0,0.0,0.0,0.0,0.0,0.0,0.0,0.0,0.0,0.0,0.0,0.0,0.0,0.0,0.0,0.0,0.0,0.0,0.0,0.0,0.0,0.0,0.0,0.0,0.0,0.0,0.0,0.0,0.0,0.0,0.0,0.0,0.0,0.0,0.0,0.0,0.0,0.0,0.0,0.0,0.0,0.0,0.0,0.0,0.0,0.0,0.0,0.0,0.0,0.0,0.0,0.0,0.0,0.0,0.0,0.0,0.0,0.0,0.0,0.0,0.0,0.0,0.0,0.0,0.0,0.0,0.0,0.0,0.0,0.0,0.0,0.0,0.0,0.0,0.0,0.0,0.0,0.0,0.0,0.0,0.0,0.0,0.0,0.0,0.0,0.0,0.0,0.0,0.0,0.0,0.0,0.0,0.0,0.0,0.0,0.0,0.0,0.0,0.0,0.0,0.0,0.0,0.0,0.0,0.0,0.0,0.0,0.0,0.0,0.0,0.0,0.0,0.0,0.0,0.0,0.0,0.0,0.0,0.0,0.0,0.0,0.0,0.0,0.0,0.0,0.0,0.0,0.0,0.0,0.0,0.0,0.0,0.0,0.0,0.0,0.0,0.0,0.0,0.0,0.0,0.0,0.0,0.0,0.0,0.0,0.0,0.0,0.0,0.0,0.0,0.0,0.0,0.0,0.0,0.0,0.0,0.0,0.0,0.0,0.0,0.0,0.0,0.0,0.0,0.0,0.0,0.0,0.0,0.0,0.0,0.0,0.0,0.0,0.0,0.0,0.0,0.0,0.0,0.0,0.0,0.0,0.0,0.0,0.0,0.0,0.0,0.0,0.0,0.0,0.0,0.0,0.0,0.0,0.0,0.0,0.0,0.0,0.0,0.0,0.0,0.0,0.0,0.0,0.0,0.0,0.0,0.0,0.0,0.0,0.0,0.0,0.0,0.0,0.0,0.0,0.0,0.0,0.0,0.0,0.0,0.0,0.0,0.0,0.0,0.0,0.0,0.0,0.0,0.0,0.0,0.0,0.0,0.0,0.0,0.0,0.0,0.0,0.0,0.0,0.0,0.0,0.0,0.0,0.0,0.0,0.0,0.0,0.0,0.0,0.0,0.0,0.0,0.0,0.0,0.0,0.0,0.0,0.0,0.0,0.0,0.0,0.0,0.0,0.0,0.0,0.0,0.0,0.0,0.0,0.0,0.0,0.0,0.0,0.0,0.0,0.0,0.0,0.0,0.0,0.0,0.0,0.0,0.0,0.0,0.0,0.0,0.0,0.0,0.0,0.0,0.0,0.0,0.0,0.0,0.0,0.0,0.0,0.0,0.0,0.0,0.0,0.0,0.0,0.0,0.0,0.0,0.0,0.0,0.0,0.0,0.0,0.0,0.0,0.0,0.0,0.0,0.0,0.0,0.0,0.0,0.0,0.0,0.0,0.0,0.0,0.0,0.0,0.0,0.0,0.0,0.0,0.0,0.0,0.0,0.0,0.0,0.0,0.0,0.0,0.0,0.0,0.0,0.0,0.0,0.0,0.0,0.0,0.0,0.0,0.0,0.0,0.0,0.0,0.0,0.0,0.0,0.0,0.0,0.0,0.0,0.0,0.0,0.0,0.0,0.0,0.0,0.0,0.0,0.0,0.0,0.0,0.0,0.0,0.0,0.0,0.0,0.0,0.0,0.0,0.0,0.0,0.0,0.0,0.0,0.0,0.0,0.0,0.0,0.0,0.0,0.0,0.0,0.0,0.0,0.0,0.0,0.0,0.0,0.0,0.0,0.0,0.0,0.0,0.0,0.0,0.0,0.0,0.0,0.0,0.0,0.0,0.0,0.0,0.0,0.0,0.0,0.0,0.0,0.0,0.0,0.0,0.0,0.0,0.0,0.0,0.0,0.0,0.0,0.0,0.0,0.0,0.0,0.0,0.0,0.0,0.0,0.0,0.0,0.0,0.0,0.0,0.0,0.0,0.0,0.0,0.0,0.0,0.0,0.0,0.0,0.0,0.0,0.0,0.0,0.0,0.0,0.0,0.0,0.0,0.0,0.0,0.0,0.0,0.0,0.0,0.0,0.0,0.0,0.0,0.0,0.0,0.0,0.0,0.0,0.0,0.0,0.0,0.0,0.0,0.0,0.0,0.0,0.0,0.0,0.0,0.0,0.0,0.0,0.0,0.0,0.0,0.0,0.0,0.0,0.0,0.0,0.0,0.0,0.0,0.0,0.0,0.0,0.0,0.0,0.0,0.0,0.0,0.0,0.0,0.0,0.0,0.0,0.0,0.0,0.0,0.0,0.0,0.0,0.0,0.0,0.0,0.0,0.0,0.0,0.0,0.0,0.0,0.0,0.0,0.0,0.0,0.0,0.0,0.0,0.0,0.0,0.0,0.0,0.0,0.0,0.0,0.0,0.0,0.0,0.0,0.0,0.0,0.0,0.0,0.0,0.0,0.0,0.0,0.0,0.0,0.0,0.0,0.0,0.0,0.0,0.0,0.0,0.0,0.0,0.0,0.0,0.0,0.0,0.0,0.0,0.0,0.0,0.0,0.0,0.0,0.0,0.0,0.0,0.0,0.0,0.0,0.0,0.0,0.0,0.0,0.0,0.0,0.0,0.0,0.0,0.0,0.0,0.0,0.0,0.0,0.0,0.0,0.0,0.0,0.0,0.0,0.0,0.0,0.0,0.0,0.0,0.0,0.0,0.0,0.0,0.0,0.0,0.0,0.0,0.0,0.0,0.0,0.0,0.0,0.0,0.0,0.0,0.0,0.0,0.0,0.0,0.0,0.0,0.0,0.0,0.0,0.0,0.0,0.0,0.0,0.0,0.0,0.0,0.0,0.0,0.0,0.0,0.0,0.0,0.0,0.0,0.0,0.0,0.0,0.0,0.0,0.0,0.0,0.0,0.0,0.0,0.0,0.0,0.0,0.0,0.0,0.0,0.0,0.0,0.0,0.0,0.0,0.0,0.0,0.0,0.0,0.0,0.0,0.0,0.0,0.0,0.0,0.0,0.0,0.0,0.0,0.0,0.0,0.0,0.0,0.0,0.0,0.0,0.0,0.0,0.0,0.0,0.0,0.0,0.0,0.0,0.0,0.0,0.0,0.0,0.0,0.0,0.0,0.0,0.0,0.0,0.0,0.0,0.0,0.0,0.0,0.0,0.0,0.0,0.0,0.0,0.0,0.0,0.0,0.0,0.0,0.0,0.0,0.0,0.0,0.0,0.0,0.0,0.0,0.0,0.0,0.0,0.0,0.0,0.0,0.0,0.0,0.0,0.0,0.0,0.0,0.0,0.0,0.0,0.0,0.0,0.0,0.0,0.0,0.0,0.0,0.0,0.0,0.0,0.0,0.0,0.0,0.0,0.0,0.0,0.0,0.0,0.0,0.0,0.0,0.0,0.0,0.0,0.0,0.0,0.0,0.0,0.0,0.0,0.0,0.0,0.0,0.0,0.0,0.0,0.0,0.0,0.0,0.0,0.0,0.0,0.0,0.0,0.0,0.0,0.0,0.0,0.0,0.0,0.0,0.0,0.0,0.0,0.0,0.0,0.0,0.0,0.0,0.0,0.0,0.0,0.0,0.0,0.0,0.0,0.0,0.0,0.0,0.0,0.0,0.0,0.0,0.0,0.0,0.0,0.0,0.0,0.0,0.0,0.0,0.0,0.0,0.0,0.0,0.0,0.0,0.0,0.0,0.0,0.0,0.0,0.0,0.0,0.0,0.0,0.0,0.0,0.0,0.0,0.0,0.0,0.0,0.0,0.0,0.0,0.0,0.0,0.0,0.0,0.0,0.0,0.0,0.0,0.0,0.0,0.0,0.0,0.0,0.0,0.0,0.0,0.0,0.0,0.0,0.0,0.0,0.0,0.0,0.0,0.0,0.0,0.0,0.0,0.0,0.0,0.0,0.0,0.0,0.0,0.0,0.0,0.0,0.0,0.0,0.0,0.0,0.0,0.0,0.0,0.0,0.0,0.0,0.0,0.0,0.0,0.0,0.0,0.0,0.0,0.0,0.0,0.0,0.0,0.0,0.0,0.0,0.0,0.0,0.0,0.0,0.0,0.0,0.0,0.0,0.0,0.0,0.0,0.0,0.0,0.0,0.0,0.0,0.0,0.0,0.0,0.0,0.0,0.0,0.0,0.0,0.0,0.0,0.0,0.0,0.0,0.0,0.0,0.0,0.0,0.0,0.0,0.0,0.0,-3.5481,0.0,0.0,0.0,0.0,0.0,0.0,0.0,0.0,0.0,0.0,0.0,0.0,0.0,0.0,0.0,0.0,0.0,0.0,0.0,0.0,0.0,0.0,0.0,0.0,0.0,0.0,0.0,0.0,0.0,0.0,0.0,0.0,0.0,0.0,0.0,0.0,0.0,0.0,0.0,0.0,0.0,0.0,0.0,0.0,0.0,0.0,0.0,0.0,0.0,0.0,0.0,0.0,0.0,0.0,0.0,0.0,0.0,0.0,0.0,0.0,0.0,0.0,0.0,0.0,0.0,0.0,0.0,0.0,0.0,0.0,0.0,0.0,0.0,0.0,0.0,0.0,0.0,0.0,0.0,0.0,0.0,0.0,0.0,0.0,0.0,0.0,0.0,0.0,0.0,0.0,0.0,0.0,0.0,0.0,0.0,0.0,0.0,0.0,0.0,0.0,0.0,0.0,0.0,0.0,0.0,0.0,0.0,0.0,0.0,0.0,0.0,0.0,0.0,0.0,0.0,0.0,-3.5289,0.0,0.0,0.0,0.0,0.0,0.0,0.0,0.0,0.0,0.0,0.0,0.0,0.0,0.0,0.0,0.0,0.0,0.0,0.0,0.0,0.0,0.0,0.0,0.0,0.0,0.0,0.0,0.0,0.0,0.0,0.0,0.0,0.0,0.0,0.0,0.0,0.0,0.0,0.0,0.0,0.0,0.0,0.0,0.0,0.0,0.0,0.0,0.0,0.0,0.0,0.0,0.0,0.0,0.0,0.0,0.0,0.0,0.0,0.0,0.0,0.0,0.0,0.0,0.0,0.0,0.0,0.0,0.0,0.0,0.0,0.0,0.0,0.0,0.0,0.0,0.0,0.0,0.0,0.0,0.0,0.0,0.0,0.0,0.0,0.0,0.0,0.0,0.0,0.0,0.0,0.0,0.0,0.0,0.0,0.0,0.0,0.0,0.0,0.0,0.0,0.0,0.0,0.0,0.0,0.0,0.0,0.0,0.0,-3.9536,-3.9114,-3.8547,-3.8292,-3.7715,-3.6891,-3.7259,-3.7534,-3.7621,-3.6728,0.0,0.0,0.0,0.0,0.0,0.0,0.0,0.0,0.0,0.0,0.0,0.0,0.0,0.0,0.0,0.0,0.0,0.0,0.0,0.0,0.0,0.0,0.0,0.0,0.0,0.0,0.0,0.0,0.0,0.0,0.0,0.0,0.0,0.0,0.0,0.0,0.0,0.0,0.0,0.0,0.0,0.0,0.0,0.0,0.0,0.0,0.0,0.0,0.0,0.0,0.0,0.0,0.0,0.0,0.0,0.0,0.0,0.0,0.0,0.0,0.0,0.0,0.0,0.0,0.0,0.0,0.0,0.0,0.0,0.0,0.0,0.0,0.0,0.0,0.0,0.0,0.0,0.0,0.0,0.0,0.0,0.0,0.0,0.0,0.0,0.0,-3.7291,-3.7291,0.0,0.0,0.0,0.0,0.0,0.0,0.0,0.0,0.0,0.0,0.0,0.0,0.0,-3.8567,-3.9393,-3.8746,-3.9178,-4.0637,-3.9687,-3.9199,-3.9067,-3.8724,-3.8044,-3.7165,-3.7678,0.0,-3.5206,-3.575,0.0,0.0,0.0,0.0,0.0,0.0,0.0,0.0,0.0,0.0,0.0,0.0,0.0,0.0,0.0,0.0,0.0,0.0,0.0,0.0,0.0,0.0,0.0,0.0,0.0,0.0,0.0,0.0,0.0,0.0,0.0,0.0,0.0,0.0,0.0,0.0,0.0,0.0,0.0,0.0,0.0,0.0,0.0,0.0,0.0,0.0,0.0,0.0,0.0,0.0,0.0,0.0,0.0,0.0,0.0,0.0,0.0,0.0,0.0,0.0,0.0,0.0,0.0,0.0,0.0,0.0,0.0,0.0,0.0,0.0,0.0,0.0,0.0,0.0,0.0,0.0,0.0,0.0,0.0,0.0,0.0,0.0,0.0,0.0,0.0,-3.6902,-3.7299,-3.7299,-3.6853,-3.6285,0.0,0.0,0.0,0.0,0.0,0.0,0.0,0.0,0.0,-3.9822,-4.0156,-4.0711,-4.1482,-4.0901,-4.1312,-4.259,-4.0913,-4.0182,-4.0196,-3.9421,-3.8521,-3.7663,-3.7902,-3.7462,-3.6546,-3.6595,-3.6276,-3.5656,0.0,0.0,0.0,0.0,-3.5516,-3.531,0.0,0.0,0.0,0.0,0.0,0.0,0.0,0.0,0.0,0.0,0.0,0.0,0.0,0.0,0.0,0.0,0.0,0.0,0.0,0.0,0.0,0.0,0.0,0.0,0.0,0.0,0.0,0.0,0.0,0.0,0.0,0.0,0.0,0.0,0.0,0.0,0.0,0.0,0.0,0.0,0.0,0.0,0.0,0.0,0.0,0.0,0.0,0.0,0.0,0.0,0.0,0.0,0.0,0.0,0.0,0.0,0.0,0.0,0.0,0.0,0.0,0.0,0.0,0.0,0.0,0.0,0.0,0.0,0.0,0.0,0.0,0.0,0.0,0.0,0.0,0.0,0.0,-3.7731,-3.7976,-3.7803,-3.7782,-3.7324,0.0,0.0,0.0,0.0,0.0,0.0,-3.9817,-4.0161,-4.0715,-4.1596,-4.2073,-4.2591,-4.3239,-4.2439,-4.2575,-4.3559,-4.1246,-4.0314,-4.0549,-3.9699,-3.8868,-3.8241,-3.8379,-3.8429,-3.8379,-3.7676,-3.7432,-3.733,-3.6341,-3.5986,-3.6097,-3.667,-3.6475,-3.6166,0.0,0.0,0.0,0.0,0.0,0.0,0.0,0.0,0.0,0.0,0.0,0.0,0.0,0.0,0.0,0.0,0.0,0.0,0.0,0.0,0.0,0.0,0.0,0.0,0.0,0.0,0.0,0.0,0.0,0.0,0.0,0.0,0.0,0.0,0.0,0.0,0.0,0.0,0.0,0.0,0.0,0.0,0.0,0.0,0.0,0.0,0.0,0.0,0.0,0.0,0.0,0.0,0.0,0.0,0.0,0.0,0.0,0.0,0.0,0.0,0.0,0.0,0.0,0.0,0.0,0.0,0.0,0.0,0.0,0.0,0.0,0.0,0.0,0.0,0.0,0.0,0.0,0.0,0.0,-4.0031,-4.035,0.0,0.0,0.0,0.0,-3.8531,-3.9265,-4.0046,-4.072,-4.1875,-4.2925,-4.3819,-4.3877,-4.3906,-4.3935,-4.2022,-4.1521,-4.2441,-3.9542,-3.8602,-3.9494,-3.909,-3.8881,-3.8856,-3.9383,-3.9609,-3.9521,-3.8417,-3.7687,-3.7184,-3.7159,-3.6832,-3.643,-3.7006,-3.7147,-3.7262,0.0,0.0,0.0,0.0,0.0,0.0,0.0,0.0,0.0,0.0,0.0,0.0,0.0,0.0,0.0,0.0,0.0,0.0,0.0,0.0,0.0,0.0,0.0,0.0,0.0,0.0,0.0,0.0,0.0,0.0,0.0,0.0,0.0,0.0,0.0,0.0,0.0,0.0,0.0,0.0,0.0,0.0,0.0,0.0,0.0,0.0,0.0,0.0,0.0,0.0,0.0,0.0,0.0,0.0,0.0,0.0,0.0,0.0,0.0,0.0,0.0,0.0,0.0,0.0,0.0,0.0,0.0,0.0,0.0,0.0,0.0,0.0,0.0,0.0,0.0,0.0,0.0,0.0,0.0,-4.0176,-4.1021,0.0,-4.0101,-4.0911,-4.1346,-4.0888,-4.1854,-4.259,-4.2864,-4.3313,-4.3373,-4.2989,-4.4036,-4.4296,-4.3631,-4.2623,-4.2628,-4.3606,-4.052,-3.9612,-4.0556,-3.9778,-3.9396,-3.9421,-3.9609,-3.9697,-3.9659,-3.9258,-3.8981,-3.8793,-3.8793,-3.868,-3.8555,-3.873,-3.8793,-3.8856,0.0,0.0,0.0,0.0,0.0,0.0,0.0,0.0,0.0,0.0,0.0,0.0,0.0,0.0,0.0,0.0,0.0,0.0,0.0,0.0,0.0,0.0,0.0,0.0,0.0,0.0,0.0,0.0,0.0,0.0,0.0,0.0,0.0,0.0,0.0,0.0,0.0,0.0,0.0,0.0,0.0,0.0,-3.8191,0.0,0.0,0.0,0.0,0.0,0.0,0.0,0.0,0.0,0.0,0.0,0.0,0.0,0.0,0.0,0.0,0.0,0.0,0.0,0.0,0.0,0.0,0.0,0.0,0.0,0.0,0.0,0.0,0.0,0.0,0.0,0.0,0.0,0.0,0.0,-4.1497,-4.0844,-4.1932,-4.2295,-4.1178,-4.244,-4.3166,-4.276,-4.3703,-4.4153,-4.3832,-4.4326,-4.4015,-4.2588,-4.3953,-4.4212,-4.3185,-4.2575,-4.2585,-4.3245,-4.0844,-4.0032,-4.0642,-3.9981,-3.9697,-3.9697,-3.9697,-3.9697,-3.9697,-3.9697,-3.9697,-3.9697,-3.9697,-3.9697,-3.9697,-3.9697,-3.9697,-3.9697,0.0,0.0,0.0,0.0,0.0,0.0,0.0,0.0,0.0,0.0,0.0,0.0,0.0,0.0,0.0,0.0,0.0,0.0,0.0,0.0,0.0,0.0,0.0,0.0,0.0,0.0,0.0,0.0,0.0,0.0,0.0,0.0,0.0,0.0,0.0,0.0,0.0,0.0,0.0,0.0,0.0,0.0,-4.1213,0.0,0.0,0.0,0.0,0.0,0.0,0.0,0.0,0.0,0.0,0.0,0.0,0.0,0.0,0.0,0.0,0.0,0.0,0.0,0.0,0.0,0.0,0.0,0.0,0.0,0.0,0.0,0.0,0.0,0.0,0.0,0.0,0.0,-4.1337,-4.2237,-4.2803,-4.2223,-4.3253,-4.3761,-4.3108,-4.366,-4.4052,-4.4052,-4.4589,-4.4494,-4.3519,-4.5008,-4.4957,-4.2889,-4.381,-4.3871,-4.2771,-4.1805,-4.1272,-4.1222,-4.0223,-3.9747,-3.9747,-3.9747,-3.9747,-3.9747,-3.9747,-3.9747,-3.9747,-3.9747,-3.9747,-3.9747,-3.971,-3.9697,-3.9697,-3.9697,-3.9697,-3.9697,0.0,0.0,0.0,0.0,0.0,0.0,0.0,0.0,0.0,0.0,0.0,0.0,0.0,0.0,0.0,0.0,0.0,0.0,0.0,0.0,0.0,0.0,0.0,0.0,0.0,0.0,0.0,0.0,0.0,0.0,0.0,0.0,0.0,0.0,0.0,0.0,0.0,0.0,0.0,0.0,0.0,0.0,-4.1332,0.0,0.0,0.0,0.0,0.0,0.0,0.0,0.0,0.0,0.0,0.0,0.0,0.0,0.0,0.0,0.0,0.0,0.0,0.0,0.0,0.0,0.0,0.0,0.0,0.0,0.0,0.0,0.0,0.0,0.0,0.0,0.0,-4.3427,-4.2586,-4.3195,-4.366,-4.3485,-4.4153,-4.456,-4.4385,-4.4966,-4.5358,-4.5358,-4.5518,-4.5515,-4.523,-4.5644,-4.4957,-4.2889,-4.495,-4.4906,-4.2327,-4.3215,-4.3277,-4.2436,-4.1341,-4.0837,-4.0837,-4.0837,-4.0837,-4.0837,-4.0837,-4.0837,-4.0837,-4.0837,-4.0837,-4.0802,-4.0011,-3.9697,-3.9697,-3.9697,-3.9697,-3.9697,0.0,0.0,0.0,0.0,0.0,0.0,0.0,0.0,0.0,0.0,0.0,0.0,0.0,0.0,0.0,0.0,0.0,0.0,0.0,0.0,0.0,0.0,0.0,0.0,0.0,0.0,0.0,0.0,0.0,0.0,0.0,0.0,0.0,0.0,0.0,0.0,0.0,0.0,0.0,0.0,0.0,0.0,-4.2147,-4.1594,-4.0905,-4.0267,-4.0523,-3.9836,-3.9008,-4.0238,0.0,0.0,0.0,0.0,0.0,0.0,0.0,0.0,0.0,0.0,0.0,0.0,0.0,0.0,0.0,0.0,0.0,0.0,0.0,0.0,0.0,0.0,0.0,0.0,-4.3703,-4.4647,-4.4255,-4.4545,-4.4792,-4.4792,-4.5097,-4.53,-4.53,-4.5648,-4.588,-4.588,-4.588,-4.5815,-4.5648,-4.6044,-4.5222,-4.2981,-4.5292,-4.499,-4.1827,-4.3174,-4.3346,-4.221,-4.1597,-4.1288,-4.1288,-4.1288,-4.1288,0.0,-4.1288,-4.1288,-4.1288,-4.1288,-4.1288,0.0,0.0,0.0,0.0,0.0,-3.9697,-3.9697,0.0,0.0,0.0,0.0,0.0,0.0,0.0,0.0,0.0,0.0,0.0,0.0,0.0,0.0,0.0,0.0,0.0,0.0,0.0,0.0,0.0,0.0,0.0,0.0,0.0,0.0,0.0,0.0,0.0,0.0,0.0,0.0,0.0,0.0,0.0,0.0,0.0,0.0,0.0,0.0,0.0,0.0,-4.321,-4.2158,-4.167,-4.1543,-4.1178,-4.0472,-3.9847,-4.0572,0.0,0.0,0.0,0.0,0.0,0.0,0.0,0.0,0.0,0.0,0.0,0.0,0.0,0.0,0.0,0.0,0.0,0.0,0.0,0.0,0.0,0.0,0.0,0.0,-4.5097,-4.588,-4.588,-4.588,-4.588,-4.588,-4.588,-4.588,-4.588,-4.588,-4.5924,-4.5996,-4.5996,-4.5878,-4.559,0.0,0.0,0.0,0.0,-4.4838,-4.178,-4.284,-4.2826,-4.1679,-4.1679,-4.1625,-4.1463,-4.1463,-4.1463,-4.1463,-4.1463,-4.1463,-4.1463,-4.1463,-4.1438,-4.1326,-4.0827,-4.0614,-4.0551,-4.0061,-3.9885,-3.9885,0.0,0.0,0.0,0.0,0.0,0.0,0.0,0.0,0.0,0.0,0.0,0.0,0.0,0.0,0.0,0.0,0.0,0.0,0.0,0.0,0.0,0.0,0.0,0.0,0.0,0.0,0.0,0.0,0.0,0.0,0.0,0.0,0.0,0.0,0.0,0.0,0.0,0.0,0.0,0.0,0.0,0.0,-4.3339,-4.3754,-4.3509,-4.2989,-4.3532,-4.2917,-4.1826,-4.2002,-4.1317,-4.0414,-4.0329,0.0,0.0,0.0,0.0,0.0,0.0,0.0,0.0,0.0,0.0,0.0,0.0,0.0,0.0,0.0,0.0,0.0,0.0,0.0,0.0,-4.4661,-4.5372,-4.588,-4.588,-4.588,-4.588,-4.588,-4.588,-4.588,-4.588,-4.588,-4.6098,-4.6606,-4.665,-4.6833,-4.7268,-4.7499,-4.6995,-4.5636,-4.6448,-4.62,-4.4709,-4.5334,-4.5103,-4.4033,0.0,0.0,-4.266,-4.266,-4.266,-4.266,-4.266,-4.266,-4.266,-4.266,-4.2396,-4.1999,-4.1392,-4.1125,-4.1112,-4.1012,-4.0962,-4.0962,0.0,0.0,0.0,0.0,0.0,0.0,0.0,0.0,0.0,0.0,0.0,0.0,0.0,0.0,0.0,0.0,0.0,0.0,0.0,0.0,0.0,0.0,0.0,0.0,0.0,0.0,0.0,0.0,0.0,0.0,0.0,0.0,0.0,0.0,0.0,0.0,0.0,0.0,0.0,0.0,0.0,0.0,-4.3966,-4.4373,-4.451,-4.451,-4.451,-4.431,-4.4055,-4.4055,-4.3608,-4.3029,-4.2798,-4.2242,-4.152,0.0,0.0,0.0,0.0,0.0,0.0,0.0,0.0,0.0,0.0,0.0,0.0,0.0,0.0,-4.4131,0.0,0.0,-4.4647,-4.5285,-4.5663,-4.588,-4.588,-4.588,-4.588,-4.588,-4.588,-4.6011,-4.633,-4.6359,-4.6621,-4.7259,-4.7303,-4.7579,-4.8217,-4.7755,-4.7338,-4.713,-4.7698,-4.7242,-4.5502,-4.7247,-4.6961,-4.4668,-4.5256,-4.4935,-4.3802,-4.3802,-4.3802,-4.379,-4.3514,-4.3388,-4.3363,-4.3087,-4.2811,-4.259,-4.2271,-4.1819,-4.1288,-4.1288,-4.1288,-4.1288,0.0,0.0,0.0,0.0,0.0,0.0,0.0,0.0,0.0,0.0,0.0,0.0,0.0,0.0,0.0,0.0,0.0,0.0,0.0,0.0,0.0,0.0,0.0,0.0,0.0,0.0,0.0,0.0,0.0,0.0,0.0,0.0,0.0,0.0,0.0,0.0,0.0,0.0,0.0,0.0,0.0,0.0,-4.4946,-4.4946,-4.5243,-4.5624,-4.5132,-4.5279,-4.5697,-4.5697,-4.5588,-4.5421,-4.5227,-4.4407,-4.325,-4.1685,-4.0986,0.0,0.0,0.0,0.0,0.0,0.0,0.0,0.0,0.0,-4.4625,-4.4914,-4.5209,-4.5435,-4.5725,-4.5449,-4.5345,-4.5883,-4.5925,-4.588,-4.588,-4.588,-4.5924,-4.6055,-4.6069,-4.6272,-4.6734,-4.694,-4.7274,-4.7912,-4.7956,-4.8232,-4.887,-4.8224,-4.7999,-4.8508,-4.8962,-4.8373,-4.6717,-4.8805,-4.8435,-4.5659,-4.6593,-4.6325,-4.4953,-4.5228,-4.5068,-4.4606,-4.4154,-4.3966,-4.3928,-4.3476,-4.33,-4.3288,-4.3187,-4.2597,-4.1752,-4.1639,-4.1601,-4.1601,0.0,0.0,0.0,0.0,0.0,0.0,0.0,0.0,0.0,0.0,0.0,0.0,0.0,0.0,0.0,0.0,0.0,0.0,0.0,0.0,0.0,0.0,0.0,0.0,0.0,0.0,0.0,0.0,0.0,0.0,0.0,0.0,0.0,0.0,0.0,0.0,0.0,0.0,0.0,0.0,0.0,0.0,-4.6534,-4.6534,-4.6182,-4.5769,-4.6324,-4.6182,-4.5697,-4.5697,-4.5221,-4.4759,-4.5421,-4.4211,-4.2455,-4.1908,0.0,-3.9722,-3.9226,-4.0527,-4.2315,-4.3426,-4.3767,-4.4276,0.0,0.0,-4.562,-4.6237,-4.6533,-4.6651,-4.652,-4.6255,-4.6092,-4.6151,-4.6001,-4.588,-4.588,-4.588,-4.6098,-4.6664,-4.6676,-4.6705,-4.6778,-4.7346,-4.7941,-4.8566,-4.8624,-4.8899,-4.9538,-5.0035,-5.0332,-5.0405,-5.0024,-5.0143,-5.0923,-5.0266,-4.969,-4.9306,-4.9412,-4.8341,-4.6213,-4.7371,-4.6662,-4.4618,-4.4556,-4.4531,-4.4531,-4.4468,-4.4443,-4.4392,-4.3903,-4.3627,-4.3463,-4.2974,-4.2798,-4.2798,0.0,0.0,0.0,0.0,0.0,0.0,0.0,0.0,0.0,0.0,0.0,0.0,0.0,0.0,0.0,0.0,0.0,0.0,0.0,0.0,0.0,0.0,0.0,0.0,0.0,0.0,0.0,0.0,0.0,0.0,0.0,0.0,0.0,0.0,0.0,0.0,0.0,0.0,0.0,0.0,0.0,0.0,-4.6846,-4.7337,-4.6814,-4.583,-4.5598,-4.5614,0.0,0.0,-4.5514,-4.5307,-4.5656,-4.4839,-4.3468,-4.2107,-4.1208,0.0,-4.1912,-4.2584,0.0,0.0,-4.5475,-4.5679,-4.6541,-4.6446,-4.6284,-4.6695,-4.6844,-4.6785,-4.6447,-4.6269,-4.6165,0.0,-4.597,-4.588,-4.588,-4.62,-4.6534,-4.6749,-4.743,-4.7894,-4.7894,-4.8174,-4.8595,-4.9233,-4.964,-4.9973,-5.0299,-5.0277,-5.052,-5.1222,-5.0744,-5.0689,-5.1138,-5.1704,-5.1265,-4.9886,-5.0593,-4.9707,-4.7432,-4.7933,-4.7477,-4.6218,-4.6935,-4.7021,-4.676,-4.676,-4.6325,-4.5646,-4.5402,-4.4884,-4.4166,-4.33,-4.2974,-4.2974,0.0,0.0,0.0,0.0,0.0,0.0,0.0,0.0,0.0,0.0,0.0,0.0,0.0,0.0,0.0,0.0,0.0,0.0,0.0,0.0,0.0,0.0,0.0,0.0,0.0,0.0,0.0,0.0,0.0,0.0,0.0,0.0,0.0,0.0,0.0,0.0,0.0,0.0,0.0,0.0,0.0,0.0,-4.7137,-4.7358,-4.6821,-4.586,-4.5177,-4.5076,0.0,0.0,-4.5193,-4.5205,-4.5212,-4.4553,-4.3494,-4.2034,-4.1273,-4.1333,-4.3109,0.0,0.0,-4.5864,-4.656,-4.6788,-4.6788,-4.6788,-4.6839,-4.6973,-4.7019,-4.6887,-4.658,-4.6432,-4.6314,-4.6105,-4.6015,-4.6029,-4.6248,-4.6579,-4.6954,-4.7396,-4.8159,-4.8798,-4.8972,-4.8986,-4.9248,-4.9901,-5.0444,-5.0743,-5.0931,-5.0769,-5.1047,-5.1824,-5.1728,-5.1566,-5.1566,-5.2833,-5.2609,-5.092,-5.1757,-5.1127,-4.9106,-4.8775,-4.8594,-4.8522,-4.9096,-4.9088,-4.8749,-4.8406,-4.7684,-4.6839,-4.6355,-4.5643,-4.4744,-4.379,-4.3426,-4.3426,0.0,0.0,0.0,0.0,0.0,0.0,0.0,0.0,0.0,0.0,0.0,0.0,0.0,0.0,0.0,0.0,0.0,0.0,0.0,0.0,0.0,0.0,0.0,0.0,0.0,0.0,0.0,0.0,0.0,0.0,0.0,0.0,0.0,0.0,0.0,0.0,0.0,0.0,0.0,0.0,0.0,0.0,-4.7802,-4.6537,-4.5955,-4.5798,-4.5781,0.0,0.0,0.0,-4.3668,-4.3686,-4.3751,-4.2701,0.0,-4.1564,-4.071,0.0,0.0,0.0,-4.3922,-4.5307,-4.6449,-4.7279,-4.7279,-4.7279,-4.7279,-4.7309,-4.7309,-4.7266,-4.7266,-4.7062,-4.68,-4.6594,-4.6358,-4.6429,-4.7058,-4.6947,-4.7367,-4.8825,-4.8825,-4.8972,0.0,-4.9654,-4.993,-5.0598,-5.072,-5.0946,-5.1556,-5.2194,-5.2543,-5.2594,-5.31,-5.3433,-5.3433,-5.3448,-5.3462,-5.341,-5.341,-5.2769,-5.1579,-5.035,-5.0448,-5.1497,-5.0393,-4.9874,-4.9748,-4.8607,-4.81,-4.7873,-4.6167,-4.5519,-4.5397,-4.4794,-4.4568,-4.4568,0.0,0.0,0.0,0.0,0.0,0.0,0.0,0.0,0.0,0.0,0.0,0.0,0.0,0.0,0.0,0.0,0.0,0.0,0.0,0.0,0.0,0.0,0.0,0.0,0.0,0.0,0.0,0.0,0.0,0.0,0.0,0.0,0.0,0.0,0.0,0.0,0.0,0.0,0.0,0.0,0.0,0.0,-4.7156,-4.6242,-4.4962,-4.3676,0.0,0.0,0.0,0.0,0.0,0.0,-4.235,0.0,0.0,-4.1286,-4.0862,-4.1123,0.0,0.0,-4.5027,-4.6376,-4.7023,-4.7309,-4.7309,-4.7309,-4.7309,-4.7309,-4.7036,-4.6764,-4.6651,-4.6565,-4.6422,-4.6163,-4.63,-4.6682,-4.7374,-4.7739,-4.828,-4.9225,-4.9692,0.0,0.0,0.0,0.0,-5.0705,-5.1504,-5.202,-5.2238,-5.2847,-5.3196,-5.3196,-5.3399,-5.3515,-5.3515,-5.3515,-5.3515,-5.3515,-5.2716,-5.2082,-5.1688,-5.1292,-5.1306,-5.1743,-5.2096,-5.2272,-5.2272,-5.188,-5.1196,-5.0435,-4.9839,-4.9096,-4.8312,-4.7308,-4.6895,-4.6675,0.0,0.0,0.0,0.0,0.0,0.0,0.0,0.0,0.0,0.0,0.0,0.0,0.0,0.0,0.0,0.0,0.0,0.0,0.0,0.0,0.0,0.0,0.0,0.0,0.0,0.0,0.0,0.0,0.0,0.0,0.0,0.0,0.0,0.0,0.0,0.0,0.0,0.0,0.0,0.0,0.0,0.0,-4.5963,-4.4782,-4.3451,0.0,0.0,0.0,0.0,0.0,0.0,0.0,0.0,-4.1916,-4.2655,-4.1511,-4.1438,-4.2073,0.0,-4.4646,-4.5618,-4.698,-4.7309,-4.7309,-4.7309,-4.7309,-4.7309,-4.7309,-4.6661,-4.619,-4.6277,-4.6112,-4.5938,-4.6034,-4.6414,-4.7067,-4.803,-4.8337,-4.8835,-4.9861,-5.0268,0.0,0.0,0.0,0.0,-5.1019,-5.218,-5.288,-5.2891,-5.3387,-5.362,-5.3515,-5.3515,-5.3515,-5.3515,-5.3515,-5.3515,-5.3515,-5.2716,-5.2366,-5.2366,-5.2366,-5.2366,-5.238,-5.317,-5.3515,-5.3462,-5.3049,-5.238,-5.1688,-5.1237,-5.0573,-4.9802,-4.9062,-4.8718,-4.8381,0.0,0.0,0.0,0.0,0.0,0.0,0.0,0.0,0.0,0.0,0.0,0.0,0.0,0.0,0.0,0.0,0.0,0.0,0.0,0.0,0.0,0.0,0.0,0.0,0.0,0.0,0.0,0.0,0.0,0.0,0.0,0.0,0.0,0.0,0.0,0.0,0.0,0.0,0.0,0.0,0.0,0.0,-4.437,-4.2413,0.0,0.0,0.0,0.0,0.0,0.0,0.0,0.0,0.0,0.0,-4.1689,-4.2386,-4.2568,-4.2965,-4.4796,-4.5349,-4.5708,-4.698,-4.7309,-4.7309,-4.7309,-4.7309,-4.7279,-4.7219,-4.6157,-4.5439,0.0,0.0,-4.5495,-4.6154,-4.6644,-4.7465,-4.8985,-4.8816,-4.909,0.0,0.0,0.0,0.0,0.0,0.0,-5.1722,0.0,-5.3495,-5.3538,-5.3762,-5.3815,-5.3515,-5.3515,-5.3515,-5.3515,-5.3515,-5.3515,-5.3515,-5.3515,-5.3515,-5.3515,-5.3515,-5.3515,-5.3515,-5.3515,-5.3515,-5.3395,-5.2258,-5.1797,-5.1688,-5.0518,-5.0084,-5.0084,-5.0028,-4.9971,-4.9576,0.0,0.0,0.0,0.0,0.0,0.0,0.0,0.0,0.0,0.0,0.0,0.0,0.0,0.0,0.0,0.0,0.0,0.0,0.0,0.0,0.0,0.0,0.0,0.0,0.0,0.0,0.0,0.0,0.0,0.0,0.0,0.0,0.0,0.0,0.0,0.0,0.0,0.0,0.0,0.0,0.0,0.0,-4.3222,0.0,0.0,0.0,0.0,0.0,0.0,0.0,0.0,0.0,0.0,0.0,-4.3926,-4.4643,-4.4734,-4.4661,-4.5155,-4.6022,-4.6875,-4.7219,-4.7309,-4.7309,-4.7309,-4.7309,-4.7068,-4.6205,-4.5346,-4.4735,0.0,0.0,0.0,-4.5672,-4.6559,0.0,-4.9075,-4.9164,0.0,0.0,0.0,-5.1214,-5.1676,-5.2524,0.0,0.0,-5.3663,-5.409,-5.4097,-5.4149,-5.406,-5.3815,-5.4008,-5.3904,-5.3515,-5.3515,-5.3515,-5.3515,-5.3515,-5.3515,-5.3515,-5.3515,-5.3515,-5.3515,-5.3515,-5.3515,-5.3462,-5.317,-5.3049,-5.2996,-5.2716,-5.2555,-5.2448,-5.1579,-5.0685,-4.9689,0.0,0.0,0.0,0.0,0.0,0.0,0.0,0.0,0.0,0.0,0.0,0.0,0.0,0.0,0.0,0.0,0.0,0.0,0.0,0.0,0.0,0.0,0.0,0.0,0.0,0.0,0.0,0.0,0.0,0.0,0.0,0.0,0.0,0.0,0.0,0.0,0.0,0.0,0.0,0.0,0.0,0.0,0.0,0.0,0.0,0.0,0.0,0.0,0.0,0.0,0.0,-4.4881,-4.6431,-4.6249,-4.5669,-4.6339,0.0,-4.5813,-4.6097,-4.6726,-4.7309,-4.7309,-4.7309,-4.716,-4.6561,-4.6426,-4.6094,-4.4858,-4.3863,0.0,0.0,0.0,0.0,0.0,0.0,0.0,-4.9209,-4.9359,-4.9748,0.0,-5.1214,0.0,-5.2353,-5.2868,-5.3495,0.0,-5.4484,-5.4575,-5.4304,-5.4421,-5.437,-5.4097,-5.42,-5.4149,-5.3852,-5.3852,-5.3852,-5.3852,-5.3852,-5.3852,-5.3852,-5.3852,-5.3815,-5.3658,0.0,-5.38,-5.3658,-5.38,-5.3852,-5.3867,-5.371,-5.3762,-5.3748,-5.2967,-5.2244,-5.1456,0.0,0.0,0.0,0.0,0.0,0.0,0.0,0.0,0.0,0.0,0.0,0.0,0.0,0.0,0.0,0.0,0.0,0.0,0.0,0.0,0.0,0.0,0.0,0.0,0.0,0.0,0.0,0.0,0.0,0.0,0.0,0.0,0.0,0.0,0.0,0.0,0.0,0.0,0.0,0.0,0.0,0.0,0.0,0.0,0.0,0.0,0.0,0.0,0.0,0.0,-4.5284,-4.6361,-4.7106,-4.7322,-4.7373,-4.7776,-4.7284,-4.6689,-4.7188,-4.7309,-4.7309,-4.7309,-4.7309,-4.695,-4.5603,-4.5289,-4.4885,-4.3474,0.0,-4.1698,-4.2746,0.0,-4.3768,-4.5277,0.0,-4.7755,-4.9313,-4.9389,-4.9748,-5.1065,-5.1214,-5.1738,-5.3054,-5.3174,-5.3743,-5.5089,-5.5194,-5.4962,-5.4458,-5.4722,-5.4722,-5.4406,-5.4355,-5.4304,-5.437,-5.4304,-5.4304,-5.4304,-5.4304,-5.4304,-5.4304,-5.4304,-5.4149,-5.3956,-5.42,0.0,-5.3956,-5.42,-5.4304,-5.4304,-5.4045,-5.4112,-5.4252,-5.4008,-5.38,-5.3524,0.0,0.0,0.0,0.0,0.0,0.0,0.0,0.0,0.0,0.0,-4.0655,0.0,0.0,0.0,0.0,0.0,0.0,0.0,0.0,0.0,0.0,0.0,0.0,0.0,0.0,0.0,0.0,0.0,0.0,0.0,0.0,0.0,0.0,0.0,0.0,0.0,0.0,0.0,0.0,0.0,0.0,0.0,0.0,0.0,0.0,0.0,0.0,0.0,0.0,0.0,-4.5914,-4.8663,-4.9409,-4.9954,-5.0231,-4.9605,-4.8836,-4.8061,-4.7465,-4.7309,-4.7309,-4.7309,-4.7309,-4.695,-4.5603,-4.5289,0.0,0.0,0.0,-4.1355,-4.1174,-4.1941,0.0,-4.4312,0.0,0.0,0.0,0.0,-4.9748,0.0,0.0,0.0,0.0,0.0,0.0,0.0,0.0,-5.5128,-5.5027,-5.5078,-5.5078,-5.5027,-5.4575,-5.4421,-5.4737,-5.4421,-5.4304,-5.4304,-5.4304,-5.4304,-5.4304,-5.4304,-5.4252,-5.4252,-5.4304,0.0,-5.4252,-5.4304,-5.4304,-5.4304,-5.4252,-5.4252,-5.4252,-5.4008,-5.3299,-5.2352,0.0,0.0,0.0,0.0,0.0,0.0,0.0,0.0,0.0,-3.9565,-4.0443,-4.1036,0.0,0.0,0.0,0.0,0.0,0.0,0.0,0.0,0.0,0.0,0.0,0.0,0.0,0.0,0.0,0.0,0.0,0.0,0.0,0.0,0.0,0.0,0.0,0.0,0.0,0.0,0.0,0.0,0.0,0.0,0.0,0.0,0.0,0.0,0.0,0.0,0.0,0.0,-4.5168,-4.873,-4.9856,-5.0599,-5.0914,-5.0057,-4.9222,-4.8407,-4.7538,-4.7309,-4.7309,-4.7309,-4.7309,-4.677,-4.4736,0.0,0.0,0.0,0.0,-4.0404,-4.0529,-4.1265,0.0,0.0,0.0,0.0,0.0,0.0,0.0,0.0,0.0,0.0,0.0,0.0,0.0,0.0,0.0,-5.5194,-5.5194,-5.5194,-5.5194,-5.5194,-5.4911,-5.486,-5.4991,-5.486,-5.4743,-5.4743,-5.4743,-5.4743,-5.4743,-5.4743,-5.4692,-5.4553,-5.4707,0.0,-5.4553,-5.4692,-5.4743,-5.4743,-5.459,-5.4656,-5.4743,-5.4451,-5.4023,-5.3457,0.0,0.0,0.0,0.0,0.0,0.0,0.0,-3.9301,-3.9328,-3.9482,-3.9999,-4.0583,-4.1258,-4.0788,-4.0675,0.0,0.0,0.0,0.0,0.0,0.0,0.0,0.0,0.0,0.0,0.0,0.0,0.0,0.0,0.0,0.0,0.0,0.0,0.0,0.0,0.0,0.0,0.0,0.0,0.0,0.0,0.0,0.0,0.0,0.0,0.0,0.0,0.0,0.0,0.0,-4.4003,-4.7386,-4.8796,-5.0134,-5.0913,-4.9857,-4.9124,-4.8414,-4.7536,-4.7309,-4.7309,-4.7309,-4.7309,-4.6606,-4.3943,-4.3305,0.0,0.0,0.0,-3.9574,-4.0098,0.0,0.0,0.0,0.0,0.0,0.0,0.0,0.0,0.0,0.0,0.0,0.0,0.0,0.0,0.0,0.0,0.0,-5.5194,-5.5194,-5.5194,-5.5194,-5.5194,-5.5194,-5.5194,-5.5194,-5.5194,-5.5194,-5.5194,-5.5194,-5.5194,-5.5194,-5.5093,-5.4905,-5.5093,0.0,0.0,-5.5093,-5.5194,-5.5194,-5.4941,-5.4991,-5.5194,-5.4905,-5.4803,-5.4803,0.0,0.0,0.0,0.0,0.0,0.0,0.0,-3.9354,-3.9482,-3.9495,-3.9303,-3.9561,-4.0667,-4.0598,-4.045,0.0,0.0,0.0,0.0,0.0,0.0,0.0,0.0,0.0,0.0,0.0,0.0,0.0,0.0,0.0,0.0,0.0,0.0,0.0,0.0,0.0,0.0,0.0,0.0,0.0,0.0,0.0,0.0,0.0,0.0,0.0,0.0,0.0,0.0,0.0,0.0,-4.4586,-4.5825,-4.8547,-5.0941,-4.9295,0.0,0.0,-4.7528,-4.7309,-4.7309,-4.7309,-4.7309,-4.6621,-4.3988,0.0,0.0,0.0,-3.9388,-3.9403,-3.9499,0.0,0.0,0.0,0.0,0.0,0.0,0.0,0.0,0.0,0.0,0.0,0.0,0.0,0.0,0.0,0.0,0.0,-5.5194,-5.5194,-5.5194,-5.5194,-5.5194,-5.5194,-5.5194,-5.5194,-5.5194,-5.5194,-5.5194,-5.5194,-5.5194,-5.5194,-5.5194,-5.5143,-5.5194,0.0,0.0,-5.5194,-5.5194,-5.5194,-5.5194,-5.5194,-5.5194,-5.4905,-5.4803,-5.4737,0.0,0.0,0.0,0.0,0.0,0.0,0.0,-3.9386,-3.9457,-3.9495,-3.9425,-3.9408,-3.9542,-3.9515,-3.9715,0.0,0.0,0.0,0.0,0.0,0.0,0.0,0.0,0.0,0.0,0.0,0.0,0.0,0.0,0.0,0.0,0.0,0.0,0.0,0.0,0.0,0.0,0.0,0.0,0.0,0.0,0.0,0.0,0.0,0.0,0.0,0.0,0.0,0.0,0.0,0.0,0.0,-4.3717,-4.5732,0.0,0.0,-4.8146,-4.7517,-4.795,-4.7709,-4.7309,-4.7309,-4.701,-4.6127,-4.3898,0.0,0.0,-3.9873,-3.9388,-3.9388,-3.9388,0.0,0.0,0.0,0.0,0.0,0.0,0.0,0.0,0.0,0.0,0.0,0.0,0.0,0.0,0.0,0.0,0.0,-5.5194,-5.5194,-5.5194,-5.5194,-5.5194,-5.5194,-5.5194,-5.5194,-5.5194,-5.5194,-5.5194,-5.5194,-5.5194,-5.5194,-5.5194,-5.5194,-5.5194,0.0,0.0,-5.5194,-5.5194,-5.5194,-5.5194,-5.5194,-5.5194,-5.5093,-5.5042,-5.5042,0.0,0.0,0.0,0.0,0.0,0.0,-3.9315,-3.9373,-3.9431,-3.9482,-3.9451,-3.9309,-3.9013,-3.8789,-3.897,-3.9794,0.0,0.0,0.0,0.0,0.0,0.0,0.0,0.0,0.0,0.0,0.0,0.0,0.0,0.0,0.0,0.0,0.0,0.0,0.0,0.0,0.0,0.0,0.0,0.0,0.0,0.0,0.0,0.0,0.0,0.0,0.0,0.0,0.0,0.0,0.0,0.0,0.0,0.0,0.0,0.0,-4.7268,-4.6756,-4.769,-4.763,-4.7309,-4.7309,-4.6651,-4.5559,0.0,0.0,0.0,-3.9783,-3.9388,-3.9388,-3.9388,0.0,0.0,0.0,0.0,0.0,0.0,0.0,0.0,0.0,0.0,0.0,0.0,0.0,0.0,0.0,0.0,0.0,0.0,-5.5194,-5.5194,-5.5194,-5.5194,-5.5194,-5.5194,-5.5194,-5.5194,-5.5194,-5.5194,-5.5194,-5.5194,-5.5194,-5.5194,-5.5194,-5.5194,0.0,0.0,-5.5194,-5.5194,-5.5194,-5.5194,-5.5194,-5.5194,-5.5194,-5.5194,-5.5194,0.0,0.0,0.0,0.0,0.0,0.0,0.0,-3.9315,-3.9431,-3.9482,-3.9202,-3.9106,-3.9378,-3.873,-3.8389,-3.8597,0.0,0.0,0.0,0.0,0.0,0.0,0.0,0.0,0.0,0.0,0.0,-4.0096,-4.0238,0.0,0.0,0.0,0.0,0.0,0.0,0.0,0.0,0.0,0.0,0.0,0.0,0.0,0.0,0.0,0.0,0.0,0.0,0.0,0.0,0.0,0.0,0.0,0.0,0.0,0.0,0.0,-4.6048,-4.6492,-4.6427,-4.6849,-4.7309,-4.7309,-4.6307,-4.496,0.0,0.0,0.0,-3.9694,-3.9388,-3.9388,0.0,0.0,0.0,0.0,0.0,0.0,0.0,0.0,0.0,0.0,0.0,0.0,0.0,0.0,0.0,0.0,0.0,0.0,0.0,-5.5194,-5.5194,-5.5194,-5.5194,-5.5194,-5.5194,-5.5194,-5.5194,-5.5194,-5.5194,-5.5194,-5.5194,-5.5194,-5.5194,0.0,0.0,0.0,0.0,-5.5194,-5.5194,-5.5194,-5.5194,-5.5194,-5.5194,-5.5194,-5.5194,-5.5194,0.0,0.0,0.0,0.0,0.0,0.0,0.0,-3.9242,-3.9301,-3.9418,-3.9333,-3.9106,-3.8624,-3.8579,-3.8389,-3.7894,0.0,0.0,0.0,0.0,0.0,0.0,0.0,0.0,0.0,0.0,-4.0096,-4.0096,-4.0138,-4.0288,-4.051,0.0,0.0,0.0,0.0,0.0,0.0,0.0,0.0,0.0,0.0,0.0,0.0,0.0,0.0,0.0,0.0,0.0,0.0,0.0,0.0,0.0,0.0,0.0,0.0,0.0,0.0,0.0,-4.5033,-4.5202,-4.5155,-4.4665,-4.3928,-4.3099,-4.2192,0.0,0.0,0.0,0.0,0.0,0.0,0.0,0.0,0.0,0.0,0.0,0.0,0.0,0.0,0.0,0.0,0.0,0.0,0.0,0.0,0.0,0.0,0.0,0.0,-5.5194,-5.5194,-5.5194,-5.5194,-5.5194,-5.5194,-5.5194,-5.5194,-5.5194,-5.5194,-5.5194,-5.5194,-5.5194,0.0,0.0,0.0,0.0,0.0,-5.5194,-5.5194,-5.5194,-5.5194,-5.5194,-5.5194,-5.5194,-5.5194,-5.5194,0.0,0.0,0.0,0.0,0.0,0.0,0.0,-3.917,-3.9215,-3.9315,-3.9315,-3.9087,-3.847,-3.8452,-3.8293,-3.7773,0.0,0.0,0.0,0.0,0.0,0.0,0.0,0.0,0.0,-4.0096,-4.0096,-4.0096,-4.0163,-4.0288,-4.051,-4.0558,-4.068,0.0,0.0,0.0,0.0,0.0,0.0,0.0,0.0,0.0,-4.0618,0.0,0.0,0.0,0.0,0.0,0.0,0.0,0.0,0.0,0.0,0.0,0.0,0.0,0.0,0.0,0.0,-4.3821,-4.3798,-4.3394,-4.2656,0.0,0.0,0.0,0.0,0.0,0.0,0.0,0.0,0.0,0.0,0.0,0.0,0.0,0.0,0.0,0.0,0.0,0.0,0.0,0.0,0.0,0.0,0.0,0.0,0.0,0.0,-5.5194,-5.5194,-5.5194,-5.5194,-5.5194,-5.5194,-5.5194,-5.5194,-5.5194,-5.5194,-5.5194,-5.5194,-5.5194,0.0,0.0,0.0,0.0,0.0,-5.5194,-5.5194,-5.5194,-5.5194,-5.5194,-5.5194,-5.5194,-5.5194,-5.5194,0.0,0.0,0.0,0.0,0.0,0.0,0.0,0.0,0.0,0.0,-3.9197,-3.9055,-3.87,-3.8373,-3.8165,0.0,0.0,0.0,0.0,0.0,0.0,0.0,0.0,0.0,0.0,-4.0096,-4.0096,-4.0096,-4.0213,-4.0362,-4.051,-4.0624,-4.0769,-4.0912,-4.0912,0.0,0.0,0.0,0.0,0.0,0.0,0.0,0.0,0.0,0.0,0.0,0.0,0.0,0.0,0.0,0.0,0.0,0.0,0.0,0.0,0.0,0.0,0.0,0.0,0.0,0.0,0.0,0.0,0.0,0.0,0.0,0.0,0.0,0.0,0.0,0.0,0.0,0.0,0.0,0.0,0.0,0.0,0.0,0.0,0.0,0.0,0.0,0.0,0.0,0.0,0.0,0.0,0.0,0.0,-5.5194,-5.5194,-5.5194,-5.5194,-5.5194,-5.5194,-5.5194,-5.5194,-5.5194,-5.5194,-5.5194,-5.5194,-5.5194,-5.5194,0.0,0.0,0.0,0.0,-5.5194,-5.5194,-5.5194,-5.5194,-5.5194,-5.5194,-5.5194,-5.5194,-5.5194,0.0,0.0,0.0,0.0,0.0,0.0,0.0,0.0,0.0,0.0,-3.9129,-3.8898,-3.8298,-3.8167,-3.7999,0.0,0.0,0.0,0.0,0.0,0.0,0.0,0.0,0.0,0.0,-4.0096,-4.0096,-4.0096,-4.0121,-4.0288,-4.051,-4.0534,-4.068,-4.0912,-4.0912,0.0,0.0,0.0,0.0,0.0,0.0,0.0,0.0,0.0,0.0,0.0,-4.0163,-4.0238,0.0,0.0,0.0,0.0,0.0,0.0,0.0,0.0,-4.1018,-4.1509,-4.0396,0.0,-4.0965,0.0,0.0,0.0,0.0,0.0,0.0,0.0,0.0,0.0,0.0,0.0,0.0,0.0,0.0,0.0,0.0,0.0,0.0,0.0,0.0,0.0,0.0,0.0,0.0,0.0,0.0,0.0,0.0,-5.5194,-5.5194,-5.5194,-5.5194,-5.5194,-5.5194,-5.5194,-5.5194,-5.5194,-5.5194,-5.5194,-5.5194,-5.5194,-5.5194,0.0,0.0,0.0,-5.5194,-5.5194,-5.5194,-5.5194,-5.5194,-5.5194,-5.5194,-5.5194,-5.5194,-5.5194,0.0,0.0,0.0,0.0,0.0,0.0,0.0,0.0,0.0,0.0,0.0,0.0,0.0,0.0,0.0,0.0,0.0,0.0,0.0,0.0,0.0,0.0,0.0,0.0,0.0,-3.9943,-4.0096,-4.0096,-4.0096,-4.0238,-4.051,-4.051,-4.0655,-4.0912,-4.0912,0.0,0.0,0.0,0.0,0.0,-3.9802,0.0,0.0,0.0,0.0,0.0,-4.0163,-4.0238,0.0,-4.1614,-4.1835,-4.1724,0.0,0.0,0.0,0.0,-4.0655,-4.1194,-3.9773,-3.9679,-3.9858,-3.9514,-3.9388,-3.9388,0.0,0.0,0.0,0.0,0.0,0.0,0.0,0.0,0.0,0.0,0.0,0.0,0.0,0.0,0.0,0.0,0.0,0.0,0.0,0.0,0.0,0.0,0.0,0.0,0.0,-5.5029,-5.5194,-5.5194,-5.5194,-5.5194,-5.5194,-5.5194,-5.5194,-5.5194,-5.5194,-5.5194,-5.5194,-5.5194,-5.5194,0.0,0.0,0.0,-5.5194,-5.5194,-5.5194,-5.5194,-5.5194,-5.5194,-5.5194,-5.5194,-5.4999,-5.4745,0.0,0.0,0.0,0.0,0.0,0.0,0.0,0.0,0.0,0.0,0.0,0.0,0.0,0.0,0.0,0.0,0.0,0.0,0.0,0.0,0.0,0.0,0.0,-3.8751,-3.8988,-3.9622,-3.9994,-4.0096,-3.9994,-4.0068,-4.0339,-4.0339,-4.0552,-4.0894,-4.0774,-4.0722,0.0,0.0,0.0,0.0,-3.9134,0.0,0.0,0.0,0.0,0.0,0.0,0.0,0.0,-4.1239,-4.161,-4.1714,-4.1239,0.0,0.0,0.0,0.0,0.0,-3.9935,-3.9685,-3.9664,-3.9433,-3.9499,-3.9544,0.0,0.0,0.0,0.0,0.0,0.0,0.0,0.0,0.0,0.0,0.0,0.0,0.0,0.0,0.0,0.0,0.0,0.0,0.0,0.0,0.0,0.0,0.0,0.0,0.0,-5.4581,-5.488,-5.488,-5.488,-5.488,-5.488,-5.5089,-5.5194,-5.5194,-5.5194,-5.5194,-5.5194,-5.5194,-5.5194,-5.5194,0.0,0.0,-5.5194,-5.5194,-5.5134,-5.5044,-5.5044,-5.497,-5.488,-5.488,-5.4536,-5.4057,0.0,0.0,0.0,0.0,0.0,0.0,0.0,0.0,0.0,0.0,0.0,0.0,0.0,0.0,0.0,0.0,0.0,0.0,0.0,0.0,0.0,0.0,0.0,-3.7726,-3.8954,-3.9106,-3.9462,-4.0096,-3.9462,-3.9304,-3.957,-3.957,-4.0055,-4.0877,-4.0204,-3.9871,-3.9836,-3.9077,-3.8336,-3.7784,-3.8928,0.0,0.0,0.0,0.0,0.0,0.0,0.0,0.0,-4.1431,-4.1359,-4.0971,-4.1391,0.0,0.0,0.0,0.0,0.0,-4.07,-4.0895,-4.0816,-3.9694,-3.9843,-4.0113,0.0,0.0,0.0,0.0,0.0,0.0,0.0,0.0,0.0,0.0,0.0,0.0,0.0,0.0,0.0,0.0,0.0,0.0,0.0,0.0,0.0,0.0,0.0,0.0,0.0,-5.3428,-5.3488,-5.3488,-5.3488,-5.3488,-5.3488,-5.4625,-5.5194,-5.5194,-5.5194,-5.5194,-5.5194,-5.5194,-5.5194,-5.5194,0.0,-5.5194,-5.5194,-5.5194,-5.4865,-5.4356,-5.4356,-5.4012,-5.3488,-5.3488,-5.3428,-5.3339,0.0,0.0,0.0,0.0,0.0,0.0,0.0,0.0,0.0,0.0,0.0,0.0,0.0,0.0,0.0,0.0,0.0,0.0,0.0,0.0,0.0,0.0,-3.6028,-3.6857,-3.8379,-3.8802,-3.9206,-3.9619,-3.9255,-3.9027,-3.887,-3.9335,-3.9812,-4.0233,-3.9871,-3.9474,-3.906,-3.8301,-3.7823,-3.7577,0.0,0.0,0.0,0.0,0.0,0.0,0.0,0.0,0.0,0.0,-4.1037,-4.082,-4.0952,0.0,0.0,0.0,0.0,0.0,-4.0484,-4.0631,-4.0786,-4.0546,-4.125,-4.1938,0.0,0.0,0.0,0.0,0.0,0.0,0.0,0.0,0.0,0.0,0.0,0.0,0.0,0.0,0.0,0.0,0.0,0.0,0.0,0.0,0.0,0.0,0.0,0.0,0.0,0.0,-5.3174,-5.3174,-5.3174,-5.3174,-5.3174,-5.3788,-5.4102,-5.4102,-5.4102,-5.4102,-5.4102,-5.4102,-5.4102,-5.4102,0.0,-5.4102,-5.4102,-5.4102,-5.3922,-5.3653,-5.3653,-5.3458,-5.3144,-5.277,-5.265,-5.2606,0.0,0.0,0.0,0.0,0.0,0.0,0.0,0.0,0.0,0.0,0.0,0.0,0.0,0.0,0.0,0.0,0.0,0.0,0.0,0.0,-3.591,-3.5711,-3.5644,-3.6225,-3.7618,-3.8193,-3.8614,-3.8897,-3.8921,-3.8843,-3.8688,-3.9204,-3.9526,-3.9681,-3.9336,-3.887,-3.8306,-3.7547,-3.7236,-3.7284,0.0,0.0,0.0,0.0,0.0,0.0,0.0,0.0,0.0,0.0,0.0,0.0,0.0,0.0,0.0,-4.0693,-4.0559,-4.061,-4.0512,-4.0565,-4.0823,-4.1543,0.0,0.0,0.0,0.0,0.0,0.0,0.0,0.0,0.0,0.0,0.0,0.0,0.0,0.0,0.0,0.0,0.0,0.0,0.0,0.0,0.0,0.0,0.0,0.0,0.0,0.0,0.0,0.0,-5.2725,-5.2725,-5.2725,-5.2725,-5.2725,-5.2725,-5.2875,-5.3174,-5.3174,-5.3174,-5.3174,-5.3174,-5.3174,-5.3174,-5.3174,-5.3174,-5.3174,-5.3174,-5.3099,-5.295,-5.295,-5.286,-5.2665,-5.2157,-5.1977,-5.1887,0.0,0.0,0.0,0.0,0.0,0.0,0.0,0.0,0.0,0.0,0.0,0.0,0.0,0.0,0.0,0.0,0.0,0.0,0.0,0.0,-3.5997,-3.5975,-3.5734,-3.6011,-3.6863,-3.6931,-3.7303,-3.799,-3.8116,-3.8651,-3.9508,-3.8928,-3.9026,-3.9629,-3.8272,-3.7633,-3.753,-3.6715,-3.6387,-3.6508,-3.7853,0.0,0.0,0.0,0.0,0.0,0.0,0.0,0.0,0.0,0.0,0.0,0.0,0.0,-4.0974,-4.1106,-4.0662,-4.0395,-4.1612,-4.1647,-4.1573,-4.2546,0.0,0.0,0.0,0.0,0.0,0.0,0.0,0.0,0.0,0.0,0.0,0.0,0.0,0.0,0.0,0.0,0.0,0.0,0.0,0.0,0.0,0.0,0.0,0.0,0.0,0.0,0.0,0.0,0.0,-5.1364,-5.1364,-5.1364,-5.1364,-5.1364,-5.1977,-5.3174,-5.3174,-5.3174,-5.3174,-5.3174,-5.3174,-5.3174,-5.3174,-5.3174,-5.3174,-5.3174,-5.2815,-5.2276,-5.2276,-5.1887,-5.1349,-5.1304,-5.1289,-5.1289,0.0,0.0,0.0,0.0,0.0,0.0,0.0,0.0,0.0,0.0,0.0,0.0,0.0,0.0,0.0,0.0,0.0,0.0,0.0,0.0,-3.5932,-3.5756,-3.5644,-3.5735,-3.6045,-3.6535,-3.7221,-3.8091,-3.83,-3.8837,-3.9652,-3.8939,-3.8732,-3.8957,-3.7961,-3.7236,-3.6732,-3.6422,-3.6577,-3.7129,-3.8136,-3.878,0.0,0.0,0.0,0.0,0.0,0.0,0.0,0.0,-4.0864,0.0,0.0,0.0,-4.0917,-4.1098,-4.1095,-4.1049,-4.099,-4.1643,-4.2377,-4.2546,0.0,0.0,0.0,0.0,0.0,0.0,0.0,0.0,0.0,0.0,0.0,0.0,0.0,0.0,0.0,0.0,0.0,0.0,0.0,0.0,0.0,0.0,0.0,0.0,0.0,0.0,0.0,0.0,0.0,-5.1214,-5.1214,-5.1214,-5.1214,-5.1214,-5.1468,-5.1962,-5.1962,-5.1962,-5.1962,-5.1962,-5.1962,-5.1962,-5.1962,-5.1962,-5.1962,-5.1962,-5.1813,-5.1588,-5.1588,-5.1439,-5.1214,-5.1214,-5.1214,-5.1214,0.0,0.0,0.0,0.0,0.0,0.0,0.0,0.0,0.0,0.0,0.0,0.0,0.0,0.0,0.0,0.0,0.0,0.0,0.0,0.0,-3.5888,-3.5622,-3.56,-3.56,-3.56,-3.6383,-3.7102,-3.7757,-3.8488,-3.9147,-3.9681,-3.8939,-3.8594,-3.8543,-3.756,-3.6956,-3.6663,-3.6404,-3.6749,-3.7564,-3.8284,-3.902,0.0,0.0,0.0,0.0,0.0,0.0,0.0,0.0,0.0,0.0,0.0,0.0,0.0,0.0,-4.11,-4.1353,-4.0943,-4.16,-4.2496,0.0,0.0,0.0,0.0,0.0,0.0,0.0,0.0,0.0,0.0,0.0,0.0,0.0,0.0,0.0,0.0,0.0,0.0,0.0,0.0,0.0,0.0,0.0,0.0,0.0,0.0,0.0,0.0,0.0,0.0,0.0,-5.1214,-5.1214,-5.1214,-5.1214,-5.1214,-5.1214,-5.1214,-5.1214,-5.1214,-5.1214,-5.1214,-5.1214,-5.1214,-5.1214,-5.1214,-5.1214,-5.1214,-5.1214,-5.1214,-5.1214,-5.1214,-5.1214,-5.1214,-5.1214,0.0,0.0,0.0,0.0,0.0,0.0,0.0,0.0,0.0,0.0,0.0,0.0,0.0,0.0,0.0,0.0,0.0,0.0,0.0,-3.5997,-3.5888,-3.5622,-3.56,-3.56,-3.56,-3.6383,-3.6812,-3.6812,-3.8547,-3.95,-3.9664,-3.8939,-3.8594,-3.8508,-3.6991,-3.6749,-3.7443,-3.6628,-3.6766,-3.7581,-3.8323,-3.8975,-3.9615,0.0,0.0,0.0,0.0,0.0,0.0,0.0,0.0,0.0,0.0,0.0,0.0,0.0,-4.0635,-4.1228,-4.1836,-4.1714,0.0,0.0,0.0,0.0,0.0,0.0,0.0,0.0,0.0,0.0,0.0,0.0,0.0,0.0,0.0,0.0,0.0,0.0,0.0,0.0,0.0,0.0,0.0,0.0,0.0,0.0,0.0,0.0,0.0,0.0,0.0,0.0,-5.1214,-5.1214,-5.1214,-5.1214,-5.1214,-5.1214,-5.1214,-5.1214,-5.1214,-5.1214,-5.1214,-5.1214,-5.1214,-5.1214,-5.1214,-5.1214,-5.1214,-5.1214,-5.1214,-5.1214,-5.1214,-5.1214,-5.1214,-5.1214,0.0,0.0,0.0,0.0,0.0,0.0,0.0,0.0,0.0,0.0,0.0,0.0,0.0,0.0,0.0,0.0,0.0,0.0,0.0,-3.5893,-3.5689,-3.56,-3.56,-3.56,-3.56,-3.6418,-3.7154,-3.7774,-3.9003,-3.9371,-3.8922,-3.8698,-3.8301,-3.7823,0.0,-3.6956,-3.6628,-3.6404,-3.706,-3.8306,-3.8491,-3.9348,-4.0513,0.0,0.0,0.0,0.0,0.0,0.0,0.0,0.0,0.0,0.0,0.0,0.0,0.0,-4.0591,-4.1172,-4.1167,0.0,0.0,0.0,0.0,0.0,0.0,0.0,0.0,0.0,0.0,0.0,0.0,0.0,0.0,0.0,0.0,0.0,0.0,0.0,0.0,0.0,0.0,0.0,0.0,0.0,0.0,0.0,0.0,0.0,0.0,0.0,0.0,0.0,-5.1214,-5.1214,-5.1214,-5.1214,-5.1214,-5.1214,-5.1214,-5.1214,-5.1214,-5.1214,-5.1214,-5.1214,-5.1214,-5.1214,-5.1214,-5.1214,-5.1214,-5.1214,-5.1214,-5.1214,-5.1214,-5.1214,-5.1214,-5.1214,0.0,0.0,0.0,0.0,0.0,0.0,0.0,0.0,0.0,0.0,0.0,0.0,0.0,0.0,0.0,0.0,0.0,0.0,0.0,0.0,-3.56,-3.56,-3.56,-3.5757,-3.6107,-3.6395,-3.6973,-3.7855,-3.8729,-3.8825,-3.8168,0.0,-3.7944,-3.7495,0.0,-3.6943,-3.6796,-3.6443,-3.7219,-3.8661,-3.8661,-3.9554,-4.0912,0.0,0.0,0.0,0.0,0.0,0.0,0.0,0.0,0.0,0.0,0.0,0.0,0.0,-4.069,-4.1222,-4.1549,0.0,0.0,0.0,0.0,0.0,0.0,0.0,0.0,0.0,0.0,0.0,0.0,0.0,0.0,0.0,0.0,0.0,0.0,0.0,0.0,0.0,0.0,0.0,0.0,0.0,0.0,0.0,0.0,0.0,0.0,0.0,0.0,0.0,-5.0451,-5.0571,-5.0779,-5.0779,-5.096,-5.1214,-5.1214,-5.1214,-5.1214,-5.1214,-5.1214,-5.1214,-5.1214,-5.1214,-5.1214,-5.1214,-5.1214,-5.1214,-5.1214,-5.1214,-5.1214,-5.1214,-5.1214,-5.1214,0.0,0.0,0.0,0.0,0.0,0.0,0.0,0.0,0.0,0.0,0.0,0.0,0.0,0.0,0.0,0.0,0.0,0.0,0.0,0.0,-3.56,-3.5622,-3.5622,-3.5977,-3.6707,-3.6261,-3.6422,-3.719,-3.7928,-3.7978,0.0,0.0,-3.7461,-3.7374,0.0,-3.6813,-3.7451,-3.6744,-3.7353,-3.8807,-3.8854,-3.9692,-4.0912,-4.1047,0.0,0.0,0.0,0.0,0.0,0.0,0.0,0.0,0.0,0.0,0.0,-4.0624,-4.0778,-4.1294,0.0,0.0,0.0,0.0,0.0,0.0,0.0,0.0,0.0,0.0,0.0,0.0,0.0,0.0,0.0,0.0,0.0,0.0,0.0,0.0,0.0,0.0,0.0,0.0,0.0,0.0,0.0,0.0,0.0,0.0,0.0,0.0,0.0,-4.9314,-4.9314,-4.9553,-5.0091,-5.0106,-5.0405,-5.105,-5.105,-5.105,-5.105,-5.1169,-5.1214,-5.1214,-5.1214,-5.1214,-5.1214,-5.1214,-5.1214,-5.1214,-5.1214,-5.1214,-5.1214,-5.1214,-5.1214,-5.1214,0.0,0.0,0.0,0.0,0.0,0.0,0.0,0.0,0.0,0.0,0.0,0.0,0.0,0.0,0.0,0.0,0.0,0.0,0.0,0.0,-3.5644,-3.5751,-3.5844,-3.5749,-3.5411,-3.59,-3.6251,-3.6444,-3.7183,0.0,0.0,0.0,0.0,-3.6577,0.0,-3.7105,-3.6762,-3.7136,-3.7902,-3.8841,-3.9318,-4.0066,-4.0912,-4.0935,-4.0935,0.0,0.0,0.0,0.0,0.0,0.0,0.0,0.0,-4.0912,-4.0803,-4.0298,-4.0398,0.0,0.0,0.0,0.0,0.0,0.0,0.0,0.0,0.0,0.0,0.0,0.0,0.0,0.0,0.0,0.0,0.0,0.0,0.0,0.0,0.0,0.0,0.0,0.0,0.0,0.0,0.0,0.0,0.0,0.0,0.0,0.0,0.0,0.0,-4.9314,-4.9314,-4.9374,-4.9479,-4.9479,-4.9553,0.0,-4.9688,-4.9688,-4.9718,-5.075,-5.1214,-5.1214,-5.1214,-5.1214,-5.1214,-5.1214,-5.1214,-5.1214,-5.1214,-5.1214,-5.1214,-5.1214,-5.1214,-5.1214,0.0,0.0,0.0,0.0,0.0,0.0,0.0,0.0,0.0,0.0,0.0,0.0,0.0,0.0,0.0,0.0,0.0,0.0,0.0,0.0,0.0,0.0,-3.5586,-3.5493,-3.5565,-3.562,-3.5809,-3.6204,0.0,0.0,0.0,0.0,0.0,-3.6318,0.0,-3.6761,-3.6554,-3.7193,-3.797,-3.8859,-3.9536,-4.0227,-4.0912,-4.0959,-4.0959,-4.0912,-4.0912,0.0,0.0,0.0,0.0,0.0,0.0,0.0,-4.0889,-4.0754,-4.065,-4.0795,0.0,0.0,0.0,0.0,0.0,0.0,0.0,0.0,0.0,0.0,0.0,0.0,0.0,0.0,0.0,0.0,0.0,0.0,0.0,0.0,0.0,0.0,0.0,0.0,0.0,0.0,0.0,0.0,0.0,0.0,0.0,-4.8327,-4.8327,-4.8327,-4.8327,-4.8476,-4.8835,-4.879,-4.9,-4.9314,-4.9314,-4.9314,-4.9329,-4.9972,-5.0287,-5.0287,-5.0287,-5.0287,-5.0287,-5.0287,-5.0287,-5.0287,-5.0287,-5.0287,-5.0287,-5.0287,-5.0287,-5.0287,0.0,0.0,0.0,0.0,0.0,0.0,0.0,0.0,0.0,0.0,0.0,0.0,0.0,0.0,0.0,0.0,0.0,0.0,0.0,0.0,0.0,0.0,-3.5305,-3.5394,-3.5981,-3.5462,-3.5513,0.0,0.0,0.0,0.0,0.0,0.0,-3.628,0.0,-3.6314,-3.6554,-3.7262,-3.8025,-3.8876,-3.9737,-4.0395,-4.0912,-4.1023,-4.1,-4.0912,-4.0912,-4.0912,-4.0912,-4.0912,0.0,0.0,0.0,0.0,-4.0975,-4.1309,-4.1057,-4.0938,0.0,0.0,0.0,0.0,0.0,0.0,0.0,0.0,0.0,0.0,0.0,0.0,0.0,0.0,0.0,0.0,0.0,0.0,0.0,0.0,0.0,0.0,0.0,0.0,0.0,0.0,0.0,0.0,0.0,0.0,-4.7309,-4.7309,-4.7309,-4.7309,-4.7309,-4.7563,-4.8117,-4.8117,-4.8386,-4.897,-4.897,-4.897,-4.897,-4.897,-4.909,-4.9314,-4.9314,-4.9314,-4.9314,-4.9314,-4.9314,-4.9314,-4.9314,-4.9314,-4.9314,-4.9314,-4.9314,-4.9314,0.0,0.0,0.0,0.0,0.0,0.0,0.0,0.0,0.0,0.0,0.0,0.0,0.0,0.0,0.0,0.0,0.0,0.0,-3.56,0.0,0.0,-3.5053,-3.5673,-3.5753,-3.517,-3.5617,-3.5977,0.0,0.0,0.0,0.0,0.0,0.0,-3.6208,0.0,0.0,-3.6589,-3.8005,-3.8681,-3.8928,-4.0233,-4.0808,-4.0912,-4.0935,-4.0912,-4.0912,-4.0912,-4.0912,-4.0912,-4.0912,-4.0912,0.0,0.0,0.0,-4.0922,-4.0951,-4.1171,0.0,0.0,0.0,0.0,0.0,0.0,0.0,0.0,0.0,0.0,0.0,0.0,0.0,0.0,0.0,0.0,0.0,0.0,0.0,0.0,0.0,0.0,0.0,0.0,0.0,0.0,0.0,0.0,0.0,0.0,0.0,-4.7309,-4.7309,-4.7309,-4.7309,-4.7309,-4.7339,-4.7429,-4.7429,-4.7474,-4.7563,-4.7563,-4.7563,-4.7563,-4.7563,-4.8192,-4.9314,-4.9314,-4.9314,-4.9314,-4.9314,-4.9314,-4.9314,-4.9314,-4.9314,-4.9314,-4.9314,-4.9314,-4.9314,0.0,0.0,0.0,0.0,0.0,0.0,0.0,0.0,0.0,0.0,0.0,0.0,0.0,0.0,0.0,-3.58,-3.5667,-3.56,-3.56,-3.5711,-3.5647,-3.5406,-3.5778,-3.586,-3.5566,-3.5848,-3.6019,0.0,0.0,0.0,0.0,-3.5993,-3.6075,0.0,0.0,0.0,0.0,0.0,0.0,-3.9387,-4.0486,0.0,0.0,-4.1174,-4.1357,-4.1921,-4.1157,-4.0912,-4.0912,-4.0912,-4.0912,-4.0912,-4.0912,0.0,0.0,0.0,-4.1035,0.0,0.0,0.0,0.0,0.0,0.0,0.0,0.0,0.0,0.0,0.0,0.0,0.0,0.0,0.0,0.0,0.0,0.0,0.0,0.0,0.0,0.0,0.0,0.0,0.0,0.0,0.0,0.0,0.0,0.0,-4.7309,-4.7309,-4.7309,-4.7309,-4.7309,-4.7309,-4.7309,-4.7309,-4.7309,-4.7309,-4.7309,-4.7309,-4.7309,-4.7309,-4.7309,-4.7623,-4.8162,-4.8162,-4.8162,-4.8162,-4.8162,-4.8162,-4.8162,-4.8162,-4.8162,-4.8162,-4.8162,-4.8162,-4.8162,0.0,0.0,0.0,0.0,0.0,0.0,0.0,0.0,0.0,0.0,0.0,0.0,0.0,0.0,0.0,0.0,-3.56,-3.5622,-3.5644,-3.5644,-3.5706,-3.5795,-3.5795,-3.5839,-3.5949,-3.5954,0.0,0.0,0.0,0.0,-3.6058,-3.5927,-3.6073,0.0,-3.6331,0.0,0.0,0.0,0.0,0.0,0.0,0.0,0.0,0.0,0.0,-4.3228,-4.1886,-4.1409,-4.1357,-4.1009,-4.0912,-4.0912,-4.0912,-4.0912,0.0,0.0,0.0,0.0,0.0,0.0,0.0,0.0,0.0,0.0,0.0,0.0,0.0,0.0,0.0,0.0,0.0,0.0,0.0,0.0,0.0,0.0,0.0,0.0,0.0,0.0,0.0,0.0,0.0,0.0,0.0,0.0,0.0,-4.7309,-4.7309,-4.7309,-4.7309,-4.7309,-4.7309,-4.7309,-4.7309,-4.7309,-4.7309,-4.7309,-4.7309,-4.7309,-4.7309,-4.7309,-4.7309,-4.7309,-4.7309,-4.7309,-4.7309,-4.7309,-4.7309,-4.7309,-4.7309,-4.7309,-4.7309,-4.7309,-4.7309,-4.7309,0.0,0.0,0.0,0.0,0.0,0.0,0.0,0.0,0.0,0.0,0.0,0.0,-3.6259,-3.5893,-3.5622,-3.56,-3.56,-3.5644,-3.5773,-3.5795,-3.5795,-3.5795,-3.5795,0.0,-3.5817,-3.5817,0.0,0.0,0.0,0.0,-3.6204,-3.6058,-3.6456,-3.7252,-3.7096,-3.7597,-3.8577,0.0,0.0,0.0,0.0,0.0,0.0,0.0,0.0,0.0,0.0,-4.28,-4.2602,-4.1347,-4.0912,-4.0912,-4.0912,-4.0912,-4.0912,0.0,0.0,0.0,0.0,0.0,0.0,0.0,0.0,0.0,0.0,0.0,0.0,0.0,0.0,0.0,0.0,0.0,0.0,0.0,0.0,0.0,0.0,0.0,0.0,0.0,0.0,0.0,0.0,0.0,0.0,0.0,0.0,-4.7309,-4.7309,-4.7309,-4.7309,-4.7309,-4.7309,-4.7309,-4.7309,-4.7309,-4.7309,-4.7309,-4.7309,-4.7309,-4.7309,-4.7309,-4.7309,-4.7309,-4.7309,-4.7309,-4.7309,-4.7309,-4.7309,-4.7309,-4.7309,-4.7309,-4.7309,-4.7309,-4.7309,-4.7309,0.0,0.0,0.0,0.0,0.0,0.0,0.0,0.0,0.0,0.0,0.0,0.0,0.0,-3.538,-3.5081,-3.5549,-3.56,-3.5622,-3.5667,-3.5667,-3.5667,-3.5667,-3.5667,-3.5667,-3.5667,-3.5667,0.0,0.0,0.0,-3.6183,-3.6903,-3.6754,-3.717,-3.7985,-3.746,-3.8012,-3.9319,-3.9543,0.0,0.0,0.0,0.0,0.0,0.0,0.0,0.0,0.0,0.0,-4.2834,-4.2352,-4.1608,-4.0912,-4.0912,-4.0912,-4.0912,-4.0912,-4.0912,0.0,0.0,0.0,0.0,0.0,0.0,0.0,0.0,0.0,0.0,0.0,0.0,0.0,0.0,0.0,0.0,0.0,0.0,0.0,0.0,0.0,0.0,0.0,0.0,0.0,0.0,0.0,0.0,0.0,0.0,-4.7309,-4.7309,-4.7309,-4.7309,-4.7309,-4.7309,-4.7309,-4.7309,-4.7309,-4.7309,-4.7309,-4.7309,-4.7309,-4.7309,-4.7309,-4.7309,-4.7309,-4.7309,-4.7309,-4.7309,-4.7309,-4.7309,-4.7309,-4.7309,-4.7309,-4.7309,-4.7309,-4.7309,-4.7309,0.0,0.0,0.0,0.0,0.0,0.0,0.0,0.0,0.0,0.0,0.0,0.0,0.0,0.0,-3.4793,-3.5532,-3.56,-3.56,-3.56,-3.56,-3.56,-3.56,-3.56,-3.56,-3.56,-3.5452,0.0,0.0,0.0,0.0,0.0,-3.7489,-3.7986,-3.8803,-3.831,-3.8837,0.0,0.0,0.0,-4.1405,0.0,0.0,-4.4287,0.0,0.0,0.0,0.0,0.0,0.0,-4.3553,-4.2963,-4.2179,-4.1729,-4.1261,-4.0912,-4.0912,-4.0912,0.0,0.0,0.0,0.0,0.0,0.0,0.0,0.0,0.0,0.0,0.0,0.0,0.0,0.0,0.0,0.0,0.0,0.0,0.0,0.0,0.0,0.0,0.0,0.0,0.0,0.0,0.0,0.0,0.0,0.0,0.0,-4.7309,-4.7309,-4.7309,-4.7309,-4.7309,-4.7309,-4.7309,-4.7309,-4.7309,-4.7309,-4.7309,-4.7309,-4.7309,-4.7309,-4.7309,-4.7309,-4.7309,-4.7309,-4.7309,-4.7309,-4.7309,-4.7309,-4.7309,-4.7309,-4.7309,-4.7309,-4.7309,-4.7309,0.0,0.0,0.0,0.0,0.0,0.0,0.0,0.0,0.0,-3.6731,0.0,0.0,0.0,0.0,0.0,-3.5532,-3.56,-3.56,-3.56,-3.56,-3.56,-3.56,-3.56,-3.56,-3.5622,-3.5185,0.0,0.0,0.0,0.0,0.0,0.0,-3.89,-3.9733,-3.9733,-4.0187,-4.0912,0.0,-4.1326,-4.2122,0.0,-4.4116,-4.3263,0.0,0.0,0.0,-4.4992,-4.4975,0.0,-4.4958,0.0,0.0,0.0,-4.1972,-4.0912,-4.0912,-4.0912,0.0,0.0,0.0,0.0,0.0,0.0,0.0,0.0,0.0,0.0,0.0,0.0,0.0,0.0,0.0,0.0,0.0,0.0,0.0,0.0,0.0,0.0,0.0,0.0,0.0,0.0,0.0,0.0,0.0,-4.7309,-4.7309,-4.7309,-4.7309,-4.7309,-4.7309,-4.7309,-4.7309,-4.7309,-4.7309,-4.7309,-4.7309,-4.7309,-4.7309,-4.7309,-4.7309,-4.7309,-4.7309,-4.7309,-4.7309,-4.7309,-4.7309,-4.7309,-4.7309,-4.7309,-4.7309,-4.7309,-4.7309,-4.7309,-4.7309,0.0,0.0,0.0,0.0,0.0,0.0,0.0,0.0,-3.6429,0.0,0.0,0.0,-3.589,-3.5591,-3.538,-3.5583,-3.56,-3.56,-3.56,-3.5689,-3.5734,-3.5734,-3.5734,-3.5778,-3.5888,-3.6241,0.0,0.0,0.0,0.0,0.0,0.0,0.0,0.0,-4.052,-4.0705,-4.0912,-4.0912,0.0,0.0,-4.3896,-4.4678,0.0,0.0,0.0,0.0,0.0,-4.6578,-4.5828,0.0,-4.5193,-4.3511,0.0,0.0,-4.0912,0.0,0.0,0.0,-4.0912,0.0,0.0,0.0,0.0,0.0,0.0,0.0,0.0,0.0,0.0,0.0,0.0,0.0,0.0,0.0,0.0,0.0,0.0,0.0,0.0,0.0,0.0,0.0,0.0,0.0,0.0,0.0,-4.7309,-4.7309,-4.7309,-4.7309,-4.7309,-4.7309,-4.7309,-4.7309,-4.7309,-4.7309,-4.7309,-4.7309,-4.7309,-4.7309,-4.7309,-4.7309,-4.7309,-4.7309,-4.7309,-4.7309,-4.7309,-4.7309,-4.7309,-4.7309,-4.7309,-4.7309,-4.7309,-4.7309,-4.7309,-4.7309,0.0,0.0,0.0,0.0,0.0,0.0,0.0,-3.6734,-3.6484,0.0,0.0,0.0,-3.4857,-3.5316,-3.56,-3.56,-3.56,-3.5622,-3.5667,-3.5751,-3.5953,-3.6343,-3.6321,-3.6382,-3.6405,-3.6541,0.0,0.0,0.0,0.0,0.0,0.0,0.0,0.0,0.0,0.0,0.0,0.0,0.0,0.0,-4.3827,0.0,0.0,-4.6725,-4.7488,0.0,0.0,0.0,-4.6612,-4.7526,-4.6311,0.0,0.0,0.0,0.0,0.0,0.0,0.0,0.0,0.0,0.0,0.0,0.0,0.0,-4.3432,-4.426,0.0,0.0,0.0,0.0,0.0,0.0,0.0,0.0,0.0,0.0,0.0,0.0,0.0,0.0,0.0,0.0,0.0,0.0,0.0,-4.689,-4.7145,-4.7309,-4.7309,-4.7309,-4.7309,-4.7309,-4.7309,-4.7309,-4.7309,-4.7309,-4.7309,-4.7309,-4.7309,-4.7309,-4.7309,-4.7309,-4.7309,-4.7309,-4.7309,-4.7309,-4.7309,-4.7309,-4.7309,-4.7309,-4.7309,-4.7309,-4.7309,-4.7309,-4.7309,-4.7309,0.0,0.0,0.0,0.0,0.0,0.0,0.0,0.0,-3.6699,0.0,-3.4199,-3.3823,-3.3664,-3.4805,-3.56,-3.5622,-3.5707,-3.5802,-3.5914,-3.6021,-3.6406,-3.716,-3.7132,-3.7126,-3.7115,-3.6546,0.0,0.0,0.0,0.0,0.0,0.0,0.0,0.0,0.0,0.0,0.0,0.0,0.0,-4.1347,-4.381,-4.4143,0.0,0.0,-4.6385,-4.5516,-4.677,-4.7182,-4.7301,-4.8433,-4.7636,0.0,0.0,0.0,0.0,0.0,-4.2164,0.0,0.0,0.0,0.0,0.0,0.0,0.0,-4.4675,-4.4964,-4.513,0.0,0.0,0.0,0.0,0.0,0.0,0.0,0.0,0.0,0.0,0.0,0.0,0.0,0.0,0.0,0.0,-4.5843,-4.6202,-4.6217,-4.6815,-4.7189,-4.7189,-4.7264,-4.7309,-4.7309,-4.7309,-4.7309,-4.7309,-4.7309,-4.7309,-4.7309,-4.7309,-4.7309,-4.7309,-4.7309,-4.7309,-4.7309,-4.7309,-4.7309,-4.7309,-4.7309,-4.7309,-4.7309,-4.7309,-4.7309,-4.7309,-4.7309,-4.7309,-4.7309,-3.9101,0.0,0.0,0.0,0.0,0.0,0.0,0.0,-3.4623,-3.322,-3.3832,-3.4566,-3.5092,-3.543,-3.5644,-3.5751,-3.6243,-3.6581,-3.6678,-3.7354,-3.7769,-3.7812,-3.7359,-3.7371,-3.7945,-3.7889,0.0,0.0,0.0,0.0,0.0,0.0,0.0,0.0,0.0,0.0,0.0,0.0,0.0,-4.2602,-4.3734,0.0,-4.4763,-4.7031,-4.8018,-4.8233,-4.8491,-4.831,-4.784,-4.7634,-4.7243,-4.6635,0.0,0.0,0.0,-4.3114,0.0,0.0,0.0,0.0,0.0,0.0,0.0,0.0,-4.425,-4.481,-4.5179,0.0,0.0,0.0,0.0,0.0,0.0,0.0,0.0,0.0,0.0,0.0,0.0,0.0,0.0,0.0,0.0,-4.5575,-4.5691,-4.5499,-4.6127,-4.6516,-4.6516,-4.7025,-4.7309,-4.7309,-4.7309,-4.7309,-4.7309,-4.7309,-4.7309,-4.7309,-4.7309,-4.7309,-4.7309,-4.7309,-4.7309,-4.7309,-4.7309,-4.7309,-4.7309,-4.7309,-4.7309,-4.7309,-4.7309,-4.7309,-4.7309,-4.7309,-4.7309,-4.7309,-3.8488,0.0,0.0,0.0,0.0,0.0,0.0,0.0,0.0,-3.3148,-3.3876,-3.4641,-3.5013,-3.574,-3.622,-3.6305,-3.6954,-3.7377,-3.7426,-3.7853,-3.8274,-3.8666,-3.8412,-3.8418,-3.8777,-3.8828,-3.907,0.0,0.0,0.0,0.0,0.0,0.0,0.0,0.0,0.0,0.0,0.0,-4.1295,-4.2058,-4.3777,0.0,-4.6141,-4.7882,-4.8741,-4.9001,-4.9001,-4.8795,-4.8514,-4.8214,-4.7644,0.0,-4.6322,-4.5866,-4.5343,0.0,-4.4327,-4.4936,0.0,0.0,0.0,-4.4302,0.0,0.0,0.0,-4.5261,-4.5646,0.0,0.0,0.0,0.0,0.0,0.0,0.0,0.0,0.0,0.0,0.0,0.0,0.0,0.0,0.0,0.0,-4.4683,-4.5053,-4.5274,-4.5618,-4.5813,-4.5813,-4.6127,-4.6456,-4.68,-4.6815,-4.698,-4.7309,-4.7309,-4.7309,-4.7309,-4.7309,-4.7309,-4.7309,-4.7309,-4.7309,-4.7309,-4.7309,-4.7309,-4.7309,-4.7309,-4.7309,-4.7309,-4.7309,-4.7309,-4.7309,-4.7309,-4.7309,-4.7309,-3.7671,0.0,0.0,0.0,0.0,0.0,0.0,0.0,0.0,0.0,-3.443,-3.5018,-3.5131,-3.6502,-3.7438,-3.7462,-3.8132,-3.8512,-3.8452,-3.8571,-3.8993,-3.9712,-3.9498,-3.9488,-3.9778,-3.9505,-3.9491,0.0,0.0,0.0,0.0,0.0,0.0,0.0,0.0,0.0,0.0,0.0,0.0,-4.1859,0.0,-4.5499,-4.6572,-4.792,-4.8606,-4.8829,-4.8951,-4.9001,-4.8984,-4.888,-4.8197,-4.73,-4.6958,-4.6749,0.0,0.0,0.0,0.0,0.0,0.0,0.0,0.0,0.0,-4.5375,0.0,0.0,0.0,0.0,0.0,0.0,0.0,0.0,0.0,0.0,0.0,0.0,0.0,0.0,0.0,0.0,0.0,0.0,0.0,-4.3901,-4.4424,-4.487,-4.5105,-4.5191,-4.5095,-4.5229,-4.5544,-4.6112,-4.6127,-4.6441,-4.7115,-4.7115,-4.7174,-4.7309,-4.7309,-4.7309,-4.7309,-4.7309,-4.7309,-4.7309,-4.7309,-4.7309,-4.7309,-4.7309,-4.7309,-4.7309,-4.7309,-4.7309,-4.7309,-4.7309,-4.7309,-4.7309,-3.6835,-3.6734,0.0,0.0,0.0,0.0,0.0,0.0,0.0,0.0,0.0,0.0,0.0,0.0,0.0,-3.9889,-4.0485,-4.0595,-4.0084,-4.0645,-4.1002,-4.1002,-3.9865,-3.9836,-4.1129,-3.9887,-3.962,-4.0397,0.0,0.0,0.0,0.0,0.0,0.0,-4.2173,0.0,0.0,0.0,-4.334,0.0,-4.478,-4.468,0.0,-4.589,-4.7163,-4.8256,-4.8795,-4.9001,-4.89,0.0,-4.8112,-4.7797,0.0,-4.7068,-4.7549,-4.5763,0.0,0.0,0.0,0.0,0.0,0.0,-4.5397,0.0,0.0,0.0,-4.5455,-4.539,0.0,0.0,0.0,0.0,0.0,0.0,0.0,0.0,0.0,0.0,0.0,0.0,0.0,0.0,0.0,0.0,-4.3821,-4.3534,-4.4404,-4.4764,-4.4432,-4.4975,-4.5334,-4.5409,-4.5409,-4.5738,-4.6384,-4.6384,-4.6726,-4.7309,-4.7309,-4.7309,-4.7309,-4.7309,-4.7309,-4.7309,-4.7309,-4.7309,-4.7309,-4.7309,-4.7309,-4.7309,-4.7309,-4.7309,-4.7309,-4.7309,-4.7309,-4.7309,-3.6105,-3.5603,0.0,0.0,0.0,0.0,0.0,0.0,0.0,0.0,0.0,0.0,0.0,0.0,0.0,0.0,0.0,-4.1094,0.0,-4.1095,-4.1104,-4.0705,-4.0069,-4.0093,-4.0855,-4.0201,-4.008,-4.0624,-4.0583,0.0,0.0,0.0,0.0,0.0,-4.2603,0.0,-4.3246,0.0,-4.4177,0.0,0.0,0.0,0.0,-4.6992,-4.8137,-4.864,-4.8931,-4.9001,-4.8951,0.0,-4.8163,0.0,0.0,0.0,0.0,0.0,0.0,0.0,0.0,0.0,0.0,0.0,0.0,0.0,-4.5474,0.0,-4.5397,0.0,0.0,0.0,0.0,0.0,0.0,0.0,-4.466,0.0,0.0,0.0,0.0,0.0,0.0,0.0,0.0,0.0,0.0,0.0,-4.4259,-4.4126,-4.3948,-4.4058,-4.4332,-4.4721,-4.4721,-4.505,-4.5723,-4.5723,-4.6067,-4.6741,-4.6741,-4.6935,-4.7309,-4.7309,-4.7309,-4.7309,-4.7309,-4.7309,-4.7309,-4.7309,-4.7309,-4.7309,-4.7309,-4.7309,-4.7309,-4.7309,-4.7309,-4.7309,-3.5621,0.0,0.0,0.0,0.0,0.0,0.0,0.0,0.0,0.0,0.0,0.0,-3.7354,-3.8599,0.0,0.0,-4.1694,-4.2033,0.0,0.0,-4.1434,-4.1146,-4.0535,-4.05,-4.1083,-4.0616,-4.0478,-4.0697,0.0,0.0,0.0,0.0,0.0,0.0,0.0,-4.3442,-4.4363,0.0,0.0,-4.4851,-4.5316,-4.5794,-4.6419,-4.8103,-4.8863,-4.9001,-4.9001,-4.9001,-4.8968,-4.8795,-4.818,0.0,-4.8286,0.0,0.0,0.0,0.0,0.0,-4.5858,0.0,0.0,0.0,0.0,0.0,0.0,0.0,0.0,0.0,0.0,0.0,0.0,0.0,0.0,0.0,0.0,0.0,0.0,0.0,0.0,0.0,0.0,0.0,0.0,0.0,0.0,-4.4856,-4.4458,-4.409,-4.3793,-4.3557,-4.3633,-4.4128,-4.4047,-4.4362,-4.502,-4.5035,-4.5364,-4.6052,-4.619,-4.6576,-4.704,-4.7219,-4.7309,-4.7309,-4.7309,-4.7309,-4.7309,-4.7309,-4.7309,-4.7309,-4.7309,-4.7309,-4.7309,-4.7309,-4.7309,-4.7309,-3.551,-3.4804,0.0,0.0,0.0,0.0,0.0,0.0,0.0,0.0,0.0,0.0,0.0,0.0,0.0,0.0,0.0,-4.4147,-4.3375,0.0,-4.2724,-4.3284,-4.1495,-4.1151,-4.2603,-4.122,-4.0558,-4.0697,0.0,0.0,0.0,0.0,0.0,0.0,0.0,-4.2911,-4.3066,-4.4346,-4.5676,-4.6922,-4.6939,-4.77,-4.8829,0.0,-4.8497,-4.9001,-4.9001,0.0,0.0,-4.8324,-4.8112,0.0,0.0,0.0,0.0,0.0,0.0,0.0,0.0,0.0,0.0,-4.556,0.0,0.0,0.0,0.0,-4.5397,0.0,0.0,0.0,0.0,0.0,0.0,-4.35,0.0,0.0,0.0,0.0,0.0,0.0,0.0,0.0,0.0,0.0,0.0,-4.4311,-4.5046,-4.51,-4.4058,-4.3808,-4.3705,-4.372,-4.3453,-4.3633,-4.4347,-4.4347,-4.4676,-4.5334,-4.6007,-4.6294,-4.6324,-4.701,-4.7309,-4.7309,-4.7309,-4.7309,-4.7309,-4.7309,-4.7309,-4.7309,-4.7309,-4.7309,-4.7309,-4.7309,-4.7309,-4.7309,0.0,0.0,0.0,0.0,0.0,0.0,0.0,-3.6609,0.0,0.0,0.0,0.0,0.0,-4.1469,-4.2443,0.0,0.0,-4.3834,-4.3436,-4.2833,0.0,-4.3505,-4.158,-4.1186,-4.2689,-4.1237,-4.0558,-4.0697,0.0,0.0,0.0,0.0,0.0,0.0,0.0,-4.3836,0.0,0.0,0.0,0.0,0.0,-4.8014,-4.8429,0.0,-4.8812,-4.9001,-4.9001,-4.9001,0.0,-4.8775,-4.8429,-4.8146,-4.8324,-4.7971,-4.7544,-4.7741,-4.7668,0.0,0.0,0.0,-4.7244,-4.6231,0.0,0.0,0.0,0.0,0.0,0.0,0.0,0.0,0.0,0.0,0.0,-4.4751,-4.507,0.0,0.0,0.0,0.0,0.0,0.0,0.0,0.0,0.0,0.0,-4.5341,-4.4854,-4.4355,-4.4011,-4.3621,-4.3423,-4.3423,-4.3344,-4.3409,-4.3618,-4.3618,-4.3947,-4.4646,-4.4885,-4.5214,-4.5663,-4.6352,-4.6651,-4.6681,-4.7115,-4.7309,-4.7309,-4.7309,-4.7309,-4.7309,-4.7309,-4.7309,-4.7309,-4.7309,-4.7309,-4.7309,-3.8934,0.0,0.0,0.0,0.0,0.0,0.0,0.0,0.0,0.0,-3.8755,0.0,-4.1682,0.0,-4.3066,0.0,-4.4597,-4.4676,-4.4315,-4.3912,0.0,-4.4419,-4.2918,-4.2629,-4.3822,-4.2219,-4.1388,-4.1479,0.0,-4.0697,0.0,0.0,0.0,0.0,0.0,0.0,-4.5363,0.0,-4.7801,0.0,0.0,-4.8412,0.0,0.0,-4.888,-4.8707,0.0,-4.9001,-4.9001,-4.9001,-4.8741,-4.8497,-4.888,-4.8463,-4.7916,-4.8307,-4.8146,-4.7792,-4.7578,-4.7809,0.0,-4.6879,-4.6914,0.0,-4.5952,0.0,-4.5713,0.0,0.0,0.0,0.0,0.0,0.0,-4.5679,-4.5543,0.0,0.0,-4.5397,0.0,0.0,0.0,0.0,0.0,0.0,-4.5893,-4.5527,-4.4997,-4.4527,0.0,0.0,-4.3606,-4.3542,-4.3463,-4.3384,-4.329,-4.329,-4.3499,-4.3932,-4.4212,-4.4541,-4.4975,-4.5648,-4.6097,-4.6309,-4.677,-4.7085,-4.7309,-4.7309,-4.7309,-4.7309,-4.7309,-4.7309,-4.7309,-4.7309,-4.7309,-4.7309,0.0,0.0,0.0,0.0,-3.989,0.0,0.0,0.0,-3.8321,0.0,-4.0071,-4.1393,-4.2869,-4.418,-4.5222,-4.5892,-4.6508,-4.6586,-4.6017,-4.5932,0.0,0.0,-4.5312,-4.5254,-4.5949,-4.3945,-4.2894,-4.2894,0.0,0.0,0.0,0.0,0.0,0.0,-4.1772,0.0,-4.5915,-4.6073,-4.7253,-4.9001,-4.9001,-4.8984,-4.8951,-4.8984,-4.8636,-4.8184,-4.8761,-4.9001,-4.9001,-4.9001,-4.9001,-4.9001,-4.9001,-4.9001,-4.9001,-4.9001,-4.9001,-4.888,-4.829,-4.8133,-4.8005,-4.7414,-4.7238,0.0,0.0,0.0,-4.6351,0.0,0.0,0.0,0.0,0.0,0.0,0.0,0.0,0.0,0.0,0.0,0.0,0.0,0.0,0.0,0.0,-4.583,-4.584,-4.4883,-4.5441,0.0,0.0,0.0,-4.4212,-4.3988,-4.3808,-4.3557,-4.329,-4.329,-4.329,-4.3305,-4.3932,-4.4272,-4.4287,-4.4945,-4.5603,-4.619,-4.6262,-4.6651,-4.7249,-4.7249,-4.7279,-4.7309,-4.7309,-4.7309,-4.7309,-4.7309,-4.7309,-4.7309,-4.2259,-4.2667,-4.2529,0.0,-3.9813,-3.9047,0.0,0.0,0.0,0.0,-4.2383,-4.3905,-4.6049,-4.6604,-4.6839,-4.6942,-4.7176,0.0,0.0,0.0,0.0,-4.7704,-4.6058,-4.5665,-4.6851,-4.4255,-4.2894,-4.2894,0.0,0.0,-4.0558,0.0,0.0,0.0,0.0,0.0,-4.5949,-4.6618,-4.7712,-4.9001,-4.9001,-4.8741,0.0,0.0,-4.8636,-4.8184,-4.8761,-4.9001,-4.9001,-4.9001,-4.9001,-4.9001,-4.9001,-4.9001,-4.9001,-4.9001,-4.9001,-4.8968,-4.8795,-4.8775,-4.8636,-4.8022,-4.7865,-4.7707,0.0,0.0,0.0,0.0,0.0,0.0,0.0,0.0,0.0,0.0,0.0,0.0,0.0,0.0,0.0,-4.5397,0.0,0.0,-4.535,-4.5324,-4.5235,-4.4967,-4.4879,0.0,0.0,0.0,0.0,-4.3793,-4.3729,-4.3557,-4.329,-4.329,-4.329,-4.329,-4.3469,-4.3544,-4.3559,-4.4272,-4.4661,-4.4855,-4.5349,-4.5948,-4.6576,-4.6576,-4.686,-4.7309,-4.7309,-4.7309,-4.7309,-4.7309,-4.7309,-4.7309,-4.341,0.0,0.0,-4.1529,0.0,0.0,-3.9587,-3.9975,0.0,-4.3088,-4.4171,0.0,-4.7455,-4.7842,-4.8083,-4.8334,-4.834,0.0,-4.7877,0.0,0.0,-4.8477,-4.7501,-4.7352,-4.8189,-4.589,0.0,-4.4395,0.0,0.0,-4.0988,0.0,0.0,0.0,0.0,-4.4221,0.0,-4.7007,-4.7899,-4.8562,-4.8883,0.0,0.0,-4.888,-4.8778,-4.8534,-4.888,-4.9001,-4.9001,-4.9001,-4.9001,-4.9001,-4.9001,-4.9001,-4.9001,-4.9001,-4.9001,-4.9001,-4.9001,-4.9001,-4.89,-4.8585,-4.8497,-4.834,-4.7724,-4.7595,-4.7595,0.0,-4.7397,-4.7255,0.0,0.0,0.0,0.0,0.0,0.0,0.0,0.0,0.0,0.0,-4.533,0.0,-4.5379,-4.5167,-4.4999,-4.4999,-4.4579,0.0,0.0,0.0,0.0,-4.3609,-4.3836,-4.3793,-4.3463,-4.3463,-4.3423,-4.329,-4.329,-4.329,-4.3305,-4.3678,-4.4007,-4.4332,-4.4706,-4.5244,-4.5903,-4.6202,-4.6503,-4.6905,-4.7189,-4.7309,-4.7309,-4.7309,-4.7309,-4.7309,0.0,0.0,0.0,0.0,0.0,0.0,0.0,-4.1474,0.0,-4.4687,0.0,-4.6699,-4.8048,-4.854,-4.905,-4.9686,0.0,-4.9333,-4.8827,-4.9277,-4.9316,-4.881,-4.9069,-4.932,-4.9488,-4.786,-4.6749,0.0,0.0,0.0,0.0,0.0,0.0,0.0,0.0,0.0,0.0,-4.7327,-4.7939,-4.8091,-4.8748,-4.9001,-4.9001,-4.9001,-4.9001,-4.9001,-4.9001,-4.9001,-4.9001,-4.9001,-4.9001,-4.9001,-4.9001,-4.9001,-4.9001,-4.9001,-4.9001,-4.9001,-4.9001,-4.9001,-4.9001,-4.9001,-4.9001,-4.8863,-4.834,-4.8218,-4.8218,-4.8218,-4.7809,-4.7736,0.0,0.0,0.0,0.0,0.0,0.0,0.0,0.0,0.0,0.0,0.0,0.0,-4.5414,-4.5172,-4.5012,0.0,0.0,0.0,0.0,0.0,0.0,-4.3605,-4.4052,-4.4089,-4.369,0.0,-4.3518,-4.329,-4.329,-4.329,-4.329,-4.329,-4.3604,-4.4182,-4.4182,-4.4556,-4.5214,-4.5813,-4.613,-4.6396,-4.7055,-4.7309,-4.7309,-4.7309,-4.7309,-4.7309,0.0,0.0,0.0,0.0,0.0,-4.556,-4.5975,-4.5846,-4.5848,-4.63,-4.7464,-4.8635,-4.9522,-4.9689,-4.9797,-4.9918,-4.9935,0.0,0.0,0.0,0.0,-4.9746,-4.9555,-4.9441,-4.9518,-4.786,-4.6663,0.0,0.0,0.0,0.0,0.0,0.0,0.0,0.0,0.0,-4.6809,-4.7577,0.0,-4.8832,-4.8951,-4.9001,-4.9001,-4.9001,-4.9001,-4.9001,-4.9001,-4.9001,-4.9001,-4.9001,-4.9001,-4.9001,-4.9001,-4.9001,-4.9001,-4.9001,-4.9001,-4.9001,-4.9001,-4.9001,-4.9001,-4.9001,-4.9001,-4.8968,-4.888,-4.8829,-4.8829,-4.8829,-4.8758,-4.8602,-4.8307,0.0,0.0,0.0,0.0,0.0,0.0,0.0,0.0,0.0,0.0,-4.5821,0.0,-4.5258,0.0,0.0,0.0,0.0,0.0,0.0,0.0,0.0,-4.4066,0.0,0.0,0.0,-4.3344,-4.329,-4.329,-4.329,-4.329,-4.329,-4.3349,-4.3469,-4.3469,-4.3883,-4.4496,-4.4616,-4.5319,-4.6396,-4.7055,-4.7309,-4.7309,-4.7309,-4.7309,-4.7309,0.0,0.0,0.0,0.0,0.0,0.0,0.0,-4.9025,0.0,-4.8391,-4.867,-4.9199,-5.004,-5.0367,-5.0735,-5.1114,-5.1149,-5.0994,-5.0614,-5.058,-5.0407,-5.0028,-4.9742,-4.9666,-4.9742,-4.8787,-4.7778,-4.672,0.0,0.0,0.0,0.0,0.0,0.0,0.0,-4.5343,0.0,0.0,0.0,-4.8477,-4.8849,-4.9001,-4.9001,-4.9001,-4.9001,-4.9001,-4.9001,-4.9001,-4.9001,-4.9001,-4.9001,-4.9001,-4.9001,-4.9001,-4.9001,-4.9001,-4.9001,-4.9001,-4.9001,-4.9001,-4.9001,-4.9001,-4.9001,-4.9001,-4.9001,-4.9001,-4.9001,-4.9001,-4.9001,-4.8812,-4.8218,-4.76,0.0,0.0,0.0,0.0,0.0,0.0,-4.7079,0.0,0.0,0.0,0.0,0.0,0.0,0.0,0.0,0.0,0.0,0.0,0.0,0.0,0.0,0.0,0.0,0.0,0.0,-4.3518,-4.3384,-4.329,-4.329,-4.329,-4.329,-4.329,-4.329,-4.3469,-4.3798,-4.4182,-4.511,-4.6309,-4.6681,-4.701,-4.7309,-4.7309,-4.7309,-4.7309,0.0,-4.6981,0.0,0.0,-4.9189,0.0,-5.0702,-5.1638,-5.179,-5.04,-4.9984,-5.0015,-5.0564,-5.1153,-5.1711,-5.2166,-5.2188,-5.1946,-5.136,-5.1309,-5.108,-5.0493,-5.014,-5.0025,-5.0194,-4.9739,-4.8897,0.0,0.0,0.0,0.0,0.0,0.0,0.0,0.0,0.0,0.0,0.0,-4.7973,-4.8176,-4.8781,-4.9001,-4.9001,-4.9001,-4.9001,-4.9001,-4.9001,-4.9001,-4.9001,-4.9001,-4.9001,-4.9001,-4.9001,-4.9001,-4.9001,-4.9001,-4.9001,-4.9001,-4.9001,-4.9001,-4.9001,-4.9001,-4.9001,-4.9001,-4.9001,-4.9001,-4.9001,-4.9001,-4.9001,-4.8812,-4.8218,-4.7826,0.0,0.0,0.0,0.0,0.0,0.0,0.0,0.0,0.0,0.0,-4.6501,0.0,0.0,0.0,0.0,0.0,0.0,0.0,0.0,0.0,0.0,-4.4106,-4.4067,0.0,-4.3714,-4.3596,-4.3463,-4.3384,-4.329,-4.329,-4.329,-4.329,-4.329,-4.329,-4.3349,-4.4007,-4.502,-4.6112,-4.6219,-4.6726,-4.7309,-4.7309,-4.7309,-4.7309,0.0,0.0,0.0,0.0,0.0,0.0,-5.2999,-5.3859,-5.3828,-5.194,-5.213,-5.2333,-5.2027,-5.2544,-5.2729,-5.2231,-5.2188,-5.2153,-5.2084,-5.2084,-5.205,-5.1981,-5.1223,-5.0802,-5.0819,-4.9937,-4.9124,0.0,0.0,-4.5807,0.0,0.0,0.0,0.0,0.0,0.0,0.0,-4.7838,-4.8308,-4.89,-4.8968,-4.9001,-4.9001,-4.9001,-4.9001,-4.9001,-4.9001,-4.9001,-4.9001,-4.9001,-4.9001,-4.9001,-4.9001,-4.9001,-4.9001,-4.9001,-4.9001,-4.9001,-4.9001,-4.9001,-4.9001,-4.9001,-4.9001,-4.9001,-4.9001,-4.9001,-4.9001,-4.9001,-4.9001,-4.8812,-4.8218,-4.8514,-4.8653,0.0,0.0,0.0,0.0,0.0,-4.8636,-4.8078,0.0,0.0,0.0,-4.7073,0.0,0.0,0.0,0.0,0.0,0.0,0.0,-4.3784,0.0,-4.3514,-4.3289,-4.3761,-4.3738,-4.3329,-4.3557,-4.3557,-4.329,-4.329,-4.329,-4.329,-4.329,-4.329,-4.3349,-4.4007,-4.4736,-4.5454,-4.6082,-4.6726,-4.7309,-4.7309,-4.7309,-4.7309,0.0,0.0,0.0,0.0,0.0,0.0,0.0,-5.5023,-5.5031,-5.4402,-5.3846,-5.3637,-5.3929,-5.4166,-5.425,-5.4114,-5.4107,-5.3783,-5.299,-5.2925,-5.2718,-5.2205,-5.1882,-5.1696,-5.1696,-5.0896,-5.0034,0.0,0.0,0.0,0.0,0.0,0.0,0.0,0.0,-4.7475,-4.8022,-4.8406,-4.8731,-4.9001,-4.9001,-4.9001,-4.9001,-4.9001,-4.9001,-4.9001,-4.9001,-4.9001,-4.9001,-4.9001,-4.9001,-4.9001,-4.9001,-4.9001,-4.9001,-4.9001,-4.9001,-4.9001,-4.9001,-4.9001,-4.9001,-4.9001,-4.9001,-4.9001,-4.9001,-4.9001,-4.9001,-4.9001,-4.9001,-4.8917,-4.8673,-4.8534,-4.8514,-4.8636,0.0,0.0,0.0,0.0,0.0,-4.8657,0.0,-4.8022,0.0,0.0,0.0,0.0,0.0,0.0,0.0,0.0,0.0,-4.3799,0.0,-4.3945,-4.3869,-4.3952,-4.3832,-4.3557,-4.3651,-4.3557,-4.329,-4.329,-4.329,-4.329,-4.329,-4.329,-4.3319,-4.3574,-4.4067,-4.4781,-4.5439,-4.6112,-4.677,-4.716,-4.7309,-4.7309,-5.2902,0.0,-5.4025,0.0,-5.5021,-5.5346,-5.5871,-5.6143,-5.636,-5.6497,-5.5726,-5.5256,-5.5428,-5.5588,-5.5606,-5.5437,-5.5385,-5.4925,-5.3784,-5.3718,-5.3477,-5.2894,-5.2684,0.0,-5.2532,-5.1821,-5.1107,-5.0437,-4.8809,0.0,0.0,0.0,0.0,0.0,-4.7958,-4.8226,-4.8434,-4.8843,-4.9001,-4.9001,-4.9001,-4.9137,-4.9323,-4.9323,-4.9458,-4.9661,-4.9661,-4.9661,-4.9661,-4.9661,-4.9509,-4.9289,-4.9069,-4.9001,-4.9001,-4.9001,-4.9001,-4.9001,-4.9001,-4.9001,-4.9001,-4.9001,-4.9001,-4.9001,-4.9001,-4.9001,-4.9001,-4.9001,-4.9001,-4.9001,-4.9001,-4.867,-4.8514,-4.8917,0.0,0.0,0.0,-4.9001,0.0,-4.8775,-4.8374,-4.8112,-4.8112,-4.7707,0.0,0.0,0.0,0.0,0.0,0.0,0.0,0.0,0.0,0.0,0.0,-4.4151,-4.4026,-4.369,-4.3769,-4.3636,-4.329,-4.329,-4.329,-4.329,-4.329,-4.329,-4.329,-4.329,-4.3678,-4.4377,-4.5035,-4.5723,-4.6396,-4.7055,-4.7309,-4.7309,-5.4349,-5.4494,-5.4709,-5.5449,-5.6235,-5.6785,-5.6785,-5.7464,-5.7978,-5.7978,-5.7978,-5.7522,-5.6421,-5.6765,-5.6616,-5.5502,-5.5385,-5.5134,-5.4526,-5.4494,-5.4494,0.0,0.0,-5.3391,-5.3391,-5.2615,-5.217,-5.2153,0.0,0.0,-4.7436,0.0,-4.6236,-4.8377,-4.8196,-4.8515,-4.9182,-4.9046,-4.9001,-4.9001,-4.9001,-4.9441,-5.0084,-5.0084,-5.0541,-5.1183,-5.1183,-5.1183,-5.1183,-5.1183,-5.0693,-4.9949,-4.9238,-4.9001,-4.9001,-4.9001,-4.9001,-4.9001,-4.9001,-4.9001,-4.9001,-4.9001,-4.9001,-4.9001,-4.9001,-4.9001,-4.9001,-4.9001,-4.9001,-4.9001,-4.9001,-4.8984,-4.8984,-4.9001,0.0,0.0,0.0,-4.9001,0.0,-4.8184,-4.8112,-4.8112,-4.8112,-4.8095,0.0,0.0,0.0,0.0,0.0,0.0,0.0,-4.3815,-4.3815,0.0,-4.3497,-4.4249,-4.4281,-4.369,-4.391,-4.3738,-4.329,-4.329,-4.329,-4.329,-4.329,-4.329,-4.329,-4.329,-4.3678,-4.4377,-4.5035,-4.5723,-4.6396,-4.7055,-4.7309,-4.7309,-5.6022,-5.6518,-5.6959,-5.7212,-5.7446,-5.7611,-5.7611,-5.7831,-5.7997,-5.7997,-5.7997,-5.7862,-5.7516,-5.7613,-5.7382,0.0,-5.6554,-5.6148,0.0,-5.5122,-5.4926,-5.4512,-5.4287,-5.4149,-5.4149,-5.3408,-5.3028,-5.3028,0.0,0.0,0.0,-4.9267,-4.9725,-5.0982,-5.0832,-5.0817,-5.0915,-5.0759,-5.0619,-5.0507,-5.0507,-5.0642,-5.0862,-5.0862,-5.1014,-5.1185,-5.1185,-5.1185,-5.1185,-5.1185,-5.1048,-5.0727,-4.9982,-4.9407,-4.9001,-4.9001,-4.9001,-4.9001,-4.9001,-4.9001,-4.9001,-4.9001,-4.9001,-4.9001,-4.9001,-4.9001,-4.9001,-4.9001,-4.9001,-4.9001,-4.9001,-4.9001,-4.9001,-4.9001,-4.9001,0.0,-4.9001,0.0,-4.8917,-4.8741,-4.8707,-4.8707,-4.8707,-4.8707,0.0,0.0,0.0,0.0,0.0,0.0,0.0,0.0,-4.4152,0.0,-4.4037,-4.4388,-4.4358,-4.391,-4.3988,-4.3738,-4.329,-4.329,-4.329,-4.329,-4.329,-4.329,-4.329,-4.329,-4.3424,-4.3708,-4.487,-4.5424,-4.5753,-4.689,-4.7309,-4.7309,-5.7262,-5.7666,-5.7997,-5.7997,-5.7997,-5.7997,-5.7997,-5.7997,-5.7997,-5.7997,-5.7997,-5.7997,-5.7997,-5.7997,0.0,-5.7166,-5.7116,-5.6713,-5.5801,-5.5531,-5.5224,-5.4865,-5.462,-5.4512,-5.4512,-5.4046,0.0,-5.3822,-5.2488,-5.167,-5.1395,-5.1395,-5.1696,-5.2188,-5.2066,-5.1912,-5.1788,-5.168,-5.149,-5.1314,-5.1314,-5.1451,-5.1623,-5.1623,-5.1809,-5.208,-5.208,-5.208,-5.208,-5.208,-5.1877,-5.1488,-5.0744,-5.0016,-4.9357,-4.9086,-4.9001,-4.9001,-4.9001,-4.9001,-4.9001,-4.9001,-4.9001,-4.9001,-4.9001,-4.9001,-4.9001,-4.9001,-4.9001,-4.9001,-4.9001,-4.9001,-4.9001,-4.9001,-4.9001,-4.9001,-4.9001,0.0,-4.89,0.0,0.0,0.0,0.0,-4.864,-4.8602,0.0,0.0,0.0,0.0,0.0,0.0,-4.409,-4.4432,-4.4549,-4.4396,-4.4549,-4.4435,-4.4089,-4.3949,-4.3714,-4.3463,-4.3344,-4.329,-4.329,-4.329,-4.329,-4.329,-4.329,-4.329,-4.3424,-4.4781,-4.5289,-4.5454,-4.6815,-4.7309,-4.7309,-5.7997,-5.7997,-5.7997,0.0,-5.7997,0.0,-5.7997,-5.7997,-5.7997,-5.7997,-5.7997,-5.7997,-5.7997,-5.7997,-5.7774,-5.7216,0.0,0.0,0.0,-5.583,-5.5502,-5.5473,-5.4896,-5.4557,-5.4557,-5.4543,-5.4512,-5.4512,-5.3822,-5.3097,-5.2343,-5.2343,-5.2343,-5.2343,-5.2238,-5.2176,-5.2145,-5.2021,-5.1865,-5.1675,-5.1675,-5.1938,-5.2384,-5.2384,-5.2858,-5.3501,-5.3501,-5.3501,-5.3501,-5.3501,-5.301,-5.2249,-5.1471,-5.0727,-5.0016,-4.9238,-4.9001,-4.9001,-4.9001,-4.9001,-4.9001,-4.9001,-4.9001,-4.9001,-4.9001,-4.9001,-4.9001,-4.9001,-4.9001,-4.9001,-4.9001,-4.9001,-4.9001,-4.9001,-4.9001,-4.9001,-4.9001,-4.9001,-4.8778,0.0,0.0,0.0,-4.815,-4.815,-4.8391,0.0,0.0,0.0,0.0,0.0,-4.4087,-4.4594,-4.461,-4.461,-4.461,-4.461,-4.4496,-4.4281,-4.391,-4.3729,-4.369,-4.3423,-4.329,-4.329,-4.329,-4.329,-4.329,-4.329,-4.329,-4.3424,-4.4781,-4.5289,-4.5454,-4.6815,-4.7309,-4.7309,0.0,0.0,-5.7997,-5.7997,-5.7997,-5.7997,-5.7997,-5.7997,-5.7997,-5.7997,-5.7997,-5.7997,-5.7997,-5.7997,-5.7932,-5.7797,-5.7797,-5.754,-5.6964,-5.6765,-5.6528,-5.6111,-5.5502,-5.5194,-5.5194,-5.4728,-5.4512,-5.4512,-5.4339,-5.4149,-5.3977,-5.3977,-5.3977,-5.396,-5.3928,-5.3834,-5.3675,-5.3644,-5.3547,-5.3386,-5.3256,-5.3259,-5.3379,-5.3247,-5.3331,-5.3501,-5.3501,-5.3501,-5.3501,-5.3501,-5.3382,-5.2993,-5.164,-5.1099,-5.0693,-4.939,-4.9001,-4.9001,-4.9001,-4.9001,-4.9001,-4.9001,-4.9001,-4.9001,-4.9001,-4.9001,-4.9001,-4.9001,-4.9001,-4.9001,-4.9001,-4.9001,-4.9001,-4.9001,-4.9001,-4.9001,-4.9001,-4.9001,-4.8934,0.0,-4.8809,-4.8809,-4.8809,-4.8809,-4.864,0.0,0.0,0.0,0.0,-4.5516,-4.4673,-4.4594,-4.461,-4.461,-4.461,-4.461,-4.4496,-4.4281,-4.4065,-4.3832,-4.369,-4.3423,-4.329,-4.329,-4.329,-4.329,-4.329,-4.329,-4.329,-4.3424,-4.4781,-4.5289,-4.5454,-4.6815,-4.7309,-4.7309,-5.7997,-5.7997,-5.7997,-5.7997,-5.7997,-5.7997,-5.7997,-5.7997,-5.7997,-5.7997,-5.7997,-5.7997,-5.7997,-5.7997,-5.7997,-5.7997,-5.7997,-5.7862,-5.7522,-5.7241,-5.6989,-5.666,-5.6138,-5.5687,-5.5402,-5.5091,-5.479,-5.4512,-5.4512,-5.4512,-5.4512,-5.4512,-5.4512,-5.4512,-5.4512,-5.4448,-5.4335,-5.4335,-5.4239,-5.4078,-5.3963,-5.3832,-5.3667,-5.3634,-5.3551,-5.3501,-5.3501,-5.3501,-5.3501,-5.3501,-5.3264,-5.2756,-5.1589,-5.098,-5.0473,-4.934,-4.9001,-4.9001,-4.9001,-4.9001,-4.9001,-4.9001,-4.9001,-4.9001,-4.9001,-4.9001,-4.9001,-4.9001,-4.9001,-4.9001,-4.9001,-4.9001,-4.9001,-4.9001,-4.8775,-4.8673,-4.8951,-4.8775,-4.869,-4.8968,-4.9001,-4.9001,-4.9001,-4.9001,-4.8863,-4.8518,-4.8209,0.0,-4.7417,-4.6716,-4.5939,-4.5126,-4.4799,-4.461,-4.461,-4.461,-4.4549,-4.4435,-4.4243,-4.4026,-4.3847,-4.3581,-4.3423,-4.329,-4.329,-4.329,-4.329,-4.329,-4.329,-4.3424,-4.4781,-4.5289,-4.5454,-4.6815,-4.7309,-4.7309,-5.7997,-5.7997,-5.7997,-5.7997,-5.7997,-5.7997,-5.7997,-5.7997,-5.7997,-5.7997,-5.7997,-5.7997,-5.7997,-5.7997,-5.7997,-5.7997,-5.7997,-5.7997,-5.7997,-5.7522,-5.7259,-5.7259,-5.6713,-5.6193,-5.5658,-5.5589,-5.5224,-5.4652,-5.4652,-5.4589,-5.4512,-5.4512,-5.4512,-5.4512,-5.4512,-5.4512,-5.4512,-5.4512,-5.4399,-5.4239,-5.419,-5.4028,-5.3766,-5.3733,-5.3668,-5.3534,-5.3534,-5.3534,-5.3484,-5.3365,-5.2858,-5.2147,-5.1302,-5.0608,-4.9949,-4.9221,-4.9001,-4.9001,-4.9001,-4.9001,-4.9001,-4.9001,-4.9001,-4.9001,-4.9001,-4.9001,-4.9001,-4.9001,-4.9001,-4.9001,-4.9001,-4.9001,-4.8968,-4.8897,-4.8531,-4.8391,-4.8795,0.0,-4.8429,-4.8934,-4.9001,-4.9001,-4.9001,-4.9001,-4.9001,-4.9001,-4.9001,-4.8736,-4.8096,-4.795,-4.7339,-4.6076,-4.5216,-4.4723,-4.461,-4.461,-4.461,-4.461,-4.4396,-4.4205,-4.4026,-4.3808,-4.3596,-4.3384,-4.3329,-4.329,-4.329,-4.329,-4.3349,-4.3559,-4.4825,-4.5364,-4.5603,-4.6845,-4.7309,-4.7309,-5.7997,-5.7997,-5.7997,-5.7997,-5.7997,-5.7997,-5.7997,-5.7997,-5.7997,-5.7997,-5.7997,-5.7997,-5.7997,-5.7997,-5.7997,-5.7997,-5.7997,-5.7997,-5.7997,-5.7909,-5.7862,-5.7862,-5.7284,-5.692,-5.6843,-5.6394,-5.5858,-5.5254,-5.5254,-5.5,-5.4512,-5.4512,-5.4512,-5.4512,-5.4512,-5.4512,-5.4512,-5.4512,-5.448,-5.4448,-5.4271,-5.4175,-5.4093,-5.4013,-5.3849,-5.3684,-5.3684,-5.3618,-5.3399,-5.2723,-5.2401,-5.2063,-5.0693,-5.0185,-4.9949,-4.9221,-4.9001,-4.9001,-4.9001,-4.9001,-4.9001,-4.9001,-4.9001,-4.9001,-4.9001,-4.9001,-4.9001,-4.9001,-4.9001,-4.9001,-4.9001,-4.9001,-4.8829,-4.8324,-4.8585,-4.8724,-4.829,0.0,-4.8914,-4.8984,-4.9001,-4.9001,-4.9001,-4.9001,-4.9001,-4.9001,-4.9001,-4.894,-4.8829,-4.8242,-4.7787,-4.7572,-4.6253,-4.5237,-4.461,-4.461,-4.461,-4.461,-4.4396,-4.4281,-4.4243,-4.3871,-4.369,-4.3636,-4.3384,-4.329,-4.329,-4.329,-4.3618,-4.4242,-4.5005,-4.5648,-4.6262,-4.7025,-4.7309,-4.7309,-5.7997,-5.7997,-5.7997,-5.7997,-5.7997,-5.7997,-5.7997,-5.7997,-5.7997,-5.7997,-5.7997,-5.7997,-5.7997,-5.7997,-5.7997,-5.7997,-5.7997,-5.7997,-5.7997,-5.7997,-5.7997,-5.7997,-5.775,-5.7431,-5.7116,-5.6554,-5.6166,-5.5887,-5.5887,-5.5589,-5.497,-5.497,-5.4821,-5.4512,-5.4512,-5.4512,-5.4512,-5.4512,-5.4512,-5.4512,-5.4399,-5.4303,-5.419,-5.4143,-5.4013,-5.3849,-5.375,-5.3396,-5.2924,-5.2468,-5.1775,-5.0997,-5.0304,-4.9813,-4.9441,-4.9103,-4.9001,-4.9001,-4.9001,-4.9001,-4.9001,-4.9001,-4.9001,-4.9001,-4.9001,-4.9001,-4.9001,-4.9001,-4.9001,-4.9001,-4.9001,-4.9001,-4.8931,-4.8636,-4.8534,0.0,-4.8585,-4.8534,-4.8653,-4.8951,-4.9001,-4.9001,-4.9001,-4.9001,-4.9001,-4.9001,-4.9001,-4.9001,-4.9001,-4.8688,-4.8306,-4.7917,-4.6483,-4.5531,-4.5216,-4.4783,-4.461,-4.461,-4.4511,-4.4396,-4.4281,-4.3988,-4.3793,-4.369,-4.3423,-4.329,-4.329,-4.329,-4.3678,-4.4377,-4.5035,-4.5723,-4.6396,-4.7055,-4.7309,-4.7309,-5.7997,-5.7997,-5.7997,-5.7997,-5.7997,-5.7997,-5.7997,-5.7997,-5.7997,-5.7997,-5.7997,-5.7997,-5.7997,-5.7997,-5.7997,-5.7997,-5.7997,-5.7997,-5.7997,-5.7997,-5.7997,-5.7997,-5.7997,-5.7774,-5.7333,-5.6912,-5.6625,-5.6492,-5.6492,-5.6193,-5.5618,-5.5618,-5.5355,-5.4926,-5.4759,-5.4697,-5.4697,-5.4557,-5.4512,-5.4512,-5.4512,-5.4399,-5.4271,-5.4271,-5.4143,-5.3963,-5.3629,-5.3088,-5.2447,-5.1943,-5.1031,-5.005,-4.9898,-4.9458,-4.9001,-4.9001,-4.9001,-4.9001,-4.9001,-4.9001,-4.9001,-4.9001,-4.9001,-4.9001,-4.9001,-4.9001,-4.9001,-4.9001,-4.9001,-4.9001,-4.9001,-4.9001,-4.8951,-4.8795,0.0,-4.8412,-4.8758,-4.8531,-4.848,-4.8934,-4.9001,-4.9001,-4.9001,-4.9001,-4.9001,-4.9001,-4.9001,-4.9001,-4.9001,-4.9001,-4.8719,-4.8161,-4.6726,-4.5877,-4.5697,-4.5142,-4.4746,-4.461,-4.461,-4.4511,-4.4358,-4.4166,-4.3949,-4.3769,-4.3503,-4.3384,-4.329,-4.329,-4.3768,-4.4586,-4.5095,-4.5798,-4.6563,-4.7115,-4.7309,-4.7309,-5.7997,-5.7997,-5.7997,-5.7997,-5.7997,-5.7997,-5.7997,-5.7997,-5.7997,-5.7997,-5.7997,-5.7997,-5.7997,-5.7997,-5.7997,-5.7997,-5.7997,-5.7997,-5.7997,-5.7997,-5.7997,-5.7997,-5.7997,-5.7973,-5.7932,-5.7886,-5.7613,-5.704,-5.704,-5.6765,-5.6221,-5.6221,-5.6221,-5.6138,-5.5589,-5.5343,-5.5313,-5.4728,-5.4512,-5.4512,-5.4512,-5.4512,-5.448,-5.448,-5.4289,-5.3895,-5.3212,-5.2679,-5.2097,-5.071,-5.0185,-4.9965,-4.9306,-4.9035,-4.9001,-4.9001,-4.9001,-4.9001,-4.9001,-4.9001,-4.9001,-4.9001,-4.9001,-4.9001,-4.9001,-4.9001,-4.9001,-4.9001,-4.9001,-4.9001,-4.9001,-4.9001,-4.8812,-4.8269,0.0,0.0,-4.8252,-4.8619,-4.8934,-4.8984,-4.9001,-4.9001,-4.9001,-4.9001,-4.9001,-4.9001,-4.9001,-4.9001,-4.9001,-4.9001,-4.897,-4.894,-4.7489,-4.6394,-4.5697,-4.566,-4.529,-4.461,-4.461,-4.4572,-4.4572,-4.4358,-4.4181,-4.3988,-4.3754,-4.3518,-4.329,-4.329,-4.4077,-4.5229,-4.5274,-4.6082,-4.7234,-4.7294,-4.7309,-4.7309,-5.7997,-5.7997,-5.7997,-5.7997,-5.7997,-5.7997,-5.7997,-5.7997,-5.7997,-5.7997,-5.7997,-5.7997,-5.7997,-5.7997,-5.7997,-5.7997,-5.7997,-5.7997,-5.7997,-5.7997,-5.7997,-5.7997,-5.7997,-5.7997,-5.7997,-5.7997,-5.7886,-5.766,-5.766,-5.7358,-5.6809,-5.6809,-5.6607,-5.6276,-5.5676,-5.5385,-5.5373,-5.4759,-5.4512,-5.4512,-5.4512,-5.4512,-5.4512,-5.4512,-5.4124,-5.3582,-5.3163,-5.2269,-5.1162,-5.0493,-4.9907,-4.9373,-4.9086,-4.9001,-4.9001,-4.9001,-4.9001,-4.9001,-4.9001,-4.9001,-4.9001,-4.9001,-4.9001,-4.9001,-4.9001,-4.9001,-4.9001,-4.9001,-4.9001,-4.9001,-4.9001,-4.9001,-4.8917,-4.869,0.0,-4.89,-4.869,-4.8863,-4.9001,-4.9001,-4.9001,-4.9001,-4.9001,-4.9001,-4.9001,-4.9001,-4.9001,-4.9001,-4.9001,-4.9001,-4.9001,-4.9001,-4.8467,-4.7803,-4.7069,-4.6588,-4.6253,-4.5985,-4.5494,-4.5274,-4.5237,-4.4594,-4.4243,-4.4181,-4.3832,-4.3636,-4.3557,-4.3384,-4.4107,-4.5289,-4.5289,-4.6127,-4.7309,-4.7309,-4.7309,-4.7309,-5.7997,-5.7997,-5.7997,-5.7997,-5.7997,-5.7997,-5.7997,-5.7997,-5.7997,-5.7997,-5.7997,-5.7997,-5.7997,-5.7997,-5.7997,-5.7997,-5.7997,-5.7997,-5.7997,-5.7997,-5.7997,-5.7997,-5.7997,-5.7997,-5.7997,-5.7997,-5.7997,-5.7997,-5.7997,-5.7797,-5.7382,-5.7382,-5.7184,-5.6809,-5.6203,-5.5925,-5.5869,-5.5104,-5.479,-5.4759,-5.4589,-5.4512,-5.4477,-5.4253,-5.3808,-5.3229,-5.2637,-5.1624,-5.0564,-5.0237,-4.9641,-4.9063,-4.9063,-4.9032,-4.9001,-4.9001,-4.9001,-4.9001,-4.9001,-4.9001,-4.9001,-4.9001,-4.9001,-4.9001,-4.9001,-4.9001,-4.9001,-4.9001,-4.9001,-4.9001,-4.9001,-4.9001,-4.9001,-4.9001,-4.9001,-4.9001,-4.9001,-4.9001,-4.9001,-4.9001,-4.9001,-4.9001,-4.9001,-4.9001,-4.9001,-4.9001,-4.9001,-4.9001,-4.9001,-4.9001,-4.9001,-4.9001,-4.9001,-4.8767,-4.8242,-4.7522,-4.7017,-4.6777,-4.6288,-4.5897,-4.566,-4.503,-4.4572,-4.4281,-4.4026,-4.3832,-4.369,-4.3518,-4.4163,-4.5289,-4.5289,-4.6127,-4.7309,-4.7309,-4.7309,-4.7309,-5.7997,-5.7997,-5.7997,-5.7997,-5.7997,-5.7997,-5.7997,-5.7997,-5.7997,-5.7997,-5.7997,-5.7997,-5.7997,-5.7997,-5.7997,-5.7997,-5.7997,-5.7997,-5.7997,-5.7997,-5.7997,-5.7997,-5.7997,-5.7997,-5.7997,-5.7997,-5.7997,-5.7997,-5.7997,-5.7997,-5.7997,-5.7997,-5.7997,-5.7973,-5.7358,-5.7116,-5.704,-5.5869,-5.5414,-5.5355,-5.4759,-5.4512,-5.4408,-5.3684,-5.3263,-5.2915,-5.1438,-5.0784,-5.0465,-4.9744,-4.935,-4.9199,-4.9199,-4.9107,-4.9001,-4.9001,-4.9001,-4.9001,-4.9001,-4.9001,-4.9001,-4.9001,-4.9001,-4.9001,-4.9001,-4.9001,-4.9001,-4.9001,-4.9001,-4.9001,-4.9001,-4.9001,-4.9001,-4.9001,-4.9001,-4.9001,-4.9001,-4.9001,-4.9001,-4.9001,-4.9001,-4.9001,-4.9001,-4.9001,-4.9001,-4.9001,-4.9001,-4.9001,-4.9001,-4.9001,-4.9001,-4.9001,-4.9001,-4.9001,-4.9001,-4.8274,-4.7556,-4.6811,-4.6811,-4.6429,-4.5733,-4.5697,-4.52,-4.432,-4.432,-4.4104,-4.3729,-4.3729,-4.4339,-4.5289,-4.5289,-4.6112,-4.7309,-4.7309,-4.7309,-4.7309,-5.7997,-5.7997,-5.7997,-5.7997,-5.7997,-5.7997,-5.7997,-5.7997,-5.7997,-5.7997,-5.7997,-5.7997,-5.7997,-5.7997,-5.7997,-5.7997,-5.7997,-5.7997,-5.7997,-5.7997,-5.7997,-5.7997,-5.7997,-5.7997,-5.7997,-5.7997,-5.7997,-5.7997,-5.7997,-5.7997,-5.7997,-5.7997,-5.7997,-5.7973,-5.7358,-5.7116,-5.7047,-5.6357,-5.6027,-5.6027,-5.583,-5.5426,-5.4847,-5.4198,-5.3242,-5.2149,-5.1341,-5.0574,-4.9928,-4.9705,-4.953,-4.9411,-4.9411,-4.9381,-4.9367,-4.9367,-4.9246,-4.9138,-4.9138,-4.9063,-4.9001,-4.9001,-4.9001,-4.9001,-4.9001,-4.9001,-4.9001,-4.9001,-4.9001,-4.9001,-4.9001,-4.9001,-4.9001,-4.9001,-4.9001,-4.9001,-4.9001,-4.9001,-4.9001,-4.9001,-4.9001,-4.9001,-4.9001,-4.9001,-4.9001,-4.9001,-4.9001,-4.9001,-4.9001,-4.9001,-4.9001,-4.9001,-4.9001,-4.9001,-4.9001,-4.8798,-4.8562,-4.8354,-4.7836,-4.7439,-4.7238,-4.6708,-4.6324,-4.604,-4.5897,-4.5463,-4.4865,-4.4752,-4.5108,-4.5757,-4.5578,-4.6323,-4.751,-4.7337,-4.7309,-4.7309,-5.7997,-5.7997,-5.7997,-5.7997,-5.7997,-5.7997,-5.7997,-5.7997,-5.7997,-5.7997,-5.7997,-5.7997,-5.7997,-5.7997,-5.7997,-5.7997,-5.7997,-5.7997,-5.7997,-5.7997,-5.7997,-5.7997,-5.7997,-5.7997,-5.7997,-5.7997,-5.7997,-5.7997,-5.7997,-5.7997,-5.7997,-5.7997,-5.7997,-5.7973,-5.7613,-5.7449,-5.7425,-5.6861,-5.6625,-5.6563,-5.6027,-5.5526,-5.4991,-5.3999,-5.3048,-5.2147,-5.151,-5.0941,-5.0429,-5.0194,-4.9895,-4.956,-4.9518,-4.9518,-4.9518,-4.9518,-4.935,-4.9199,-4.9199,-4.9077,-4.9001,-4.9001,-4.9001,-4.9001,-4.9001,-4.9001,-4.9001,-4.9001,-4.9001,-4.9001,-4.9001,-4.9001,-4.9001,-4.9001,-4.9001,-4.9001,-4.9001,-4.9001,-4.9001,-4.9001,-4.9001,-4.9001,-4.9001,-4.9001,-4.9001,-4.9001,-4.9001,-4.9001,-4.9001,-4.9001,-4.9001,-4.9001,-4.9001,-4.9001,-4.9001,-4.9001,-4.9001,-4.9001,-4.8545,-4.8161,-4.7885,-4.7456,-4.7085,-4.6777,-4.6673,-4.6308,-4.5825,-4.5701,-4.6169,-4.6881,-4.6732,-4.7317,-4.8229,-4.8103,-4.7779,-4.7424,-5.7997,-5.7997,-5.7997,-5.7997,-5.7997,-5.7997,-5.7997,-5.7997,-5.7997,-5.7997,-5.7997,-5.7997,-5.7997,-5.7997,-5.7997,-5.7997,-5.7997,-5.7997,-5.7997,-5.7997,-5.7997,-5.7997,-5.7997,-5.7997,-5.7997,-5.7997,-5.7997,-5.7997,-5.7997,-5.7997,-5.7997,-5.7997,-5.7997,-5.7997,-5.7997,-5.7997,-5.7955,-5.7407,-5.7191,-5.7069,-5.5728,-5.516,-5.4981,-5.3383,-5.2733,-5.259,-5.1869,-5.1601,-5.1543,-5.1044,-5.0391,-4.9796,-4.9649,-4.956,-4.9547,-4.9547,-4.9381,-4.9229,-4.9229,-4.9124,-4.9001,-4.9001,-4.9001,-4.9001,-4.9001,-4.9001,-4.9001,-4.9001,-4.9001,-4.9001,-4.9001,-4.9001,-4.9001,-4.9001,-4.9001,-4.9001,-4.9001,-4.9001,-4.9001,-4.9001,-4.9001,-4.9001,-4.9001,-4.9001,-4.9001,-4.9001,-4.9001,-4.9001,-4.9001,-4.9001,-4.9001,-4.9001,-4.9001,-4.9001,-4.9001,-4.9001,-4.9001,-4.9001,-4.9001,-4.8656,-4.7999,-4.7999,-4.7622,-4.6983,-4.6983,-4.6846,-4.6622,-4.6622,-4.7268,-4.8248,-4.8227,-4.8573,-4.9132,-4.9091,-4.8464,-4.7624,-5.7997,-5.7997,-5.7997,-5.7997,-5.7997,-5.7997,-5.7997,-5.7997,-5.7997,-5.7997,-5.7997,-5.7997,-5.7997,-5.7997,-5.7997,-5.7997,-5.7997,-5.7997,-5.7997,-5.7997,-5.7997,-5.7997,-5.7997,-5.7997,-5.7997,-5.7997,-5.7997,-5.7997,-5.7997,-5.7997,-5.7997,-5.7997,-5.7997,-5.7997,-5.7997,-5.7997,-5.7997,-5.7862,-5.7797,-5.7724,-5.6802,-5.6043,-5.534,-5.3947,-5.3021,-5.239,-5.1822,-5.1601,-5.1576,-5.1467,-5.1052,-5.0557,-5.053,-5.0228,-4.9906,-4.9906,-4.9666,-4.9411,-4.9411,-4.9216,-4.9001,-4.9001,-4.9001,-4.9001,-4.9001,-4.9001,-4.9001,-4.9001,-4.9001,-4.9001,-4.9001,-4.9001,-4.9001,-4.9001,-4.9001,-4.9001,-4.9001,-4.9001,-4.9001,-4.9001,-4.9001,-4.9001,-4.9001,-4.9001,-4.9001,-4.9001,-4.9001,-4.9001,-4.9001,-4.9001,-4.9001,-4.9001,-4.9001,-4.9001,-4.9001,-4.9001,-4.9001,-4.9001,-4.9001,-4.894,-4.8767,-4.8767,-4.8656,-4.853,-4.853,-4.8177,-4.7622,-4.7622,-4.7691,-4.7826,-4.7675,-4.7957,-4.848,-4.8313,-4.8118,-4.788,-5.8301,-5.8119,-5.7997,-5.7997,-5.7997,-5.7997,-5.7997,-5.7997,-5.7997,-5.7997,-5.7997,-5.7997,-5.7997,-5.7997,-5.7997,-5.7997,-5.7997,-5.7997,-5.7997,-5.7997,-5.7997,-5.7997,-5.7997,-5.7997,-5.7997,-5.7997,-5.7997,-5.7997,-5.7997,-5.7997,-5.7997,-5.7997,-5.7997,-5.7997,-5.7997,-5.7997,-5.7997,-5.7997,-5.7776,-5.7354,-5.6547,-5.5739,-5.491,-5.3825,-5.3148,-5.2739,-5.2454,-5.2203,-5.1988,-5.1988,-5.1644,-5.1184,-5.1184,-5.0991,-5.0712,-5.0453,-5.0183,-4.9919,-4.9661,-4.935,-4.9094,-4.9094,-4.9063,-4.9001,-4.9001,-4.9001,-4.9001,-4.9001,-4.9001,-4.9001,-4.9001,-4.9001,-4.9001,-4.9001,-4.9001,-4.9001,-4.9001,-4.9001,-4.9001,-4.9001,-4.9001,-4.9001,-4.9001,-4.9001,-4.9001,-4.9001,-4.9001,-4.9001,-4.9001,-4.9001,-4.9001,-4.9001,-4.9001,-4.9001,-4.9001,-4.9001,-4.9001,-4.9001,-4.9001,-4.9001,-4.9001,-4.9001,-4.9001,-4.9001,-4.9001,-4.8798,-4.8435,-4.8802,-4.9128,-4.9377,-4.9632,-4.9695,-4.9599,-4.9519,-4.8903,-4.8133,-5.8521,-5.8213,-5.7997,-5.7997,-5.7997,-5.7997,-5.7997,-5.7997,-5.7997,-5.7997,-5.7997,-5.7997,-5.7997,-5.7997,-5.7997,-5.7997,-5.7997,-5.7997,-5.7997,-5.7997,-5.7997,-5.7997,-5.7997,-5.7997,-5.7997,-5.7997,-5.7997,-5.7997,-5.7997,-5.7997,-5.7997,-5.7997,-5.7997,-5.7997,-5.7997,-5.7997,-5.7997,-5.785,-5.7409,-5.673,-5.5776,-5.4987,-5.4308,-5.3518,-5.3185,-5.3185,-5.3185,-5.2912,-5.254,-5.254,-5.2179,-5.1743,-5.1743,-5.1676,-5.15,-5.1052,-5.0777,-5.0515,-4.9976,-4.9632,-4.9364,-4.9273,-4.9185,-4.9063,-4.9032,-4.9001,-4.9001,-4.9001,-4.9001,-4.9001,-4.9001,-4.9001,-4.9001,-4.9001,-4.9001,-4.9001,-4.9001,-4.9001,-4.9001,-4.9001,-4.9001,-4.9001,-4.9001,-4.9001,-4.9001,-4.9001,-4.9001,-4.9001,-4.9001,-4.9001,-4.9001,-4.9001,-4.9001,-4.9001,-4.9001,-4.9001,-4.9001,-4.9001,-4.9001,-4.9001,-4.9001,-4.9001,-4.9001,-4.9001,-4.9001,-4.9001,-4.9069,-4.9796,-5.046,-5.1073,-5.1798,-5.17,-5.1107,-5.1107,-5.0033,-4.8521,-5.8142,-5.8042,-5.7997,-5.7997,-5.7997,-5.7997,-5.7997,-5.7997,-5.7997,-5.7997,-5.7997,-5.7997,-5.7997,-5.7997,-5.7997,-5.7997,-5.7997,-5.7997,-5.7997,-5.7997,-5.7997,-5.7997,-5.7997,-5.7997,-5.7997,-5.7997,-5.7997,-5.7997,-5.7997,-5.7997,-5.7997,-5.7997,-5.7997,-5.7997,-5.7997,-5.7997,-5.7941,-5.7262,-5.6914,-5.6675,-5.517,-5.4491,-5.4308,-5.3518,-5.3185,-5.3185,-5.3185,-5.3164,-5.3082,-5.3082,-5.2739,-5.2291,-5.2291,-5.1988,-5.1594,-5.15,-5.1363,-5.1078,-5.0542,-5.0265,-5.0028,-4.959,-4.9458,-4.9398,-4.9199,-4.9077,-4.9001,-4.9001,-4.9001,-4.9001,-4.9001,-4.9001,-4.9001,-4.9001,-4.9001,-4.9001,-4.9001,-4.9001,-4.9001,-4.9001,-4.9001,-4.9001,-4.9001,-4.9001,-4.9001,-4.9001,-4.9001,-4.9001,-4.9001,-4.9001,-4.9001,-4.9001,-4.9001,-4.9001,-4.9001,-4.9001,-4.9001,-4.9001,-4.9001,-4.9001,-4.9001,-4.9001,-4.9001,-4.9001,-4.9001,-4.9001,-4.9069,-4.9796,-5.0104,-5.0256,-5.097,-5.1188,-5.1107,-5.1107,-5.0499,-4.963,-5.8708,-5.8301,-5.7997,-5.7997,-5.7997,-5.7997,-5.7997,-5.7997,-5.7997,-5.7997,-5.7997,-5.7997,-5.7997,-5.7997,-5.7997,-5.7997,-5.7997,-5.7997,-5.7997,-5.7997,-5.7997,-5.7997,-5.7997,-5.7997,-5.7997,-5.7997,-5.7997,-5.7997,-5.7997,-5.7997,-5.7997,-5.7997,-5.7997,-5.7997,-5.7997,-5.7758,-5.7317,-5.695,-5.629,-5.5409,-5.4693,-5.4124,-5.3702,-5.3332,-5.3185,-5.3185,-5.3185,-5.3185,-5.3185,-5.3185,-5.3039,-5.2846,-5.2846,-5.2676,-5.2431,-5.2132,-5.1994,-5.1788,-5.126,-5.076,-5.0349,-5.0131,-4.9762,-4.9488,-4.9398,-4.932,-4.9216,-4.9032,-4.9001,-4.9001,-4.9001,-4.9001,-4.9001,-4.9001,-4.9001,-4.9001,-4.9001,-4.9001,-4.9001,-4.9001,-4.9001,-4.9001,-4.9001,-4.9001,-4.9001,-4.9001,-4.9001,-4.9001,-4.9001,-4.9001,-4.9001,-4.9001,-4.9001,-4.9001,-4.9001,-4.9001,-4.9001,-4.9001,-4.9001,-4.9001,-4.9001,-4.9001,-4.9001,-4.9001,-4.9001,-4.9001,-4.9086,-5.0253,-5.0702,-5.0793,-5.1966,-5.2186,-5.1733,-5.1273,-5.0881,-5.0538]},{"header":{"parameterUnit":"m.s-1","parameterCategory":1,"la1":30.6,"la2":28.766,"lo1":-90.7593,"lo2":-88.6598,"dy":0.0162,"dx":0.0183,"nx":116,"ny":114,"refTime":"2023-07-04T18:00:00:Z","depth":0,"parameterNumber":3,"parameterNumberName":"V-component_of_WINDS"},"data":[0.0,0.0,0.0,0.0,0.0,0.0,0.0,0.0,0.0,0.0,0.0,0.0,0.0,0.0,0.0,0.0,0.0,0.0,0.0,0.0,0.0,0.0,0.0,0.0,0.0,0.0,0.0,0.0,0.0,0.0,0.0,0.0,0.0,0.0,0.0,0.0,0.0,0.0,0.0,0.0,0.0,0.0,0.0,0.0,0.0,0.0,0.0,0.0,0.0,0.0,0.0,0.0,0.0,0.0,0.0,0.0,0.0,0.0,0.0,0.0,0.0,0.0,0.0,0.0,0.0,0.0,0.0,0.0,0.0,0.0,0.0,0.0,0.0,0.0,0.0,0.0,0.0,0.0,0.0,0.0,0.0,0.0,0.0,0.0,0.0,0.0,0.0,0.0,0.0,0.0,0.0,0.0,0.0,0.0,0.0,0.0,0.0,0.0,0.0,0.0,0.0,0.0,0.0,0.0,0.0,0.0,0.0,0.0,0.0,0.0,0.0,0.0,0.0,0.0,0.0,0.0,0.0,0.0,0.0,0.0,0.0,0.0,0.0,0.0,0.0,0.0,0.0,0.0,0.0,0.0,0.0,0.0,0.0,0.0,0.0,0.0,0.0,0.0,0.0,0.0,0.0,0.0,0.0,0.0,0.0,0.0,0.0,0.0,0.0,0.0,0.0,0.0,0.0,0.0,0.0,0.0,0.0,0.0,0.0,0.0,0.0,0.0,0.0,0.0,0.0,0.0,0.0,0.0,0.0,0.0,0.0,0.0,0.0,0.0,0.0,0.0,0.0,0.0,0.0,0.0,0.0,0.0,0.0,0.0,0.0,0.0,0.0,0.0,0.0,0.0,0.0,0.0,0.0,0.0,0.0,0.0,0.0,0.0,0.0,0.0,0.0,0.0,0.0,0.0,0.0,0.0,0.0,0.0,0.0,0.0,0.0,0.0,0.0,0.0,0.0,0.0,0.0,0.0,0.0,0.0,0.0,0.0,0.0,0.0,0.0,0.0,0.0,0.0,0.0,0.0,0.0,0.0,0.0,0.0,0.0,0.0,0.0,0.0,0.0,0.0,0.0,0.0,0.0,0.0,0.0,0.0,0.0,0.0,0.0,0.0,0.0,0.0,0.0,0.0,0.0,0.0,0.0,0.0,0.0,0.0,0.0,0.0,0.0,0.0,0.0,0.0,0.0,0.0,0.0,0.0,0.0,0.0,0.0,0.0,0.0,0.0,0.0,0.0,0.0,0.0,0.0,0.0,0.0,0.0,0.0,0.0,0.0,0.0,0.0,0.0,0.0,0.0,0.0,0.0,0.0,0.0,0.0,0.0,0.0,0.0,0.0,0.0,0.0,0.0,0.0,0.0,0.0,0.0,0.0,0.0,0.0,0.0,0.0,0.0,0.0,0.0,0.0,0.0,0.0,0.0,0.0,0.0,0.0,0.0,0.0,0.0,0.0,0.0,0.0,0.0,0.0,0.0,0.0,0.0,0.0,0.0,0.0,0.0,0.0,0.0,0.0,0.0,0.0,0.0,0.0,0.0,0.0,0.0,0.0,0.0,0.0,0.0,0.0,0.0,0.0,0.0,0.0,0.0,0.0,0.0,0.0,0.0,0.0,0.0,0.0,0.0,0.0,0.0,0.0,0.0,0.0,0.0,0.0,0.0,0.0,0.0,0.0,0.0,0.0,0.0,0.0,0.0,0.0,0.0,0.0,0.0,0.0,0.0,0.0,0.0,0.0,0.0,0.0,0.0,0.0,0.0,0.0,0.0,0.0,0.0,0.0,0.0,0.0,0.0,0.0,0.0,0.0,0.0,0.0,0.0,0.0,0.0,0.0,0.0,0.0,0.0,0.0,0.0,0.0,0.0,0.0,0.0,0.0,0.0,0.0,0.0,0.0,0.0,0.0,0.0,0.0,0.0,0.0,0.0,0.0,0.0,0.0,0.0,0.0,0.0,0.0,0.0,0.0,0.0,0.0,0.0,0.0,0.0,0.0,0.0,0.0,0.0,0.0,0.0,0.0,0.0,0.0,0.0,0.0,0.0,0.0,0.0,0.0,0.0,0.0,0.0,0.0,0.0,0.0,0.0,0.0,0.0,0.0,0.0,0.0,0.0,0.0,0.0,0.0,0.0,0.0,0.0,0.0,0.0,0.0,0.0,0.0,0.0,0.0,0.0,0.0,0.0,0.0,0.0,0.0,0.0,0.0,0.0,0.0,0.0,0.0,0.0,0.0,0.0,0.0,0.0,0.0,0.0,0.0,0.0,0.0,0.0,0.0,0.0,0.0,0.0,0.0,0.0,0.0,0.0,0.0,0.0,0.0,0.0,0.0,0.0,0.0,0.0,0.0,0.0,0.0,0.0,0.0,0.0,0.0,0.0,0.0,0.0,0.0,0.0,0.0,0.0,0.0,0.0,0.0,0.0,0.0,0.0,0.0,0.0,0.0,0.0,0.0,0.0,0.0,0.0,0.0,0.0,0.0,0.0,0.0,0.0,0.0,0.0,0.0,0.0,0.0,0.0,0.0,0.0,0.0,0.0,0.0,0.0,0.0,0.0,0.0,0.0,0.0,0.0,0.0,0.0,0.0,0.0,0.0,0.0,0.0,0.0,0.0,0.0,0.0,0.0,0.0,0.0,0.0,0.0,0.0,0.0,0.0,0.0,0.0,0.0,0.0,0.0,0.0,0.0,0.0,0.0,0.0,0.0,0.0,0.0,0.0,0.0,0.0,0.0,0.0,0.0,0.0,0.0,0.0,0.0,0.0,0.0,0.0,0.0,0.0,0.0,0.0,0.0,0.0,0.0,0.0,0.0,0.0,0.0,0.0,0.0,0.0,0.0,0.0,0.0,0.0,0.0,0.0,0.0,0.0,0.0,0.0,0.0,0.0,0.0,0.0,0.0,0.0,0.0,0.0,0.0,0.0,0.0,0.0,0.0,0.0,0.0,0.0,0.0,0.0,0.0,0.0,0.0,0.0,0.0,0.0,0.0,0.0,0.0,0.0,0.0,0.0,0.0,0.0,0.0,0.0,0.0,0.0,0.0,0.0,0.0,0.0,0.0,0.0,0.0,0.0,0.0,0.0,0.0,0.0,0.0,0.0,0.0,0.0,0.0,0.0,0.0,0.0,0.0,0.0,0.0,0.0,0.0,0.0,0.0,0.0,0.0,0.0,0.0,0.0,0.0,0.0,0.0,0.0,0.0,0.0,0.0,0.0,0.0,0.0,0.0,0.0,0.0,0.0,0.0,0.0,0.0,0.0,0.0,0.0,0.0,0.0,0.0,0.0,0.0,0.0,0.0,0.0,0.0,0.0,0.0,0.0,0.0,0.0,0.0,0.0,0.0,0.0,0.0,0.0,0.0,0.0,0.0,0.0,0.0,0.0,0.0,0.0,0.0,0.0,0.0,0.0,0.0,0.0,0.0,0.0,0.0,0.0,0.0,0.0,0.0,0.0,0.0,0.0,0.0,0.0,0.0,0.0,0.0,0.0,0.0,0.0,0.0,0.0,0.0,0.0,0.0,0.0,0.0,0.0,0.0,0.0,0.0,0.0,0.0,0.0,0.0,0.0,0.0,0.0,0.0,0.0,0.0,0.0,0.0,0.0,0.0,0.0,0.0,0.0,0.0,0.0,0.0,0.0,0.0,0.0,0.0,0.0,0.0,0.0,0.0,0.0,0.0,0.0,0.0,0.0,0.0,0.0,0.0,0.0,0.0,0.0,0.0,0.0,0.0,0.0,0.0,0.0,0.0,0.0,0.0,0.0,0.0,0.0,0.0,0.0,0.0,0.0,0.0,0.0,0.0,0.0,0.0,0.0,0.0,0.0,0.0,0.0,0.0,0.0,0.0,0.0,0.0,0.0,0.0,0.0,0.0,0.0,0.0,0.0,0.0,0.0,0.0,0.0,0.0,0.0,0.0,0.0,0.0,0.0,0.0,0.0,0.0,0.0,0.0,0.0,0.0,0.0,0.0,0.0,0.0,0.0,0.0,0.0,0.0,0.0,0.0,0.0,0.0,0.0,0.0,0.0,0.0,0.0,0.0,0.0,0.0,0.0,0.0,0.0,0.0,0.0,0.0,0.0,0.0,0.0,0.0,0.0,0.0,0.0,0.0,0.0,0.0,0.0,0.0,0.0,0.0,0.0,0.0,0.0,0.0,0.0,0.0,0.0,0.0,0.0,0.0,0.0,0.0,0.0,0.0,0.0,0.0,0.0,0.0,0.0,0.0,0.0,0.0,0.0,0.0,0.0,0.0,0.0,0.0,0.0,0.0,0.0,0.0,0.0,0.0,0.0,0.0,0.0,0.0,0.0,0.0,0.0,0.0,0.0,0.0,0.0,0.0,0.0,0.0,0.0,0.0,0.0,0.0,0.0,0.0,0.0,0.0,0.0,0.0,0.0,0.0,0.0,0.0,0.0,0.0,0.0,0.0,0.0,0.0,0.0,0.0,0.0,0.0,0.0,0.0,0.0,0.0,0.0,0.0,0.0,0.0,0.0,0.0,0.0,0.0,0.0,0.0,0.0,0.0,0.0,0.0,0.0,0.0,0.0,0.0,0.0,0.0,0.0,0.0,0.0,0.0,0.0,0.0,0.0,0.0,0.0,0.0,0.0,0.0,0.0,0.0,0.0,0.0,0.0,0.0,0.0,0.0,0.0,0.0,0.0,0.0,0.0,0.0,0.0,0.0,0.0,0.0,0.0,0.0,0.0,0.0,0.0,0.0,0.0,0.0,0.0,0.0,0.0,0.0,0.0,0.0,0.0,0.0,0.0,0.0,0.0,0.0,0.0,0.0,0.0,0.0,0.0,0.0,0.0,0.0,0.0,0.0,0.0,0.0,0.0,0.0,0.0,0.0,0.0,0.0,0.0,0.0,0.0,0.0,0.0,0.0,0.0,0.0,0.0,0.0,0.0,0.0,0.0,0.0,0.0,0.0,0.0,0.0,0.0,0.0,0.0,0.0,0.0,0.0,0.0,0.0,0.0,0.0,0.0,0.0,0.0,0.0,0.0,0.0,0.0,0.0,0.0,0.0,0.0,0.0,0.0,0.0,0.0,0.0,0.0,0.0,0.0,0.0,0.0,0.0,0.0,0.0,0.0,0.0,0.0,0.0,0.0,0.0,0.0,0.0,0.0,0.0,0.0,0.0,0.0,0.0,0.0,0.0,0.0,0.0,0.0,0.0,0.0,0.0,0.0,0.0,0.0,0.0,0.0,0.0,0.0,0.0,0.0,0.0,0.0,0.0,0.0,0.0,0.0,0.0,0.0,0.0,0.0,0.0,0.0,0.0,0.0,0.0,0.0,0.0,0.0,0.0,0.0,0.0,0.0,0.0,0.0,0.0,0.0,0.0,0.0,0.0,0.0,0.0,0.0,0.0,0.0,0.0,0.0,0.0,0.0,0.0,0.0,0.0,0.0,0.0,0.0,0.0,0.0,0.0,0.0,0.0,0.0,0.0,0.0,0.0,0.0,0.0,0.0,0.0,0.0,0.0,0.0,0.0,0.0,0.0,0.0,0.0,0.0,0.0,0.0,0.0,0.0,0.0,0.0,0.0,0.0,0.0,0.0,0.0,0.0,0.0,0.0,0.0,0.0,0.0,0.0,0.0,0.0,0.0,0.0,0.0,0.0,0.0,0.0,0.0,0.0,0.0,0.0,0.0,0.0,0.0,0.0,0.0,0.0,0.0,0.0,0.0,0.0,0.0,0.0,0.0,0.0,0.0,0.0,0.0,0.0,0.0,0.0,0.0,0.0,0.0,0.0,0.0,0.0,0.0,0.0,0.0,0.0,0.0,0.0,0.0,0.0,0.0,0.0,0.0,0.0,0.0,0.0,0.0,0.0,0.0,0.0,0.0,0.0,0.0,0.0,0.0,0.0,0.0,0.0,0.0,0.0,0.0,0.0,0.0,0.0,0.0,0.0,0.0,0.0,0.0,0.0,0.0,0.0,0.0,0.0,0.0,0.0,0.0,0.0,0.0,0.0,0.0,0.0,0.0,0.0,0.0,0.0,0.0,0.0,0.0,0.0,0.0,0.0,0.0,0.0,0.0,0.0,0.0,0.0,0.0,0.0,0.0,0.0,0.0,0.0,0.0,0.0,0.0,0.0,0.0,-3.5173,0.0,0.0,0.0,0.0,0.0,0.0,0.0,0.0,0.0,0.0,0.0,0.0,0.0,0.0,0.0,0.0,0.0,0.0,0.0,0.0,0.0,0.0,0.0,0.0,0.0,0.0,0.0,0.0,0.0,0.0,0.0,0.0,0.0,0.0,0.0,0.0,0.0,0.0,0.0,0.0,0.0,0.0,0.0,0.0,0.0,0.0,0.0,0.0,0.0,0.0,0.0,0.0,0.0,0.0,0.0,0.0,0.0,0.0,0.0,0.0,0.0,0.0,0.0,0.0,0.0,0.0,0.0,0.0,0.0,0.0,0.0,0.0,0.0,0.0,0.0,0.0,0.0,0.0,0.0,0.0,0.0,0.0,0.0,0.0,0.0,0.0,0.0,0.0,0.0,0.0,0.0,0.0,0.0,0.0,0.0,0.0,0.0,0.0,0.0,0.0,0.0,0.0,0.0,0.0,0.0,0.0,0.0,0.0,0.0,0.0,0.0,0.0,0.0,0.0,0.0,0.0,-3.6543,0.0,0.0,0.0,0.0,0.0,0.0,0.0,0.0,0.0,0.0,0.0,0.0,0.0,0.0,0.0,0.0,0.0,0.0,0.0,0.0,0.0,0.0,0.0,0.0,0.0,0.0,0.0,0.0,0.0,0.0,0.0,0.0,0.0,0.0,0.0,0.0,0.0,0.0,0.0,0.0,0.0,0.0,0.0,0.0,0.0,0.0,0.0,0.0,0.0,0.0,0.0,0.0,0.0,0.0,0.0,0.0,0.0,0.0,0.0,0.0,0.0,0.0,0.0,0.0,0.0,0.0,0.0,0.0,0.0,0.0,0.0,0.0,0.0,0.0,0.0,0.0,0.0,0.0,0.0,0.0,0.0,0.0,0.0,0.0,0.0,0.0,0.0,0.0,0.0,0.0,0.0,0.0,0.0,0.0,0.0,0.0,0.0,0.0,0.0,0.0,0.0,0.0,0.0,0.0,0.0,0.0,0.0,0.0,-3.7273,-3.7772,-3.8295,-3.8797,-4.0005,-4.1606,-4.0483,-3.9987,-3.9905,-3.8788,0.0,0.0,0.0,0.0,0.0,0.0,0.0,0.0,0.0,0.0,0.0,0.0,0.0,0.0,0.0,0.0,0.0,0.0,0.0,0.0,0.0,0.0,0.0,0.0,0.0,0.0,0.0,0.0,0.0,0.0,0.0,0.0,0.0,0.0,0.0,0.0,0.0,0.0,0.0,0.0,0.0,0.0,0.0,0.0,0.0,0.0,0.0,0.0,0.0,0.0,0.0,0.0,0.0,0.0,0.0,0.0,0.0,0.0,0.0,0.0,0.0,0.0,0.0,0.0,0.0,0.0,0.0,0.0,0.0,0.0,0.0,0.0,0.0,0.0,0.0,0.0,0.0,0.0,0.0,0.0,0.0,0.0,0.0,0.0,0.0,0.0,-3.4699,-3.4699,0.0,0.0,0.0,0.0,0.0,0.0,0.0,0.0,0.0,0.0,0.0,0.0,0.0,-3.5965,-3.6654,-3.7253,-3.7423,-3.7237,-3.917,-4.0151,-4.0279,-4.1709,-4.2906,-4.3901,-4.4311,0.0,-4.113,-4.032,0.0,0.0,0.0,0.0,0.0,0.0,0.0,0.0,0.0,0.0,0.0,0.0,0.0,0.0,0.0,0.0,0.0,0.0,0.0,0.0,0.0,0.0,0.0,0.0,0.0,0.0,0.0,0.0,0.0,0.0,0.0,0.0,0.0,0.0,0.0,0.0,0.0,0.0,0.0,0.0,0.0,0.0,0.0,0.0,0.0,0.0,0.0,0.0,0.0,0.0,0.0,0.0,0.0,0.0,0.0,0.0,0.0,0.0,0.0,0.0,0.0,0.0,0.0,0.0,0.0,0.0,0.0,0.0,0.0,0.0,0.0,0.0,0.0,0.0,0.0,0.0,0.0,0.0,0.0,0.0,0.0,0.0,0.0,0.0,0.0,-3.4112,-3.4403,-3.4403,-3.4366,-3.4059,0.0,0.0,0.0,0.0,0.0,0.0,0.0,0.0,0.0,-3.6651,-3.7038,-3.7387,-3.7845,-3.9069,-3.9289,-3.8601,-4.0735,-4.1701,-4.1715,-4.2926,-4.4022,-4.4885,-4.517,-4.4646,-4.3554,-4.2847,-4.1548,-4.0037,0.0,0.0,0.0,0.0,-3.9271,-3.9823,0.0,0.0,0.0,0.0,0.0,0.0,0.0,0.0,0.0,0.0,0.0,0.0,0.0,0.0,0.0,0.0,0.0,0.0,0.0,0.0,0.0,0.0,0.0,0.0,0.0,0.0,0.0,0.0,0.0,0.0,0.0,0.0,0.0,0.0,0.0,0.0,0.0,0.0,0.0,0.0,0.0,0.0,0.0,0.0,0.0,0.0,0.0,0.0,0.0,0.0,0.0,0.0,0.0,0.0,0.0,0.0,0.0,0.0,0.0,0.0,0.0,0.0,0.0,0.0,0.0,0.0,0.0,0.0,0.0,0.0,0.0,0.0,0.0,0.0,0.0,0.0,0.0,-3.4423,-3.4647,-3.4489,-3.4772,-3.4577,0.0,0.0,0.0,0.0,0.0,0.0,-3.6887,-3.7205,-3.7555,-3.7866,-3.83,-3.8687,-3.8932,-4.0626,-4.0935,-4.0002,-4.2248,-4.3137,-4.2917,-4.3994,-4.491,-4.5574,-4.5738,-4.5798,-4.5738,-4.49,-4.3827,-4.2754,-4.2832,-4.2134,-4.116,-4.1722,-4.2332,-4.3006,0.0,0.0,0.0,0.0,0.0,0.0,0.0,0.0,0.0,0.0,0.0,0.0,0.0,0.0,0.0,0.0,0.0,0.0,0.0,0.0,0.0,0.0,0.0,0.0,0.0,0.0,0.0,0.0,0.0,0.0,0.0,0.0,0.0,0.0,0.0,0.0,0.0,0.0,0.0,0.0,0.0,0.0,0.0,0.0,0.0,0.0,0.0,0.0,0.0,0.0,0.0,0.0,0.0,0.0,0.0,0.0,0.0,0.0,0.0,0.0,0.0,0.0,0.0,0.0,0.0,0.0,0.0,0.0,0.0,0.0,0.0,0.0,0.0,0.0,0.0,0.0,0.0,0.0,0.0,-3.6044,-3.6652,0.0,0.0,0.0,0.0,-3.5774,-3.6217,-3.6696,-3.7232,-3.8371,-3.9162,-3.9455,-3.9507,-3.9534,-3.956,-4.1475,-4.1977,-4.1074,-4.382,-4.4702,-4.3863,-4.5467,-4.6234,-4.6307,-4.6935,-4.7204,-4.71,-4.5783,-4.4814,-4.4216,-4.4186,-4.3798,-4.3319,-4.3907,-4.4172,-4.4407,0.0,0.0,0.0,0.0,0.0,0.0,0.0,0.0,0.0,0.0,0.0,0.0,0.0,0.0,0.0,0.0,0.0,0.0,0.0,0.0,0.0,0.0,0.0,0.0,0.0,0.0,0.0,0.0,0.0,0.0,0.0,0.0,0.0,0.0,0.0,0.0,0.0,0.0,0.0,0.0,0.0,0.0,0.0,0.0,0.0,0.0,0.0,0.0,0.0,0.0,0.0,0.0,0.0,0.0,0.0,0.0,0.0,0.0,0.0,0.0,0.0,0.0,0.0,0.0,0.0,0.0,0.0,0.0,0.0,0.0,0.0,0.0,0.0,0.0,0.0,0.0,0.0,0.0,0.0,-3.6175,-3.7017,0.0,-3.6345,-3.708,-3.7473,-3.7222,-3.8018,-3.8601,-3.8765,-3.9171,-3.9744,-4.0529,-4.0263,-4.0412,-4.1044,-4.2809,-4.319,-4.2202,-4.52,-4.6074,-4.5141,-4.6369,-4.695,-4.698,-4.7204,-4.7309,-4.7264,-4.6785,-4.6456,-4.6232,-4.6232,-4.6097,-4.5948,-4.6157,-4.6232,-4.6307,0.0,0.0,0.0,0.0,0.0,0.0,0.0,0.0,0.0,0.0,0.0,0.0,0.0,0.0,0.0,0.0,0.0,0.0,0.0,0.0,0.0,0.0,0.0,0.0,0.0,0.0,0.0,0.0,0.0,0.0,0.0,0.0,0.0,0.0,0.0,0.0,0.0,0.0,0.0,0.0,0.0,0.0,-3.1693,0.0,0.0,0.0,0.0,0.0,0.0,0.0,0.0,0.0,0.0,0.0,0.0,0.0,0.0,0.0,0.0,0.0,0.0,0.0,0.0,0.0,0.0,0.0,0.0,0.0,0.0,0.0,0.0,0.0,0.0,0.0,0.0,0.0,0.0,0.0,-3.7364,-3.6776,-3.7756,-3.8083,-3.7077,-3.8214,-3.8867,-3.8501,-3.9351,-4.0018,-4.0341,-4.0263,-4.0776,-4.2126,-4.1528,-4.1681,-4.2716,-4.4088,-4.4485,-4.3815,-4.6166,-4.6975,-4.6344,-4.7019,-4.7309,-4.7309,-4.7309,-4.7309,-4.7309,-4.7309,-4.7309,-4.7309,-4.7309,-4.7309,-4.7309,-4.7309,-4.7309,-4.7309,0.0,0.0,0.0,0.0,0.0,0.0,0.0,0.0,0.0,0.0,0.0,0.0,0.0,0.0,0.0,0.0,0.0,0.0,0.0,0.0,0.0,0.0,0.0,0.0,0.0,0.0,0.0,0.0,0.0,0.0,0.0,0.0,0.0,0.0,0.0,0.0,0.0,0.0,0.0,0.0,0.0,0.0,-3.4352,0.0,0.0,0.0,0.0,0.0,0.0,0.0,0.0,0.0,0.0,0.0,0.0,0.0,0.0,0.0,0.0,0.0,0.0,0.0,0.0,0.0,0.0,0.0,0.0,0.0,0.0,0.0,0.0,0.0,0.0,0.0,0.0,0.0,-3.722,-3.8031,-3.854,-3.8018,-3.8945,-3.9403,-3.8815,-3.9311,-3.9664,-3.9664,-4.0148,-4.0861,-4.1842,-4.1514,-4.2199,-4.4219,-4.3334,-4.33,-4.4387,-4.5324,-4.5837,-4.5882,-4.6888,-4.7369,-4.7369,-4.7369,-4.7369,-4.7369,-4.7369,-4.7369,-4.7369,-4.7369,-4.7369,-4.7369,-4.7324,-4.7309,-4.7309,-4.7309,-4.7309,-4.7309,0.0,0.0,0.0,0.0,0.0,0.0,0.0,0.0,0.0,0.0,0.0,0.0,0.0,0.0,0.0,0.0,0.0,0.0,0.0,0.0,0.0,0.0,0.0,0.0,0.0,0.0,0.0,0.0,0.0,0.0,0.0,0.0,0.0,0.0,0.0,0.0,0.0,0.0,0.0,0.0,0.0,0.0,-3.4605,0.0,0.0,0.0,0.0,0.0,0.0,0.0,0.0,0.0,0.0,0.0,0.0,0.0,0.0,0.0,0.0,0.0,0.0,0.0,0.0,0.0,0.0,0.0,0.0,0.0,0.0,0.0,0.0,0.0,0.0,0.0,0.0,-3.9102,-3.8344,-3.8893,-3.9311,-3.9155,-3.9756,-4.0122,-3.9965,-4.0488,-4.084,-4.084,-4.0984,-4.1162,-4.1446,-4.1369,-4.2199,-4.4219,-4.303,-4.3555,-4.6091,-4.604,-4.6409,-4.7233,-4.8297,-4.8775,-4.8775,-4.8775,-4.8775,-4.8775,-4.8775,-4.8775,-4.8775,-4.8775,-4.8775,-4.8626,-4.7683,-4.7309,-4.7309,-4.7309,-4.7309,-4.7309,0.0,0.0,0.0,0.0,0.0,0.0,0.0,0.0,0.0,0.0,0.0,0.0,0.0,0.0,0.0,0.0,0.0,0.0,0.0,0.0,0.0,0.0,0.0,0.0,0.0,0.0,0.0,0.0,0.0,0.0,0.0,0.0,0.0,0.0,0.0,0.0,0.0,0.0,0.0,0.0,0.0,0.0,-3.5366,-3.4901,-3.4324,-3.3564,-3.1946,-3.1901,-3.2299,-3.0528,0.0,0.0,0.0,0.0,0.0,0.0,0.0,0.0,0.0,0.0,0.0,0.0,0.0,0.0,0.0,0.0,0.0,0.0,0.0,0.0,0.0,0.0,0.0,0.0,-3.9351,-4.02,-3.9847,-4.0109,-4.0331,-4.0331,-4.0605,-4.0788,-4.0788,-4.1102,-4.1311,-4.1311,-4.1311,-4.1616,-4.2289,-4.1915,-4.2915,-4.559,-4.4026,-4.4696,-4.7799,-4.7117,-4.7304,-4.845,-4.9028,-4.9314,-4.9314,-4.9314,-4.9314,0.0,-4.9314,-4.9314,-4.9314,-4.9314,-4.9314,0.0,0.0,0.0,0.0,0.0,-4.7309,-4.7309,0.0,0.0,0.0,0.0,0.0,0.0,0.0,0.0,0.0,0.0,0.0,0.0,0.0,0.0,0.0,0.0,0.0,0.0,0.0,0.0,0.0,0.0,0.0,0.0,0.0,0.0,0.0,0.0,0.0,0.0,0.0,0.0,0.0,0.0,0.0,0.0,0.0,0.0,0.0,0.0,0.0,0.0,-3.6257,-3.514,-3.481,-3.4627,-3.2535,-3.2482,-3.3214,-3.22,0.0,0.0,0.0,0.0,0.0,0.0,0.0,0.0,0.0,0.0,0.0,0.0,0.0,0.0,0.0,0.0,0.0,0.0,0.0,0.0,0.0,0.0,0.0,0.0,-4.0605,-4.1311,-4.1311,-4.1311,-4.1311,-4.1311,-4.1311,-4.1311,-4.1311,-4.1311,-4.135,-4.1415,-4.1415,-4.204,-4.3548,0.0,0.0,0.0,0.0,-4.6028,-4.9026,-4.8103,-4.8194,-4.9342,-4.9342,-4.9388,-4.9524,-4.9524,-4.9524,-4.9524,-4.9524,-4.9524,-4.9524,-4.9524,-4.9494,-4.9359,-4.8656,-4.8401,-4.8327,-4.7743,-4.7534,-4.7534,0.0,0.0,0.0,0.0,0.0,0.0,0.0,0.0,0.0,0.0,0.0,0.0,0.0,0.0,0.0,0.0,0.0,0.0,0.0,0.0,0.0,0.0,0.0,0.0,0.0,0.0,0.0,0.0,0.0,0.0,0.0,0.0,0.0,0.0,0.0,0.0,0.0,0.0,0.0,0.0,0.0,0.0,-3.6285,-3.5195,-3.5311,-3.5912,-3.4627,-3.4521,-3.5019,-3.4778,-3.4135,-3.3388,-3.3245,0.0,0.0,0.0,0.0,0.0,0.0,0.0,0.0,0.0,0.0,0.0,0.0,0.0,0.0,0.0,0.0,0.0,0.0,0.0,0.0,-4.0125,-4.0853,-4.1311,-4.1311,-4.1311,-4.1311,-4.1311,-4.1311,-4.1311,-4.1311,-4.1311,-4.1507,-4.1964,-4.2004,-4.2354,-4.3124,-4.2957,-4.3537,-4.5043,-4.5247,-4.5999,-4.7423,-4.7773,-4.8473,-4.9552,0.0,0.0,-5.084,-5.084,-5.084,-5.084,-5.084,-5.084,-5.084,-5.084,-5.0526,-4.9941,-4.9329,-4.912,-4.9105,-4.8985,-4.8925,-4.8925,0.0,0.0,0.0,0.0,0.0,0.0,0.0,0.0,0.0,0.0,0.0,0.0,0.0,0.0,0.0,0.0,0.0,0.0,0.0,0.0,0.0,0.0,0.0,0.0,0.0,0.0,0.0,0.0,0.0,0.0,0.0,0.0,0.0,0.0,0.0,0.0,0.0,0.0,0.0,0.0,0.0,0.0,-3.5523,-3.4981,-3.4775,-3.4775,-3.4775,-3.4619,-3.4342,-3.4342,-3.3994,-3.3467,-3.3063,-3.3078,-3.2953,0.0,0.0,0.0,0.0,0.0,0.0,0.0,0.0,0.0,0.0,0.0,0.0,0.0,0.0,-3.7858,0.0,0.0,-4.02,-4.0775,-4.1115,-4.1311,-4.1311,-4.1311,-4.1311,-4.1311,-4.1311,-4.1428,-4.1716,-4.1742,-4.1977,-4.2552,-4.2592,-4.284,-4.3415,-4.3952,-4.4629,-4.5413,-4.6062,-4.7139,-4.8795,-4.8289,-4.9163,-5.1385,-5.0816,-5.1126,-5.2202,-5.2202,-5.2202,-5.2187,-5.1858,-5.1708,-5.1678,-5.1349,-5.102,-5.0644,-5.0376,-4.9838,-4.9314,-4.9314,-4.9314,-4.9314,0.0,0.0,0.0,0.0,0.0,0.0,0.0,0.0,0.0,0.0,0.0,0.0,0.0,0.0,0.0,0.0,0.0,0.0,0.0,0.0,0.0,0.0,0.0,0.0,0.0,0.0,0.0,0.0,0.0,0.0,0.0,0.0,0.0,0.0,0.0,0.0,0.0,0.0,0.0,0.0,0.0,0.0,-3.4178,-3.4178,-3.3784,-3.33,-3.3932,-3.3735,-3.3201,-3.3201,-3.335,-3.338,-3.2484,-3.301,-3.3564,-3.1626,-3.2022,0.0,0.0,0.0,0.0,0.0,0.0,0.0,0.0,0.0,-3.6137,-3.7355,-3.8188,-3.8977,-3.9748,-4.021,-4.065,-4.1132,-4.1261,-4.1311,-4.1311,-4.1311,-4.135,-4.1468,-4.1481,-4.1664,-4.2172,-4.2265,-4.2565,-4.3141,-4.318,-4.3428,-4.4003,-4.4969,-4.5749,-4.6234,-4.6974,-4.8163,-4.9771,-4.8698,-4.9504,-5.2179,-5.1295,-5.1563,-5.2866,-5.2605,-5.2768,-5.3159,-5.2621,-5.2396,-5.2351,-5.1813,-5.1603,-5.1588,-5.1468,-5.0765,-4.9868,-4.9733,-4.9689,-4.9689,0.0,0.0,0.0,0.0,0.0,0.0,0.0,0.0,0.0,0.0,0.0,0.0,0.0,0.0,0.0,0.0,0.0,0.0,0.0,0.0,0.0,0.0,0.0,0.0,0.0,0.0,0.0,0.0,0.0,0.0,0.0,0.0,0.0,0.0,0.0,0.0,0.0,0.0,0.0,0.0,0.0,0.0,-3.1982,-3.1982,-3.2488,-3.3101,-3.2286,-3.2488,-3.3201,-3.3201,-3.3845,-3.4422,-3.338,-3.4078,-3.4842,-3.2522,0.0,-3.2599,-3.1412,-3.2381,-3.3961,-3.5166,-3.5521,-3.6256,0.0,0.0,-3.7942,-3.9753,-4.0007,-4.002,-4.0351,-4.0654,-4.0869,-4.092,-4.1147,-4.1311,-4.1311,-4.1311,-4.1507,-4.2017,-4.212,-4.2146,-4.2211,-4.2631,-4.3167,-4.3729,-4.3781,-4.4029,-4.4604,-4.5249,-4.5619,-4.5684,-4.7161,-4.7688,-4.697,-4.7701,-4.83,-4.8665,-4.8557,-4.9623,-5.1664,-5.0577,-5.1258,-5.3174,-5.3099,-5.3069,-5.3069,-5.2995,-5.2965,-5.2905,-5.2321,-5.1992,-5.1798,-5.1214,-5.1005,-5.1005,0.0,0.0,0.0,0.0,0.0,0.0,0.0,0.0,0.0,0.0,0.0,0.0,0.0,0.0,0.0,0.0,0.0,0.0,0.0,0.0,0.0,0.0,0.0,0.0,0.0,0.0,0.0,0.0,0.0,0.0,0.0,0.0,0.0,0.0,0.0,0.0,0.0,0.0,0.0,0.0,0.0,0.0,-3.1524,-3.0888,-3.0547,-3.0406,-3.0684,-3.0695,0.0,0.0,-3.0844,-3.1284,-3.1673,-3.2653,-3.3505,-3.2456,-3.2999,0.0,-3.4549,-3.487,0.0,0.0,-3.732,-3.7655,-3.888,-3.8629,-3.8579,-3.9969,-4.0185,-4.0224,-4.0643,-4.0846,-4.0933,0.0,-4.1211,-4.1311,-4.1311,-4.1598,-4.1899,-4.2185,-4.28,-4.3219,-4.3219,-4.3376,-4.3755,-4.433,-4.4696,-4.4996,-4.519,-4.6374,-4.6802,-4.612,-4.7735,-4.8418,-4.8001,-4.811,-4.8861,-5.0213,-4.9501,-5.0362,-5.2563,-5.2081,-5.2154,-5.2702,-5.2012,-5.1539,-5.1142,-5.1142,-5.1563,-5.2165,-5.1885,-5.2205,-5.2636,-5.1603,-5.1214,-5.1214,0.0,0.0,0.0,0.0,0.0,0.0,0.0,0.0,0.0,0.0,0.0,0.0,0.0,0.0,0.0,0.0,0.0,0.0,0.0,0.0,0.0,0.0,0.0,0.0,0.0,0.0,0.0,0.0,0.0,0.0,0.0,0.0,0.0,0.0,0.0,0.0,0.0,0.0,0.0,0.0,0.0,0.0,-3.1051,-2.9953,-2.9044,-2.8518,-2.9409,-2.9063,0.0,0.0,-2.8515,-2.9007,-3.0067,-3.1341,-3.2405,-3.2327,-3.3199,-3.4452,-3.6013,0.0,0.0,-3.7892,-3.8552,-3.8827,-3.8827,-3.8827,-3.9042,-3.9853,-3.9981,-4.0134,-4.0491,-4.063,-4.0795,-4.106,-4.1161,-4.1263,-4.1369,-4.1848,-4.2278,-4.2488,-4.3363,-4.3938,-4.4095,-4.4108,-4.4343,-4.4931,-4.532,-4.5689,-4.5859,-4.7136,-4.7498,-4.6765,-4.8027,-4.8828,-4.8828,-4.8413,-4.9058,-5.0698,-4.9872,-5.0462,-5.243,-5.2765,-5.2454,-5.1693,-5.1175,-5.0722,-5.0261,-5.0565,-5.1247,-5.202,-5.2165,-5.2738,-5.3324,-5.2187,-5.1753,-5.1753,0.0,0.0,0.0,0.0,0.0,0.0,0.0,0.0,0.0,0.0,0.0,0.0,0.0,0.0,0.0,0.0,0.0,0.0,0.0,0.0,0.0,0.0,0.0,0.0,0.0,0.0,0.0,0.0,0.0,0.0,0.0,0.0,0.0,0.0,0.0,0.0,0.0,0.0,0.0,0.0,0.0,0.0,-2.9943,-2.8798,-2.8438,-2.8618,-2.8607,0.0,0.0,0.0,-2.8291,-2.9467,-2.9441,-3.0811,0.0,-3.2328,-3.2528,0.0,0.0,0.0,-3.6287,-3.7431,-3.8717,-3.9672,-3.9672,-3.9672,-3.9672,-3.9697,-3.9697,-3.9749,-3.9749,-3.9929,-4.0236,-4.0504,-4.0744,-4.1077,-4.1634,-4.1994,-4.2462,-4.3292,-4.3674,-4.4095,0.0,-4.4709,-4.4957,-4.5558,-4.5568,-4.5872,-4.6421,-4.6996,-4.731,-4.7252,-4.7916,-4.8217,-4.8217,-4.823,-4.8243,-4.8302,-4.8302,-4.8886,-5.0028,-5.1237,-5.1113,-5.0057,-5.1168,-5.1646,-5.1741,-5.2814,-5.3303,-5.3402,-5.3935,-5.4127,-5.4102,-5.3384,-5.3114,-5.3114,0.0,0.0,0.0,0.0,0.0,0.0,0.0,0.0,0.0,0.0,0.0,0.0,0.0,0.0,0.0,0.0,0.0,0.0,0.0,0.0,0.0,0.0,0.0,0.0,0.0,0.0,0.0,0.0,0.0,0.0,0.0,0.0,0.0,0.0,0.0,0.0,0.0,0.0,0.0,0.0,0.0,0.0,-2.9466,-2.8755,-2.7891,-2.6962,0.0,0.0,0.0,0.0,0.0,0.0,-2.9448,0.0,0.0,-3.1537,-3.2869,-3.4277,0.0,0.0,-3.7615,-3.8742,-3.937,-3.9697,-3.9697,-3.9697,-3.9697,-3.9697,-3.9293,-3.8979,-3.9145,-3.9246,-3.9386,-3.9689,-4.0248,-4.0849,-4.1363,-4.1866,-4.2434,-4.3074,-4.3579,0.0,0.0,0.0,0.0,-4.5555,-4.6273,-4.6839,-4.7035,-4.7584,-4.7898,-4.7898,-4.8081,-4.8185,-4.8185,-4.8185,-4.8185,-4.8185,-4.8944,-4.9532,-4.9915,-5.0294,-5.0308,-4.9858,-4.9546,-4.9388,-4.9388,-4.9773,-5.042,-5.1099,-5.1273,-5.185,-5.2608,-5.3121,-5.3356,-5.334,0.0,0.0,0.0,0.0,0.0,0.0,0.0,0.0,0.0,0.0,0.0,0.0,0.0,0.0,0.0,0.0,0.0,0.0,0.0,0.0,0.0,0.0,0.0,0.0,0.0,0.0,0.0,0.0,0.0,0.0,0.0,0.0,0.0,0.0,0.0,0.0,0.0,0.0,0.0,0.0,0.0,0.0,-2.8721,-2.7847,-2.6954,0.0,0.0,0.0,0.0,0.0,0.0,0.0,0.0,-2.976,-3.0707,-3.1853,-3.3555,-3.5303,0.0,-3.7462,-3.8278,-3.9421,-3.9697,-3.9697,-3.9697,-3.9697,-3.9697,-3.9697,-3.898,-3.8416,-3.8831,-3.8693,-3.8718,-3.9057,-3.9817,-4.0555,-4.1203,-4.1834,-4.2452,-4.3057,-4.3601,0.0,0.0,0.0,0.0,-4.5937,-4.6573,-4.7197,-4.7623,-4.786,-4.8068,-4.8185,-4.8185,-4.8185,-4.8185,-4.8185,-4.8185,-4.8185,-4.8944,-4.9261,-4.9261,-4.9261,-4.9261,-4.9274,-4.8508,-4.8185,-4.8243,-4.8611,-4.9274,-4.9915,-5.035,-5.1017,-5.1797,-5.2498,-5.2818,-5.2915,0.0,0.0,0.0,0.0,0.0,0.0,0.0,0.0,0.0,0.0,0.0,0.0,0.0,0.0,0.0,0.0,0.0,0.0,0.0,0.0,0.0,0.0,0.0,0.0,0.0,0.0,0.0,0.0,0.0,0.0,0.0,0.0,0.0,0.0,0.0,0.0,0.0,0.0,0.0,0.0,0.0,0.0,-2.7658,-2.6182,0.0,0.0,0.0,0.0,0.0,0.0,0.0,0.0,0.0,0.0,-3.2644,-3.3116,-3.4394,-3.5972,-3.7588,-3.8052,-3.8354,-3.9421,-3.9697,-3.9697,-3.9697,-3.9697,-3.9672,-3.9622,-3.873,-3.8128,0.0,0.0,-3.8091,-3.8642,-3.9487,-4.036,-4.1194,-4.1785,-4.2485,0.0,0.0,0.0,0.0,0.0,0.0,-4.6469,0.0,-4.6914,-4.8101,-4.788,-4.7821,-4.8185,-4.8185,-4.8185,-4.8185,-4.8185,-4.8185,-4.8185,-4.8185,-4.8185,-4.8185,-4.8185,-4.8185,-4.8185,-4.8185,-4.8185,-4.8289,-4.9375,-4.9802,-4.9915,-5.1072,-5.1525,-5.1525,-5.1579,-5.1634,-5.2014,0.0,0.0,0.0,0.0,0.0,0.0,0.0,0.0,0.0,0.0,0.0,0.0,0.0,0.0,0.0,0.0,0.0,0.0,0.0,0.0,0.0,0.0,0.0,0.0,0.0,0.0,0.0,0.0,0.0,0.0,0.0,0.0,0.0,0.0,0.0,0.0,0.0,0.0,0.0,0.0,0.0,0.0,-2.6357,0.0,0.0,0.0,0.0,0.0,0.0,0.0,0.0,0.0,0.0,0.0,-3.3935,-3.3412,-3.5186,-3.7475,-3.7889,-3.8617,-3.9333,-3.9622,-3.9697,-3.9697,-3.9697,-3.9697,-3.9407,-3.8429,-3.763,-3.6959,0.0,0.0,0.0,-3.7817,-3.8981,0.0,-4.1178,-4.1436,0.0,0.0,0.0,-4.3548,-4.4331,-4.4662,0.0,0.0,-4.6751,-4.7123,-4.7442,-4.7383,-4.7514,-4.7821,-4.7573,-4.769,-4.8185,-4.8185,-4.8185,-4.8185,-4.8185,-4.8185,-4.8185,-4.8185,-4.8185,-4.8185,-4.8185,-4.8185,-4.8243,-4.8508,-4.8611,-4.8669,-4.8944,-4.9116,-4.923,-5.0028,-5.0906,-5.1906,0.0,0.0,0.0,0.0,0.0,0.0,0.0,0.0,0.0,0.0,0.0,0.0,0.0,0.0,0.0,0.0,0.0,0.0,0.0,0.0,0.0,0.0,0.0,0.0,0.0,0.0,0.0,0.0,0.0,0.0,0.0,0.0,0.0,0.0,0.0,0.0,0.0,0.0,0.0,0.0,0.0,0.0,0.0,0.0,0.0,0.0,0.0,0.0,0.0,0.0,0.0,-2.9076,-2.9225,-3.1638,-3.4258,-3.3977,0.0,-3.8442,-3.868,-3.9207,-3.9697,-3.9697,-3.9697,-3.9572,-3.9069,-3.8956,-3.8592,-3.7391,-3.648,0.0,0.0,0.0,0.0,0.0,0.0,0.0,-4.1018,-4.1234,-4.1743,0.0,-4.2974,0.0,-4.432,-4.4558,-4.5087,0.0,-4.6637,-4.6921,-4.7205,-4.71,-4.7159,-4.7442,-4.7324,-4.7383,-4.7749,-4.7749,-4.7749,-4.7749,-4.7749,-4.7749,-4.7749,-4.7749,-4.7821,-4.7997,0.0,-4.7808,-4.7997,-4.7808,-4.7749,-4.7762,-4.7938,-4.788,-4.7867,-4.8642,-4.9362,-5.0126,0.0,0.0,0.0,0.0,0.0,0.0,0.0,0.0,0.0,0.0,0.0,0.0,0.0,0.0,0.0,0.0,0.0,0.0,0.0,0.0,0.0,0.0,0.0,0.0,0.0,0.0,0.0,0.0,0.0,0.0,0.0,0.0,0.0,0.0,0.0,0.0,0.0,0.0,0.0,0.0,0.0,0.0,0.0,0.0,0.0,0.0,0.0,0.0,0.0,0.0,-2.8297,-2.897,-2.9435,-3.162,-3.4182,-3.4791,-3.6776,-3.8917,-3.9508,-3.9697,-3.9697,-3.9697,-3.9697,-3.9396,-3.8266,-3.8002,-3.7663,-3.6398,0.0,-3.4989,-3.5868,0.0,-3.6563,-3.7406,0.0,-3.9894,-4.0832,-4.1168,-4.1743,-4.2848,-4.2974,-4.3413,-4.4518,-4.4618,-4.5095,-4.6225,-4.6313,-4.6528,-4.7027,-4.684,-4.684,-4.7087,-4.7146,-4.7205,-4.7159,-4.7205,-4.7205,-4.7205,-4.7205,-4.7205,-4.7205,-4.7205,-4.7383,-4.7632,-4.7324,0.0,-4.7632,-4.7324,-4.7205,-4.7205,-4.7501,-4.7455,-4.7265,-4.7573,-4.7808,-4.8088,0.0,0.0,0.0,0.0,0.0,0.0,0.0,0.0,0.0,0.0,-1.6684,0.0,0.0,0.0,0.0,0.0,0.0,0.0,0.0,0.0,0.0,0.0,0.0,0.0,0.0,0.0,0.0,0.0,0.0,0.0,0.0,0.0,0.0,0.0,0.0,0.0,0.0,0.0,0.0,0.0,0.0,0.0,0.0,0.0,0.0,0.0,0.0,0.0,0.0,0.0,-2.869,-3.0408,-3.0874,-3.2596,-3.4603,-3.5628,-3.6968,-3.8315,-3.9389,-3.9697,-3.9697,-3.9697,-3.9697,-3.9396,-3.8266,-3.8002,0.0,0.0,0.0,-3.4547,-3.4093,-3.4882,0.0,-3.71,0.0,0.0,0.0,0.0,-4.1743,0.0,0.0,0.0,0.0,0.0,0.0,0.0,0.0,-4.6361,-4.6481,-4.6421,-4.6421,-4.6481,-4.6921,-4.71,-4.6853,-4.71,-4.7205,-4.7205,-4.7205,-4.7205,-4.7205,-4.7205,-4.7265,-4.7265,-4.7205,0.0,-4.7265,-4.7205,-4.7205,-4.7205,-4.7265,-4.7265,-4.7265,-4.7573,-4.8308,-4.9247,0.0,0.0,0.0,0.0,0.0,0.0,0.0,0.0,0.0,-1.3046,-1.3926,-1.5394,0.0,0.0,0.0,0.0,0.0,0.0,0.0,0.0,0.0,0.0,0.0,0.0,0.0,0.0,0.0,0.0,0.0,0.0,0.0,0.0,0.0,0.0,0.0,0.0,0.0,0.0,0.0,0.0,0.0,0.0,0.0,0.0,0.0,0.0,0.0,0.0,0.0,0.0,-2.8224,-3.045,-3.1153,-3.2859,-3.4747,-3.587,-3.7007,-3.8161,-3.9362,-3.9697,-3.9697,-3.9697,-3.9697,-3.9245,-3.7538,0.0,0.0,0.0,0.0,-3.3828,-3.3708,-3.4472,0.0,0.0,0.0,0.0,0.0,0.0,0.0,0.0,0.0,0.0,0.0,0.0,0.0,0.0,0.0,-4.6313,-4.6313,-4.6313,-4.6313,-4.6313,-4.6588,-4.6648,-4.6554,-4.6648,-4.6755,-4.6755,-4.6755,-4.6755,-4.6755,-4.6755,-4.6815,-4.7006,-4.6827,0.0,-4.7006,-4.6815,-4.6755,-4.6755,-4.6934,-4.6887,-4.6755,-4.7125,-4.7586,-4.8133,0.0,0.0,0.0,0.0,0.0,0.0,0.0,-1.2203,-1.2118,-1.1742,-1.1991,-1.3137,-1.558,-1.7577,-1.9021,0.0,0.0,0.0,0.0,0.0,0.0,0.0,0.0,0.0,0.0,0.0,0.0,0.0,0.0,0.0,0.0,0.0,0.0,0.0,0.0,0.0,0.0,0.0,0.0,0.0,0.0,0.0,0.0,0.0,0.0,0.0,0.0,0.0,0.0,0.0,-2.7363,-2.9467,-3.0491,-3.2247,-3.4261,-3.5645,-3.6682,-3.7741,-3.9272,-3.9697,-3.9697,-3.9697,-3.9697,-3.9107,-3.6872,-3.6417,0.0,0.0,0.0,-3.3206,-3.3646,0.0,0.0,0.0,0.0,0.0,0.0,0.0,0.0,0.0,0.0,0.0,0.0,0.0,0.0,0.0,0.0,0.0,-4.6313,-4.6313,-4.6313,-4.6313,-4.6313,-4.6313,-4.6313,-4.6313,-4.6313,-4.6313,-4.6313,-4.6313,-4.6313,-4.6313,-4.6434,-4.6686,-4.6434,0.0,0.0,-4.6434,-4.6313,-4.6313,-4.6614,-4.6554,-4.6313,-4.6686,-4.6806,-4.6806,0.0,0.0,0.0,0.0,0.0,0.0,0.0,-1.2032,-1.1742,-1.1699,-1.2392,-1.2806,-1.2482,-1.4776,-1.7274,0.0,0.0,0.0,0.0,0.0,0.0,0.0,0.0,0.0,0.0,0.0,0.0,0.0,0.0,0.0,0.0,0.0,0.0,0.0,0.0,0.0,0.0,0.0,0.0,0.0,0.0,0.0,0.0,0.0,0.0,0.0,0.0,0.0,0.0,0.0,0.0,-2.7122,-2.8426,-3.0409,-3.2688,-3.4919,0.0,0.0,-3.9005,-3.9697,-3.9697,-3.9697,-3.9697,-3.912,-3.691,0.0,0.0,0.0,-3.3124,-3.3136,-3.3144,0.0,0.0,0.0,0.0,0.0,0.0,0.0,0.0,0.0,0.0,0.0,0.0,0.0,0.0,0.0,0.0,0.0,-4.6313,-4.6313,-4.6313,-4.6313,-4.6313,-4.6313,-4.6313,-4.6313,-4.6313,-4.6313,-4.6313,-4.6313,-4.6313,-4.6313,-4.6313,-4.6373,-4.6313,0.0,0.0,-4.6313,-4.6313,-4.6313,-4.6313,-4.6313,-4.6313,-4.6686,-4.6806,-4.6853,0.0,0.0,0.0,0.0,0.0,0.0,0.0,-1.1995,-1.1828,-1.1699,-1.1866,-1.2189,-1.28,-1.3799,-1.5295,0.0,0.0,0.0,0.0,0.0,0.0,0.0,0.0,0.0,0.0,0.0,0.0,0.0,0.0,0.0,0.0,0.0,0.0,0.0,0.0,0.0,0.0,0.0,0.0,0.0,0.0,0.0,0.0,0.0,0.0,0.0,0.0,0.0,0.0,0.0,0.0,0.0,-2.7119,-2.8576,0.0,0.0,-3.498,-3.6379,-3.8141,-3.9154,-3.9697,-3.9697,-3.9446,-3.8705,-3.6835,0.0,0.0,-3.3458,-3.3124,-3.3124,-3.3124,0.0,0.0,0.0,0.0,0.0,0.0,0.0,0.0,0.0,0.0,0.0,0.0,0.0,0.0,0.0,0.0,0.0,-4.6313,-4.6313,-4.6313,-4.6313,-4.6313,-4.6313,-4.6313,-4.6313,-4.6313,-4.6313,-4.6313,-4.6313,-4.6313,-4.6313,-4.6313,-4.6313,-4.6313,0.0,0.0,-4.6313,-4.6313,-4.6313,-4.6313,-4.6313,-4.6313,-4.6434,-4.6494,-4.6494,0.0,0.0,0.0,0.0,0.0,0.0,-1.216,-1.2037,-1.1914,-1.1742,-1.178,-1.2112,-1.2912,-1.3451,-1.428,-1.5525,0.0,0.0,0.0,0.0,0.0,0.0,0.0,0.0,0.0,0.0,0.0,0.0,0.0,0.0,0.0,0.0,0.0,0.0,0.0,0.0,0.0,0.0,0.0,0.0,0.0,0.0,0.0,0.0,0.0,0.0,0.0,0.0,0.0,0.0,0.0,0.0,0.0,0.0,0.0,0.0,-3.4028,-3.5958,-3.7176,-3.857,-3.9697,-3.9697,-3.9145,-3.8228,0.0,0.0,0.0,-3.3382,-3.3124,-3.3124,-3.3124,0.0,0.0,0.0,0.0,0.0,0.0,0.0,0.0,0.0,0.0,0.0,0.0,0.0,0.0,0.0,0.0,0.0,0.0,-4.6313,-4.6313,-4.6313,-4.6313,-4.6313,-4.6313,-4.6313,-4.6313,-4.6313,-4.6313,-4.6313,-4.6313,-4.6313,-4.6313,-4.6313,-4.6313,0.0,0.0,-4.6313,-4.6313,-4.6313,-4.6313,-4.6313,-4.6313,-4.6313,-4.6313,-4.6313,0.0,0.0,0.0,0.0,0.0,0.0,0.0,-1.216,-1.1914,-1.1742,-1.2454,-1.2753,-1.2086,-1.362,-1.4496,-1.4048,0.0,0.0,0.0,0.0,0.0,0.0,0.0,0.0,0.0,0.0,0.0,-2.3091,-2.2882,0.0,0.0,0.0,0.0,0.0,0.0,0.0,0.0,0.0,0.0,0.0,0.0,0.0,0.0,0.0,0.0,0.0,0.0,0.0,0.0,0.0,0.0,0.0,0.0,0.0,0.0,0.0,-3.2543,-3.4559,-3.6192,-3.8107,-3.9697,-3.9697,-3.8856,-3.7726,0.0,0.0,0.0,-3.3307,-3.3124,-3.3124,0.0,0.0,0.0,0.0,0.0,0.0,0.0,0.0,0.0,0.0,0.0,0.0,0.0,0.0,0.0,0.0,0.0,0.0,0.0,-4.6313,-4.6313,-4.6313,-4.6313,-4.6313,-4.6313,-4.6313,-4.6313,-4.6313,-4.6313,-4.6313,-4.6313,-4.6313,-4.6313,0.0,0.0,0.0,0.0,-4.6313,-4.6313,-4.6313,-4.6313,-4.6313,-4.6313,-4.6313,-4.6313,-4.6313,0.0,0.0,0.0,0.0,0.0,0.0,0.0,-1.2326,-1.2203,-1.1957,-1.2166,-1.2753,-1.3915,-1.4041,-1.4496,-1.5745,0.0,0.0,0.0,0.0,0.0,0.0,0.0,0.0,0.0,0.0,-2.3091,-2.3091,-2.3057,-2.2794,-2.2397,0.0,0.0,0.0,0.0,0.0,0.0,0.0,0.0,0.0,0.0,0.0,0.0,0.0,0.0,0.0,0.0,0.0,0.0,0.0,0.0,0.0,0.0,0.0,0.0,0.0,0.0,0.0,-3.5026,-3.6604,-3.7889,-3.7561,-3.686,-3.6085,-3.5403,0.0,0.0,0.0,0.0,0.0,0.0,0.0,0.0,0.0,0.0,0.0,0.0,0.0,0.0,0.0,0.0,0.0,0.0,0.0,0.0,0.0,0.0,0.0,0.0,-4.6313,-4.6313,-4.6313,-4.6313,-4.6313,-4.6313,-4.6313,-4.6313,-4.6313,-4.6313,-4.6313,-4.6313,-4.6313,0.0,0.0,0.0,0.0,0.0,-4.6313,-4.6313,-4.6313,-4.6313,-4.6313,-4.6313,-4.6313,-4.6313,-4.6313,0.0,0.0,0.0,0.0,0.0,0.0,0.0,-1.2491,-1.2412,-1.216,-1.216,-1.2747,-1.4336,-1.4329,-1.4747,-1.6083,0.0,0.0,0.0,0.0,0.0,0.0,0.0,0.0,0.0,-2.3091,-2.3091,-2.3091,-2.3013,-2.2794,-2.2397,-2.2309,-2.2087,0.0,0.0,0.0,0.0,0.0,0.0,0.0,0.0,0.0,-2.2805,0.0,0.0,0.0,0.0,0.0,0.0,0.0,0.0,0.0,0.0,0.0,0.0,0.0,0.0,0.0,0.0,-3.5485,-3.6832,-3.6493,-3.5793,0.0,0.0,0.0,0.0,0.0,0.0,0.0,0.0,0.0,0.0,0.0,0.0,0.0,0.0,0.0,0.0,0.0,0.0,0.0,0.0,0.0,0.0,0.0,0.0,0.0,0.0,-4.6313,-4.6313,-4.6313,-4.6313,-4.6313,-4.6313,-4.6313,-4.6313,-4.6313,-4.6313,-4.6313,-4.6313,-4.6313,0.0,0.0,0.0,0.0,0.0,-4.6313,-4.6313,-4.6313,-4.6313,-4.6313,-4.6313,-4.6313,-4.6313,-4.6313,0.0,0.0,0.0,0.0,0.0,0.0,0.0,0.0,0.0,0.0,-1.2406,-1.2784,-1.3704,-1.4538,-1.513,0.0,0.0,0.0,0.0,0.0,0.0,0.0,0.0,0.0,0.0,-2.3091,-2.3091,-2.3091,-2.2925,-2.2662,-2.2397,-2.223,-2.1963,-2.1696,-2.1696,0.0,0.0,0.0,0.0,0.0,0.0,0.0,0.0,0.0,0.0,0.0,0.0,0.0,0.0,0.0,0.0,0.0,0.0,0.0,0.0,0.0,0.0,0.0,0.0,0.0,0.0,0.0,0.0,0.0,0.0,0.0,0.0,0.0,0.0,0.0,0.0,0.0,0.0,0.0,0.0,0.0,0.0,0.0,0.0,0.0,0.0,0.0,0.0,0.0,0.0,0.0,0.0,0.0,0.0,-4.6313,-4.6313,-4.6313,-4.6313,-4.6313,-4.6313,-4.6313,-4.6313,-4.6313,-4.6313,-4.6313,-4.6313,-4.6313,-4.6313,0.0,0.0,0.0,0.0,-4.6313,-4.6313,-4.6313,-4.6313,-4.6313,-4.6313,-4.6313,-4.6313,-4.6313,0.0,0.0,0.0,0.0,0.0,0.0,0.0,0.0,0.0,0.0,-1.2619,-1.3252,-1.4845,-1.5179,-1.5594,0.0,0.0,0.0,0.0,0.0,0.0,0.0,0.0,0.0,0.0,-2.3091,-2.3091,-2.3091,-2.3047,-2.2794,-2.2397,-2.2353,-2.2087,-2.1696,-2.1696,0.0,0.0,0.0,0.0,0.0,0.0,0.0,0.0,0.0,0.0,0.0,-2.3013,-2.2882,0.0,0.0,0.0,0.0,0.0,0.0,0.0,0.0,-2.9938,-3.0785,-3.2639,0.0,-3.4374,0.0,0.0,0.0,0.0,0.0,0.0,0.0,0.0,0.0,0.0,0.0,0.0,0.0,0.0,0.0,0.0,0.0,0.0,0.0,0.0,0.0,0.0,0.0,0.0,0.0,0.0,0.0,0.0,-4.6313,-4.6313,-4.6313,-4.6313,-4.6313,-4.6313,-4.6313,-4.6313,-4.6313,-4.6313,-4.6313,-4.6313,-4.6313,-4.6313,0.0,0.0,0.0,-4.6313,-4.6313,-4.6313,-4.6313,-4.6313,-4.6313,-4.6313,-4.6313,-4.6313,-4.6313,0.0,0.0,0.0,0.0,0.0,0.0,0.0,0.0,0.0,0.0,0.0,0.0,0.0,0.0,0.0,0.0,0.0,0.0,0.0,0.0,0.0,0.0,0.0,0.0,0.0,-2.3003,-2.3091,-2.3091,-2.3091,-2.2882,-2.2397,-2.2397,-2.2132,-2.1696,-2.1696,0.0,0.0,0.0,0.0,0.0,-2.178,0.0,0.0,0.0,0.0,0.0,-2.3013,-2.2882,0.0,-2.3544,-2.3429,-2.3188,0.0,0.0,0.0,0.0,-2.9673,-3.0621,-3.2568,-3.3294,-3.3445,-3.3156,-3.3124,-3.3124,0.0,0.0,0.0,0.0,0.0,0.0,0.0,0.0,0.0,0.0,0.0,0.0,0.0,0.0,0.0,0.0,0.0,0.0,0.0,0.0,0.0,0.0,0.0,0.0,0.0,-4.6175,-4.6313,-4.6313,-4.6313,-4.6313,-4.6313,-4.6313,-4.6313,-4.6313,-4.6313,-4.6313,-4.6313,-4.6313,-4.6313,0.0,0.0,0.0,-4.6313,-4.6313,-4.6313,-4.6313,-4.6313,-4.6313,-4.6313,-4.6313,-4.615,-4.5937,0.0,0.0,0.0,0.0,0.0,0.0,0.0,0.0,0.0,0.0,0.0,0.0,0.0,0.0,0.0,0.0,0.0,0.0,0.0,0.0,0.0,0.0,0.0,-2.2373,-2.251,-2.2818,-2.3033,-2.3091,-2.3033,-2.2785,-2.2303,-2.2303,-2.2076,-2.1687,-2.1623,-2.1595,0.0,0.0,0.0,0.0,-2.1414,0.0,0.0,0.0,0.0,0.0,0.0,0.0,0.0,-2.3095,-2.2828,-2.2473,-2.357,0.0,0.0,0.0,0.0,0.0,-3.2556,-3.3226,-3.3282,-3.3162,-3.3144,-3.3181,0.0,0.0,0.0,0.0,0.0,0.0,0.0,0.0,0.0,0.0,0.0,0.0,0.0,0.0,0.0,0.0,0.0,0.0,0.0,0.0,0.0,0.0,0.0,0.0,0.0,-4.5799,-4.605,-4.605,-4.605,-4.605,-4.605,-4.6225,-4.6313,-4.6313,-4.6313,-4.6313,-4.6313,-4.6313,-4.6313,-4.6313,0.0,0.0,-4.6313,-4.6313,-4.6263,-4.6188,-4.6188,-4.6125,-4.605,-4.605,-4.5761,-4.5359,0.0,0.0,0.0,0.0,0.0,0.0,0.0,0.0,0.0,0.0,0.0,0.0,0.0,0.0,0.0,0.0,0.0,0.0,0.0,0.0,0.0,0.0,0.0,-2.1726,-2.249,-2.2578,-2.2783,-2.3091,-2.2783,-2.2351,-2.1877,-2.1877,-2.1805,-2.1678,-2.1321,-2.12,-2.1181,-2.0778,-2.0383,-2.009,-2.1301,0.0,0.0,0.0,0.0,0.0,0.0,0.0,0.0,-2.2789,-2.2514,-2.2246,-2.2943,0.0,0.0,0.0,0.0,0.0,-3.2447,-3.3787,-3.4248,-3.3307,-3.3432,-3.3658,0.0,0.0,0.0,0.0,0.0,0.0,0.0,0.0,0.0,0.0,0.0,0.0,0.0,0.0,0.0,0.0,0.0,0.0,0.0,0.0,0.0,0.0,0.0,0.0,0.0,-4.4832,-4.4882,-4.4882,-4.4882,-4.4882,-4.4882,-4.5836,-4.6313,-4.6313,-4.6313,-4.6313,-4.6313,-4.6313,-4.6313,-4.6313,0.0,-4.6313,-4.6313,-4.6313,-4.6037,-4.561,-4.561,-4.5321,-4.4882,-4.4882,-4.4832,-4.4756,0.0,0.0,0.0,0.0,0.0,0.0,0.0,0.0,0.0,0.0,0.0,0.0,0.0,0.0,0.0,0.0,0.0,0.0,0.0,0.0,0.0,0.0,-2.0644,-2.1279,-2.2158,-2.2402,-2.2522,-2.2587,-2.2436,-2.1968,-2.1325,-2.1413,-2.1392,-2.1392,-2.12,-2.0989,-2.0769,-2.0365,-2.0058,-1.998,0.0,0.0,0.0,0.0,0.0,0.0,0.0,0.0,0.0,0.0,-2.2165,-2.1991,-2.2525,0.0,0.0,0.0,0.0,0.0,-3.2059,-3.3493,-3.4223,-3.4022,-3.4613,-3.519,0.0,0.0,0.0,0.0,0.0,0.0,0.0,0.0,0.0,0.0,0.0,0.0,0.0,0.0,0.0,0.0,0.0,0.0,0.0,0.0,0.0,0.0,0.0,0.0,0.0,0.0,-4.4618,-4.4618,-4.4618,-4.4618,-4.4618,-4.5133,-4.5397,-4.5397,-4.5397,-4.5397,-4.5397,-4.5397,-4.5397,-4.5397,0.0,-4.5397,-4.5397,-4.5397,-4.5246,-4.502,-4.502,-4.4857,-4.4593,-4.4279,-4.4179,-4.4141,0.0,0.0,0.0,0.0,0.0,0.0,0.0,0.0,0.0,0.0,0.0,0.0,0.0,0.0,0.0,0.0,0.0,0.0,0.0,0.0,-2.0059,-2.0411,-2.0527,-2.0967,-2.1719,-2.2051,-2.2181,-2.2119,-2.2076,-2.1697,-2.1006,-2.0955,-2.1016,-2.1099,-2.0915,-2.0668,-2.0314,-1.9912,-1.9747,-1.9824,0.0,0.0,0.0,0.0,0.0,0.0,0.0,0.0,0.0,0.0,0.0,0.0,0.0,0.0,0.0,-2.6237,-2.7745,-2.9034,-3.1581,-3.3143,-3.4179,-3.4627,0.0,0.0,0.0,0.0,0.0,0.0,0.0,0.0,0.0,0.0,0.0,0.0,0.0,0.0,0.0,0.0,0.0,0.0,0.0,0.0,0.0,0.0,0.0,0.0,0.0,0.0,0.0,0.0,-4.4242,-4.4242,-4.4242,-4.4242,-4.4242,-4.4242,-4.4367,-4.4618,-4.4618,-4.4618,-4.4618,-4.4618,-4.4618,-4.4618,-4.4618,-4.4618,-4.4618,-4.4618,-4.4556,-4.443,-4.443,-4.4355,-4.4192,-4.3765,-4.3614,-4.3539,0.0,0.0,0.0,0.0,0.0,0.0,0.0,0.0,0.0,0.0,0.0,0.0,0.0,0.0,0.0,0.0,0.0,0.0,0.0,0.0,-1.9902,-1.9942,-2.0372,-2.0791,-2.1229,-2.1268,-2.1483,-2.1934,-2.1675,-2.148,-2.1339,-2.0808,-2.075,-2.1071,-2.0296,-1.9957,-1.9902,-1.9522,-1.9347,-1.9412,-2.0499,0.0,0.0,0.0,0.0,0.0,0.0,0.0,0.0,0.0,0.0,0.0,0.0,0.0,-2.2363,-2.5251,-2.6786,-2.8154,-3.1073,-3.3202,-3.4652,-3.4762,0.0,0.0,0.0,0.0,0.0,0.0,0.0,0.0,0.0,0.0,0.0,0.0,0.0,0.0,0.0,0.0,0.0,0.0,0.0,0.0,0.0,0.0,0.0,0.0,0.0,0.0,0.0,0.0,0.0,-4.3099,-4.3099,-4.3099,-4.3099,-4.3099,-4.3614,-4.4618,-4.4618,-4.4618,-4.4618,-4.4618,-4.4618,-4.4618,-4.4618,-4.4618,-4.4618,-4.4618,-4.4317,-4.3865,-4.3865,-4.3539,-4.3087,-4.3049,-4.3037,-4.3037,0.0,0.0,0.0,0.0,0.0,0.0,0.0,0.0,0.0,0.0,0.0,0.0,0.0,0.0,0.0,0.0,0.0,0.0,0.0,0.0,-2.002,-2.0333,-2.0527,-2.0683,-2.081,-2.1094,-2.1273,-2.1441,-2.1066,-2.0977,-2.1194,-2.0704,-2.0594,-2.0714,-2.0131,-1.9747,-1.9531,-1.9366,-1.9448,-1.9742,-2.0384,-2.0837,0.0,0.0,0.0,0.0,0.0,0.0,0.0,0.0,-2.1785,0.0,0.0,0.0,-2.21,-2.4088,-2.5306,-2.6657,-2.9577,-3.181,-3.3633,-3.4916,0.0,0.0,0.0,0.0,0.0,0.0,0.0,0.0,0.0,0.0,0.0,0.0,0.0,0.0,0.0,0.0,0.0,0.0,0.0,0.0,0.0,0.0,0.0,0.0,0.0,0.0,0.0,0.0,0.0,-4.2974,-4.2974,-4.2974,-4.2974,-4.2974,-4.3187,-4.3601,-4.3601,-4.3601,-4.3601,-4.3601,-4.3601,-4.3601,-4.3601,-4.3601,-4.3601,-4.3601,-4.3476,-4.3288,-4.3288,-4.3162,-4.2974,-4.2974,-4.2974,-4.2974,0.0,0.0,0.0,0.0,0.0,0.0,0.0,0.0,0.0,0.0,0.0,0.0,0.0,0.0,0.0,0.0,0.0,0.0,0.0,0.0,-2.0098,-2.0566,-2.0605,-2.0605,-2.0605,-2.1006,-2.1205,-2.1199,-2.1006,-2.0979,-2.1099,-2.0704,-2.0521,-2.0493,-1.9971,-1.965,-1.9494,-1.9356,-1.954,-1.9921,-2.0356,-2.0802,0.0,0.0,0.0,0.0,0.0,0.0,0.0,0.0,0.0,0.0,0.0,0.0,0.0,0.0,-2.5186,-2.6727,-2.9475,-3.1705,-3.3577,0.0,0.0,0.0,0.0,0.0,0.0,0.0,0.0,0.0,0.0,0.0,0.0,0.0,0.0,0.0,0.0,0.0,0.0,0.0,0.0,0.0,0.0,0.0,0.0,0.0,0.0,0.0,0.0,0.0,0.0,0.0,-4.2974,-4.2974,-4.2974,-4.2974,-4.2974,-4.2974,-4.2974,-4.2974,-4.2974,-4.2974,-4.2974,-4.2974,-4.2974,-4.2974,-4.2974,-4.2974,-4.2974,-4.2974,-4.2974,-4.2974,-4.2974,-4.2974,-4.2974,-4.2974,0.0,0.0,0.0,0.0,0.0,0.0,0.0,0.0,0.0,0.0,0.0,0.0,0.0,0.0,0.0,0.0,0.0,0.0,0.0,-1.9902,-2.0098,-2.0566,-2.0605,-2.0605,-2.0605,-2.1006,-2.12,-2.12,-2.1587,-2.1558,-2.1089,-2.0704,-2.0521,-2.0475,-1.9668,-1.954,-1.9857,-1.9476,-1.9549,-1.993,-2.0323,-2.0887,-2.1509,0.0,0.0,0.0,0.0,0.0,0.0,0.0,0.0,0.0,0.0,0.0,0.0,0.0,-2.6578,-2.8667,-3.1099,-3.318,0.0,0.0,0.0,0.0,0.0,0.0,0.0,0.0,0.0,0.0,0.0,0.0,0.0,0.0,0.0,0.0,0.0,0.0,0.0,0.0,0.0,0.0,0.0,0.0,0.0,0.0,0.0,0.0,0.0,0.0,0.0,0.0,-4.2974,-4.2974,-4.2974,-4.2974,-4.2974,-4.2974,-4.2974,-4.2974,-4.2974,-4.2974,-4.2974,-4.2974,-4.2974,-4.2974,-4.2974,-4.2974,-4.2974,-4.2974,-4.2974,-4.2974,-4.2974,-4.2974,-4.2974,-4.2974,0.0,0.0,0.0,0.0,0.0,0.0,0.0,0.0,0.0,0.0,0.0,0.0,0.0,0.0,0.0,0.0,0.0,0.0,0.0,-2.005,-2.045,-2.0605,-2.0605,-2.0605,-2.0605,-2.0867,-2.1074,-2.1208,-2.1287,-2.1099,-2.0695,-2.0576,-2.0365,-2.0058,0.0,-1.965,-1.9476,-1.9356,-1.9705,-2.0314,-2.0466,-2.0977,-2.1655,0.0,0.0,0.0,0.0,0.0,0.0,0.0,0.0,0.0,0.0,0.0,0.0,0.0,-2.4329,-2.5478,-2.7507,0.0,0.0,0.0,0.0,0.0,0.0,0.0,0.0,0.0,0.0,0.0,0.0,0.0,0.0,0.0,0.0,0.0,0.0,0.0,0.0,0.0,0.0,0.0,0.0,0.0,0.0,0.0,0.0,0.0,0.0,0.0,0.0,0.0,-4.2974,-4.2974,-4.2974,-4.2974,-4.2974,-4.2974,-4.2974,-4.2974,-4.2974,-4.2974,-4.2974,-4.2974,-4.2974,-4.2974,-4.2974,-4.2974,-4.2974,-4.2974,-4.2974,-4.2974,-4.2974,-4.2974,-4.2974,-4.2974,0.0,0.0,0.0,0.0,0.0,0.0,0.0,0.0,0.0,0.0,0.0,0.0,0.0,0.0,0.0,0.0,0.0,0.0,0.0,0.0,-2.0605,-2.0605,-2.0605,-2.0644,-2.0742,-2.0591,-2.06,-2.0821,-2.0973,-2.0752,-2.0241,0.0,-2.0122,-1.9884,0.0,-1.9591,-1.941,-1.9326,-1.9738,-2.0395,-2.0395,-2.0921,-2.1696,0.0,0.0,0.0,0.0,0.0,0.0,0.0,0.0,0.0,0.0,0.0,0.0,0.0,-2.4996,-2.6135,-2.9026,0.0,0.0,0.0,0.0,0.0,0.0,0.0,0.0,0.0,0.0,0.0,0.0,0.0,0.0,0.0,0.0,0.0,0.0,0.0,0.0,0.0,0.0,0.0,0.0,0.0,0.0,0.0,0.0,0.0,0.0,0.0,0.0,0.0,-4.2333,-4.2434,-4.2703,-4.2703,-4.276,-4.2974,-4.2974,-4.2974,-4.2974,-4.2974,-4.2974,-4.2974,-4.2974,-4.2974,-4.2974,-4.2974,-4.2974,-4.2974,-4.2974,-4.2974,-4.2974,-4.2974,-4.2974,-4.2974,0.0,0.0,0.0,0.0,0.0,0.0,0.0,0.0,0.0,0.0,0.0,0.0,0.0,0.0,0.0,0.0,0.0,0.0,0.0,0.0,-2.0605,-2.0566,-2.0566,-2.0615,-2.0715,-2.0152,-1.9982,-2.0245,-2.0647,-2.0513,0.0,0.0,-1.9866,-1.982,0.0,-1.942,-1.9548,-1.9383,-1.9652,-2.0201,-2.028,-2.0827,-2.1696,-2.1482,0.0,0.0,0.0,0.0,0.0,0.0,0.0,0.0,0.0,0.0,0.0,-2.5508,-2.7247,-2.8981,0.0,0.0,0.0,0.0,0.0,0.0,0.0,0.0,0.0,0.0,0.0,0.0,0.0,0.0,0.0,0.0,0.0,0.0,0.0,0.0,0.0,0.0,0.0,0.0,0.0,0.0,0.0,0.0,0.0,0.0,0.0,0.0,0.0,-4.1288,-4.1288,-4.158,-4.2125,-4.2137,-4.2389,-4.2836,-4.2836,-4.2836,-4.2836,-4.2936,-4.2974,-4.2974,-4.2974,-4.2974,-4.2974,-4.2974,-4.2974,-4.2974,-4.2974,-4.2974,-4.2974,-4.2974,-4.2974,-4.2974,0.0,0.0,0.0,0.0,0.0,0.0,0.0,0.0,0.0,0.0,0.0,0.0,0.0,0.0,0.0,0.0,0.0,0.0,0.0,0.0,-2.0527,-2.0381,-2.0177,-1.9867,-1.9427,-1.9593,-1.9683,-1.9736,-2.0136,0.0,0.0,0.0,0.0,-1.9448,0.0,-1.9367,-1.9137,-1.9435,-1.9783,-2.0219,-2.0741,-2.1248,-2.1696,-2.1651,-2.1651,0.0,0.0,0.0,0.0,0.0,0.0,0.0,0.0,-2.1696,-2.1982,-2.3442,-2.5428,0.0,0.0,0.0,0.0,0.0,0.0,0.0,0.0,0.0,0.0,0.0,0.0,0.0,0.0,0.0,0.0,0.0,0.0,0.0,0.0,0.0,0.0,0.0,0.0,0.0,0.0,0.0,0.0,0.0,0.0,0.0,0.0,0.0,0.0,-4.1288,-4.1288,-4.1338,-4.1517,-4.1517,-4.158,0.0,-4.1693,-4.1693,-4.1718,-4.2585,-4.2974,-4.2974,-4.2974,-4.2974,-4.2974,-4.2974,-4.2974,-4.2974,-4.2974,-4.2974,-4.2974,-4.2974,-4.2974,-4.2974,0.0,0.0,0.0,0.0,0.0,0.0,0.0,0.0,0.0,0.0,0.0,0.0,0.0,0.0,0.0,0.0,0.0,0.0,0.0,0.0,0.0,0.0,-1.9878,-1.9522,-1.931,-1.929,-1.9392,-1.9606,0.0,0.0,0.0,0.0,0.0,-1.9311,0.0,-1.9392,-1.9029,-1.962,-2.003,-2.0229,-2.0746,-2.1277,-2.1696,-2.1607,-2.1607,-2.1696,-2.1696,0.0,0.0,0.0,0.0,0.0,0.0,0.0,-2.2028,-2.3708,-2.491,-2.6366,0.0,0.0,0.0,0.0,0.0,0.0,0.0,0.0,0.0,0.0,0.0,0.0,0.0,0.0,0.0,0.0,0.0,0.0,0.0,0.0,0.0,0.0,0.0,0.0,0.0,0.0,0.0,0.0,0.0,0.0,0.0,-4.0551,-4.0551,-4.0551,-4.0551,-4.0676,-4.0887,-4.094,-4.1025,-4.1288,-4.1288,-4.1288,-4.13,-4.1932,-4.2195,-4.2195,-4.2195,-4.2195,-4.2195,-4.2195,-4.2195,-4.2195,-4.2195,-4.2195,-4.2195,-4.2195,-4.2195,-4.2195,0.0,0.0,0.0,0.0,0.0,0.0,0.0,0.0,0.0,0.0,0.0,0.0,0.0,0.0,0.0,0.0,0.0,0.0,0.0,0.0,0.0,0.0,-1.962,-1.9418,-1.9485,-1.9254,-1.9282,0.0,0.0,0.0,0.0,0.0,0.0,-1.9341,0.0,-1.9359,-1.9029,-1.9865,-2.0218,-2.0238,-2.0741,-2.1253,-2.1696,-2.1526,-2.1571,-2.1696,-2.1696,-2.1696,-2.1696,-2.1696,0.0,0.0,0.0,0.0,-2.2074,-2.4151,-2.473,-2.5706,0.0,0.0,0.0,0.0,0.0,0.0,0.0,0.0,0.0,0.0,0.0,0.0,0.0,0.0,0.0,0.0,0.0,0.0,0.0,0.0,0.0,0.0,0.0,0.0,0.0,0.0,0.0,0.0,0.0,0.0,-3.9697,-3.9697,-3.9697,-3.9697,-3.9697,-3.991,-4.0375,-4.0375,-4.0601,-4.1,-4.1,-4.1,-4.1,-4.1,-4.11,-4.1288,-4.1288,-4.1288,-4.1288,-4.1288,-4.1288,-4.1288,-4.1288,-4.1288,-4.1288,-4.1288,-4.1288,-4.1288,0.0,0.0,0.0,0.0,0.0,0.0,0.0,0.0,0.0,0.0,0.0,0.0,0.0,0.0,0.0,0.0,0.0,0.0,-2.0605,0.0,0.0,-1.943,-1.952,-1.9412,-1.9096,-1.954,-1.9737,0.0,0.0,0.0,0.0,0.0,0.0,-1.9557,0.0,0.0,-1.9047,-1.9837,-2.019,-2.0265,-2.1224,-2.1641,-2.1696,-2.1651,-2.1696,-2.1696,-2.1696,-2.1696,-2.1696,-2.1696,-2.1696,0.0,0.0,0.0,-2.1759,-2.2119,-2.365,0.0,0.0,0.0,0.0,0.0,0.0,0.0,0.0,0.0,0.0,0.0,0.0,0.0,0.0,0.0,0.0,0.0,0.0,0.0,0.0,0.0,0.0,0.0,0.0,0.0,0.0,0.0,0.0,0.0,0.0,0.0,-3.9697,-3.9697,-3.9697,-3.9697,-3.9697,-3.9722,-3.9798,-3.9798,-3.9835,-3.991,-3.991,-3.991,-3.991,-3.991,-4.0438,-4.1288,-4.1288,-4.1288,-4.1288,-4.1288,-4.1288,-4.1288,-4.1288,-4.1288,-4.1288,-4.1288,-4.1288,-4.1288,0.0,0.0,0.0,0.0,0.0,0.0,0.0,0.0,0.0,0.0,0.0,0.0,0.0,0.0,0.0,-2.0255,-2.0489,-2.0605,-2.0605,-2.0411,-2.0168,-1.9879,-1.9934,-1.9827,-1.9512,-1.9769,-1.9863,0.0,0.0,0.0,0.0,-1.9951,-1.9843,0.0,0.0,0.0,0.0,0.0,0.0,-2.0777,-2.1414,0.0,0.0,-2.195,-2.2106,-2.2584,-2.1941,-2.1696,-2.1696,-2.1696,-2.1696,-2.1696,-2.1696,0.0,0.0,0.0,-2.2455,0.0,0.0,0.0,0.0,0.0,0.0,0.0,0.0,0.0,0.0,0.0,0.0,0.0,0.0,0.0,0.0,0.0,0.0,0.0,0.0,0.0,0.0,0.0,0.0,0.0,0.0,0.0,0.0,0.0,0.0,-3.9697,-3.9697,-3.9697,-3.9697,-3.9697,-3.9697,-3.9697,-3.9697,-3.9697,-3.9697,-3.9697,-3.9697,-3.9697,-3.9697,-3.9697,-3.9961,-4.0413,-4.0413,-4.0413,-4.0413,-4.0413,-4.0413,-4.0413,-4.0413,-4.0413,-4.0413,-4.0413,-4.0413,-4.0413,0.0,0.0,0.0,0.0,0.0,0.0,0.0,0.0,0.0,0.0,0.0,0.0,0.0,0.0,0.0,0.0,-2.0605,-2.0566,-2.0527,-2.0527,-2.0459,-2.0303,-2.0303,-2.0225,-2.0029,-1.9981,0.0,0.0,0.0,0.0,-1.9833,-2.0069,-2.0047,0.0,-1.9984,0.0,0.0,0.0,0.0,0.0,0.0,0.0,0.0,0.0,0.0,-2.3655,-2.2565,-2.2133,-2.2106,-2.1805,-2.1696,-2.1696,-2.1696,-2.1696,0.0,0.0,0.0,0.0,0.0,0.0,0.0,0.0,0.0,0.0,0.0,0.0,0.0,0.0,0.0,0.0,0.0,0.0,0.0,0.0,0.0,0.0,0.0,0.0,0.0,0.0,0.0,0.0,0.0,0.0,0.0,0.0,0.0,-3.9697,-3.9697,-3.9697,-3.9697,-3.9697,-3.9697,-3.9697,-3.9697,-3.9697,-3.9697,-3.9697,-3.9697,-3.9697,-3.9697,-3.9697,-3.9697,-3.9697,-3.9697,-3.9697,-3.9697,-3.9697,-3.9697,-3.9697,-3.9697,-3.9697,-3.9697,-3.9697,-3.9697,-3.9697,0.0,0.0,0.0,0.0,0.0,0.0,0.0,0.0,0.0,0.0,0.0,0.0,-1.9381,-2.005,-2.0566,-2.0605,-2.0605,-2.0527,-2.0342,-2.0303,-2.0303,-2.0303,-2.0303,0.0,-2.0264,-2.0264,0.0,0.0,0.0,0.0,-1.9606,-1.9833,-2.0,-2.0173,-2.0457,-2.052,-2.0512,0.0,0.0,0.0,0.0,0.0,0.0,0.0,0.0,0.0,0.0,-2.3299,-2.3131,-2.2042,-2.1696,-2.1696,-2.1696,-2.1696,-2.1696,0.0,0.0,0.0,0.0,0.0,0.0,0.0,0.0,0.0,0.0,0.0,0.0,0.0,0.0,0.0,0.0,0.0,0.0,0.0,0.0,0.0,0.0,0.0,0.0,0.0,0.0,0.0,0.0,0.0,0.0,0.0,0.0,-3.9697,-3.9697,-3.9697,-3.9697,-3.9697,-3.9697,-3.9697,-3.9697,-3.9697,-3.9697,-3.9697,-3.9697,-3.9697,-3.9697,-3.9697,-3.9697,-3.9697,-3.9697,-3.9697,-3.9697,-3.9697,-3.9697,-3.9697,-3.9697,-3.9697,-3.9697,-3.9697,-3.9697,-3.9697,0.0,0.0,0.0,0.0,0.0,0.0,0.0,0.0,0.0,0.0,0.0,0.0,0.0,-1.9966,-2.0254,-2.0576,-2.0605,-2.0566,-2.0489,-2.0489,-2.0489,-2.0489,-2.0489,-2.0489,-2.0489,-2.0489,0.0,0.0,0.0,-2.0212,-2.0037,-2.0269,-2.0445,-2.0624,-2.0445,-2.0532,-2.0906,-2.1192,0.0,0.0,0.0,0.0,0.0,0.0,0.0,0.0,0.0,0.0,-2.3317,-2.2936,-2.2299,-2.1696,-2.1696,-2.1696,-2.1696,-2.1696,-2.1696,0.0,0.0,0.0,0.0,0.0,0.0,0.0,0.0,0.0,0.0,0.0,0.0,0.0,0.0,0.0,0.0,0.0,0.0,0.0,0.0,0.0,0.0,0.0,0.0,0.0,0.0,0.0,0.0,0.0,0.0,-3.9697,-3.9697,-3.9697,-3.9697,-3.9697,-3.9697,-3.9697,-3.9697,-3.9697,-3.9697,-3.9697,-3.9697,-3.9697,-3.9697,-3.9697,-3.9697,-3.9697,-3.9697,-3.9697,-3.9697,-3.9697,-3.9697,-3.9697,-3.9697,-3.9697,-3.9697,-3.9697,-3.9697,-3.9697,0.0,0.0,0.0,0.0,0.0,0.0,0.0,0.0,0.0,0.0,0.0,0.0,0.0,0.0,-2.0088,-2.0566,-2.0605,-2.0605,-2.0605,-2.0605,-2.0605,-2.0605,-2.0605,-2.0605,-2.0605,-2.0314,0.0,0.0,0.0,0.0,0.0,-2.0514,-2.0786,-2.0959,-2.0639,-2.0813,0.0,0.0,0.0,-2.2016,0.0,0.0,-2.4486,0.0,0.0,0.0,0.0,0.0,0.0,-2.3956,-2.3448,-2.2723,-2.2363,-2.1996,-2.1696,-2.1696,-2.1696,0.0,0.0,0.0,0.0,0.0,0.0,0.0,0.0,0.0,0.0,0.0,0.0,0.0,0.0,0.0,0.0,0.0,0.0,0.0,0.0,0.0,0.0,0.0,0.0,0.0,0.0,0.0,0.0,0.0,0.0,0.0,-3.9697,-3.9697,-3.9697,-3.9697,-3.9697,-3.9697,-3.9697,-3.9697,-3.9697,-3.9697,-3.9697,-3.9697,-3.9697,-3.9697,-3.9697,-3.9697,-3.9697,-3.9697,-3.9697,-3.9697,-3.9697,-3.9697,-3.9697,-3.9697,-3.9697,-3.9697,-3.9697,-3.9697,0.0,0.0,0.0,0.0,0.0,0.0,0.0,0.0,0.0,-1.8514,0.0,0.0,0.0,0.0,0.0,-2.0566,-2.0605,-2.0605,-2.0605,-2.0605,-2.0605,-2.0605,-2.0605,-2.0605,-2.0566,-1.9755,0.0,0.0,0.0,0.0,0.0,0.0,-2.0902,-2.1126,-2.1126,-2.1312,-2.1696,0.0,-2.1916,-2.2456,0.0,-2.4391,-2.3673,0.0,0.0,0.0,-2.5068,-2.5058,0.0,-2.5049,0.0,0.0,0.0,-2.2612,-2.1696,-2.1696,-2.1696,0.0,0.0,0.0,0.0,0.0,0.0,0.0,0.0,0.0,0.0,0.0,0.0,0.0,0.0,0.0,0.0,0.0,0.0,0.0,0.0,0.0,0.0,0.0,0.0,0.0,0.0,0.0,0.0,0.0,-3.9697,-3.9697,-3.9697,-3.9697,-3.9697,-3.9697,-3.9697,-3.9697,-3.9697,-3.9697,-3.9697,-3.9697,-3.9697,-3.9697,-3.9697,-3.9697,-3.9697,-3.9697,-3.9697,-3.9697,-3.9697,-3.9697,-3.9697,-3.9697,-3.9697,-3.9697,-3.9697,-3.9697,-3.9697,-3.9697,0.0,0.0,0.0,0.0,0.0,0.0,0.0,0.0,-1.8461,0.0,0.0,0.0,-1.9894,-2.0188,-2.0478,-2.0595,-2.0605,-2.0605,-2.0605,-2.045,-2.0372,-2.0372,-2.0372,-2.0294,-2.0098,-2.0348,0.0,0.0,0.0,0.0,0.0,0.0,0.0,0.0,-2.1601,-2.1586,-2.1696,-2.1696,0.0,0.0,-2.4144,-2.4829,0.0,0.0,0.0,0.0,0.0,-2.6152,-2.5534,0.0,-2.4987,-2.3379,0.0,0.0,-2.1696,0.0,0.0,0.0,-2.1696,0.0,0.0,0.0,0.0,0.0,0.0,0.0,0.0,0.0,0.0,0.0,0.0,0.0,0.0,0.0,0.0,0.0,0.0,0.0,0.0,0.0,0.0,0.0,0.0,0.0,0.0,0.0,-3.9697,-3.9697,-3.9697,-3.9697,-3.9697,-3.9697,-3.9697,-3.9697,-3.9697,-3.9697,-3.9697,-3.9697,-3.9697,-3.9697,-3.9697,-3.9697,-3.9697,-3.9697,-3.9697,-3.9697,-3.9697,-3.9697,-3.9697,-3.9697,-3.9697,-3.9697,-3.9697,-3.9697,-3.9697,-3.9697,0.0,0.0,0.0,0.0,0.0,0.0,0.0,-1.6934,-1.8091,0.0,0.0,0.0,-1.9621,-2.0236,-2.0605,-2.0605,-2.0605,-2.0566,-2.0489,-2.0381,-2.0341,-2.0405,-2.0445,-2.0375,-2.0335,-2.0412,0.0,0.0,0.0,0.0,0.0,0.0,0.0,0.0,0.0,0.0,0.0,0.0,0.0,0.0,-2.4107,0.0,0.0,-2.6369,-2.7004,0.0,0.0,0.0,-2.6171,-2.7095,-2.5869,0.0,0.0,0.0,0.0,0.0,0.0,0.0,0.0,0.0,0.0,0.0,0.0,0.0,-2.6161,-2.7724,0.0,0.0,0.0,0.0,0.0,0.0,0.0,0.0,0.0,0.0,0.0,0.0,0.0,0.0,0.0,0.0,0.0,0.0,0.0,-3.9346,-3.9559,-3.9697,-3.9697,-3.9697,-3.9697,-3.9697,-3.9697,-3.9697,-3.9697,-3.9697,-3.9697,-3.9697,-3.9697,-3.9697,-3.9697,-3.9697,-3.9697,-3.9697,-3.9697,-3.9697,-3.9697,-3.9697,-3.9697,-3.9697,-3.9697,-3.9697,-3.9697,-3.9697,-3.9697,-3.9697,0.0,0.0,0.0,0.0,0.0,0.0,0.0,0.0,-1.687,0.0,-1.8957,-1.899,-1.9387,-2.0145,-2.0605,-2.0566,-2.0615,-2.0566,-2.0371,-2.038,-2.0493,-2.0704,-2.0635,-2.0685,-2.0945,-2.0362,0.0,0.0,0.0,0.0,0.0,0.0,0.0,0.0,0.0,0.0,0.0,0.0,0.0,-2.2042,-2.4097,-2.4343,0.0,0.0,-2.6177,-2.549,-2.6528,-2.683,-2.6898,-2.7752,-2.702,0.0,0.0,0.0,0.0,0.0,-2.2419,0.0,0.0,0.0,0.0,0.0,0.0,0.0,-2.625,-2.695,-2.8064,0.0,0.0,0.0,0.0,0.0,0.0,0.0,0.0,0.0,0.0,0.0,0.0,0.0,0.0,0.0,0.0,-3.8467,-3.8768,-3.8781,-3.9283,-3.9597,-3.9597,-3.9659,-3.9697,-3.9697,-3.9697,-3.9697,-3.9697,-3.9697,-3.9697,-3.9697,-3.9697,-3.9697,-3.9697,-3.9697,-3.9697,-3.9697,-3.9697,-3.9697,-3.9697,-3.9697,-3.9697,-3.9697,-3.9697,-3.9697,-3.9697,-3.9697,-3.9697,-3.9697,-1.2705,0.0,0.0,0.0,0.0,0.0,0.0,0.0,-1.7357,-1.8225,-1.9093,-1.9856,-2.0312,-2.0507,-2.0527,-2.0381,-2.0819,-2.1014,-2.0804,-2.0919,-2.1097,-2.1339,-2.0869,-2.0768,-2.1142,-2.1002,0.0,0.0,0.0,0.0,0.0,0.0,0.0,0.0,0.0,0.0,0.0,0.0,0.0,-2.3131,-2.3869,0.0,-2.4876,-2.6541,-2.7375,-2.7707,-2.7926,-2.7612,-2.7135,-2.6745,-2.6525,-2.6251,0.0,0.0,0.0,-2.3045,0.0,0.0,0.0,0.0,0.0,0.0,0.0,0.0,-2.4026,-2.4711,-2.5691,0.0,0.0,0.0,0.0,0.0,0.0,0.0,0.0,0.0,0.0,0.0,0.0,0.0,0.0,0.0,0.0,-3.7904,-3.7917,-3.8178,-3.8705,-3.9032,-3.9032,-3.9459,-3.9697,-3.9697,-3.9697,-3.9697,-3.9697,-3.9697,-3.9697,-3.9697,-3.9697,-3.9697,-3.9697,-3.9697,-3.9697,-3.9697,-3.9697,-3.9697,-3.9697,-3.9697,-3.9697,-3.9697,-3.9697,-3.9697,-3.9697,-3.9697,-3.9697,-3.9697,-1.2506,0.0,0.0,0.0,0.0,0.0,0.0,0.0,0.0,-1.8516,-1.9411,-2.0,-2.0215,-2.0635,-2.0859,-2.075,-2.1228,-2.1471,-2.1228,-2.1307,-2.1434,-2.1654,-2.1347,-2.1296,-2.1494,-2.1523,-2.149,0.0,0.0,0.0,0.0,0.0,0.0,0.0,0.0,0.0,0.0,0.0,-2.2015,-2.2658,-2.3955,0.0,-2.5973,-2.7298,-2.7999,-2.8291,-2.8291,-2.8101,-2.7728,-2.7347,-2.6887,0.0,-2.5809,-2.5424,-2.4876,0.0,-2.4005,-2.4398,0.0,0.0,0.0,-2.3556,0.0,0.0,0.0,-2.5024,-2.5498,0.0,0.0,0.0,0.0,0.0,0.0,0.0,0.0,0.0,0.0,0.0,0.0,0.0,0.0,0.0,0.0,-3.7327,-3.7554,-3.799,-3.8278,-3.8442,-3.8442,-3.8705,-3.8981,-3.927,-3.9283,-3.9421,-3.9697,-3.9697,-3.9697,-3.9697,-3.9697,-3.9697,-3.9697,-3.9697,-3.9697,-3.9697,-3.9697,-3.9697,-3.9697,-3.9697,-3.9697,-3.9697,-3.9697,-3.9697,-3.9697,-3.9697,-3.9697,-3.9697,-1.224,0.0,0.0,0.0,0.0,0.0,0.0,0.0,0.0,0.0,-1.9778,-2.0167,-2.0283,-2.1074,-2.1561,-2.152,-2.196,-2.2123,-2.1755,-2.1822,-2.1949,-2.2183,-2.2007,-2.1945,-2.2106,-2.1954,-2.1778,0.0,0.0,0.0,0.0,0.0,0.0,0.0,0.0,0.0,0.0,0.0,0.0,-2.2492,0.0,-2.5481,-2.6282,-2.7389,-2.7921,-2.8121,-2.8262,-2.8291,-2.8281,-2.815,-2.7338,-2.6422,-2.6433,-2.6047,0.0,0.0,0.0,0.0,0.0,0.0,0.0,0.0,0.0,-2.4573,0.0,0.0,0.0,0.0,0.0,0.0,0.0,0.0,0.0,0.0,0.0,0.0,0.0,0.0,0.0,0.0,0.0,0.0,0.0,-3.6189,-3.6783,-3.7651,-3.743,-3.7418,-3.7839,-3.7952,-3.8216,-3.8693,-3.8705,-3.8969,-3.9534,-3.9534,-3.9584,-3.9697,-3.9697,-3.9697,-3.9697,-3.9697,-3.9697,-3.9697,-3.9697,-3.9697,-3.9697,-3.9697,-3.9697,-3.9697,-3.9697,-3.9697,-3.9697,-3.9697,-3.9697,-3.9697,-1.1968,-1.2024,0.0,0.0,0.0,0.0,0.0,0.0,0.0,0.0,0.0,0.0,0.0,0.0,0.0,-2.2626,-2.3198,-2.332,-2.2678,-2.2996,-2.3316,-2.3553,-2.2669,-2.2481,-2.3211,-2.251,-2.2188,-2.2277,0.0,0.0,0.0,0.0,0.0,0.0,-2.2898,0.0,0.0,0.0,-2.3777,0.0,-2.4886,-2.4703,0.0,-2.5503,-2.6548,-2.7511,-2.8101,-2.8291,-2.8232,0.0,-2.729,-2.6973,0.0,-2.6157,-2.6697,-2.4718,0.0,0.0,0.0,0.0,0.0,0.0,-2.4202,0.0,0.0,0.0,-2.4424,-2.4709,0.0,0.0,0.0,0.0,0.0,0.0,0.0,0.0,0.0,0.0,0.0,0.0,0.0,0.0,0.0,0.0,-3.4546,-3.6448,-3.532,-3.5369,-3.7201,-3.7739,-3.804,-3.8103,-3.8103,-3.8379,-3.9007,-3.9007,-3.9207,-3.9697,-3.9697,-3.9697,-3.9697,-3.9697,-3.9697,-3.9697,-3.9697,-3.9697,-3.9697,-3.9697,-3.9697,-3.9697,-3.9697,-3.9697,-3.9697,-3.9697,-3.9697,-3.9697,-1.1688,-1.1525,0.0,0.0,0.0,0.0,0.0,0.0,0.0,0.0,0.0,0.0,0.0,0.0,0.0,0.0,0.0,-2.3666,0.0,-2.3547,-2.3493,-2.3206,-2.2902,-2.2741,-2.2821,-2.2629,-2.2446,-2.223,-2.2264,0.0,0.0,0.0,0.0,0.0,-2.3252,0.0,-2.3664,0.0,-2.4362,0.0,0.0,0.0,0.0,-2.6452,-2.7443,-2.7941,-2.8179,-2.8291,-2.8262,0.0,-2.7319,0.0,0.0,0.0,0.0,0.0,0.0,0.0,0.0,0.0,0.0,0.0,0.0,0.0,-2.4306,0.0,-2.4202,0.0,0.0,0.0,0.0,0.0,0.0,0.0,-2.5849,0.0,0.0,0.0,0.0,0.0,0.0,0.0,0.0,0.0,0.0,0.0,-3.5126,-3.5573,-3.647,-3.6887,-3.7199,-3.7525,-3.7525,-3.7801,-3.8366,-3.8366,-3.8655,-3.922,-3.922,-3.9383,-3.9697,-3.9697,-3.9697,-3.9697,-3.9697,-3.9697,-3.9697,-3.9697,-3.9697,-3.9697,-3.9697,-3.9697,-3.9697,-3.9697,-3.9697,-3.9697,-1.1531,0.0,0.0,0.0,0.0,0.0,0.0,0.0,0.0,0.0,0.0,0.0,-2.1512,-2.2285,0.0,0.0,-2.4072,-2.4268,0.0,0.0,-2.3741,-2.3458,-2.3109,-2.2855,-2.2773,-2.2688,-2.2495,-2.2097,0.0,0.0,0.0,0.0,0.0,0.0,0.0,-2.3833,-2.4591,0.0,0.0,-2.4798,-2.5248,-2.5515,-2.5797,-2.7424,-2.814,-2.8291,-2.8291,-2.8291,-2.8271,-2.8101,-2.7328,0.0,-2.7458,0.0,0.0,0.0,0.0,0.0,-2.4705,0.0,0.0,0.0,0.0,0.0,0.0,0.0,0.0,0.0,0.0,0.0,0.0,0.0,0.0,0.0,0.0,0.0,0.0,0.0,0.0,0.0,0.0,0.0,0.0,0.0,0.0,-3.3648,-3.4268,-3.4993,-3.586,-3.6146,-3.6451,-3.6864,-3.696,-3.7224,-3.7776,-3.7789,-3.8065,-3.8642,-3.8844,-3.9082,-3.9471,-3.9622,-3.9697,-3.9697,-3.9697,-3.9697,-3.9697,-3.9697,-3.9697,-3.9697,-3.9697,-3.9697,-3.9697,-3.9697,-3.9697,-3.9697,-1.1495,-1.1266,0.0,0.0,0.0,0.0,0.0,0.0,0.0,0.0,0.0,0.0,0.0,0.0,0.0,0.0,0.0,-2.5488,-2.5106,0.0,-2.4357,-2.499,-2.3357,-2.2811,-2.3615,-2.2848,-2.2309,-2.2097,0.0,0.0,0.0,0.0,0.0,0.0,0.0,-2.342,-2.3505,-2.4581,-2.5645,-2.6615,-2.6625,-2.7263,-2.8121,0.0,-2.7718,-2.8291,-2.8291,0.0,0.0,-2.7549,-2.729,0.0,0.0,0.0,0.0,0.0,0.0,0.0,0.0,0.0,0.0,-2.4352,0.0,0.0,0.0,0.0,-2.4202,0.0,0.0,0.0,0.0,0.0,0.0,-2.3068,0.0,0.0,0.0,0.0,0.0,0.0,0.0,0.0,0.0,0.0,0.0,-3.2713,-3.1761,-3.2393,-3.544,-3.5872,-3.6028,-3.604,-3.6301,-3.6694,-3.7211,-3.7211,-3.7487,-3.804,-3.8605,-3.8932,-3.8957,-3.9446,-3.9697,-3.9697,-3.9697,-3.9697,-3.9697,-3.9697,-3.9697,-3.9697,-3.9697,-3.9697,-3.9697,-3.9697,-3.9697,-3.9697,0.0,0.0,0.0,0.0,0.0,0.0,0.0,-1.8452,0.0,0.0,0.0,0.0,0.0,-2.3641,-2.4258,0.0,0.0,-2.5053,-2.5078,-2.4481,0.0,-2.4802,-2.3286,-2.283,-2.3663,-2.2858,-2.2309,-2.2097,0.0,0.0,0.0,0.0,0.0,0.0,0.0,-2.4049,0.0,0.0,0.0,0.0,0.0,-2.7303,-2.768,0.0,-2.8111,-2.8291,-2.8291,-2.8291,0.0,-2.8019,-2.768,-2.7309,-2.7549,-2.7141,-2.6626,-2.6873,-2.6764,0.0,0.0,0.0,-2.6323,-2.5166,0.0,0.0,0.0,0.0,0.0,0.0,0.0,0.0,0.0,0.0,0.0,-2.3794,-2.4027,0.0,0.0,0.0,0.0,0.0,0.0,0.0,0.0,0.0,0.0,-3.1235,-3.2964,-3.4498,-3.556,-3.6038,-3.6275,-3.6275,-3.637,-3.6505,-3.6681,-3.6681,-3.6958,-3.7462,-3.7663,-3.7939,-3.8316,-3.8894,-3.9145,-3.917,-3.9534,-3.9697,-3.9697,-3.9697,-3.9697,-3.9697,-3.9697,-3.9697,-3.9697,-3.9697,-3.9697,-3.9697,-1.265,0.0,0.0,0.0,0.0,0.0,0.0,0.0,0.0,0.0,-2.1372,0.0,-2.3343,0.0,-2.4428,0.0,-2.5489,-2.547,-2.5392,-2.5034,0.0,-2.5131,-2.3974,-2.369,-2.4479,-2.3342,-2.2706,-2.258,0.0,-2.2097,0.0,0.0,0.0,0.0,0.0,0.0,-2.5404,0.0,-2.7045,0.0,0.0,-2.767,0.0,0.0,-2.815,-2.798,0.0,-2.8291,-2.8291,-2.8291,-2.7999,-2.7718,-2.815,-2.7699,-2.7041,-2.754,-2.7309,-2.6902,-2.6645,-2.6912,0.0,-2.5852,-2.5871,0.0,-2.482,0.0,-2.4563,0.0,0.0,0.0,0.0,0.0,0.0,-2.4544,-2.4343,0.0,0.0,-2.4202,0.0,0.0,0.0,0.0,0.0,0.0,-2.9308,-3.0998,-3.2768,-3.4244,0.0,0.0,-3.6026,-3.6133,-3.6228,-3.6323,-3.6405,-3.6405,-3.6581,-3.6945,-3.7098,-3.7374,-3.7739,-3.8304,-3.868,-3.8944,-3.9245,-3.9509,-3.9697,-3.9697,-3.9697,-3.9697,-3.9697,-3.9697,-3.9697,-3.9697,-3.9697,-3.9697,0.0,0.0,0.0,0.0,-1.4322,0.0,0.0,0.0,-1.9002,0.0,-2.1362,-2.2533,-2.3579,-2.4679,-2.5455,-2.5898,-2.6514,-2.6693,-2.6035,-2.5987,0.0,0.0,-2.5376,-2.5279,-2.5996,-2.4297,-2.3411,-2.3411,0.0,0.0,0.0,0.0,0.0,0.0,-2.2858,0.0,-2.5977,-2.5736,-2.6666,-2.8291,-2.8291,-2.8281,-2.8262,-2.8281,-2.7868,-2.74,-2.8082,-2.8291,-2.8291,-2.8291,-2.8291,-2.8291,-2.8291,-2.8291,-2.8291,-2.8291,-2.8291,-2.815,-2.753,-2.7371,-2.716,-2.6418,-2.6252,0.0,0.0,0.0,-2.5232,0.0,0.0,0.0,0.0,0.0,0.0,0.0,0.0,0.0,0.0,0.0,0.0,0.0,0.0,0.0,0.0,-2.5929,-2.7272,-3.172,-3.1158,0.0,0.0,0.0,-3.5247,-3.562,-3.5872,-3.6146,-3.6405,-3.6405,-3.6405,-3.6417,-3.6945,-3.7149,-3.7161,-3.7713,-3.8266,-3.8844,-3.8818,-3.9145,-3.9647,-3.9647,-3.9672,-3.9697,-3.9697,-3.9697,-3.9697,-3.9697,-3.9697,-3.9697,-1.3731,-1.3863,-1.4282,0.0,-1.5583,-1.6074,0.0,0.0,0.0,0.0,-2.2714,-2.4087,-2.5133,-2.5502,-2.5763,-2.6021,-2.6083,0.0,0.0,0.0,0.0,-2.6579,-2.5399,-2.5182,-2.6104,-2.4342,-2.3411,-2.3411,0.0,0.0,-2.2309,0.0,0.0,0.0,0.0,0.0,-2.5996,-2.6041,-2.6925,-2.8291,-2.8291,-2.7999,0.0,0.0,-2.7868,-2.74,-2.8082,-2.8291,-2.8291,-2.8291,-2.8291,-2.8291,-2.8291,-2.8291,-2.8291,-2.8291,-2.8291,-2.8271,-2.8101,-2.8019,-2.7868,-2.717,-2.7012,-2.6854,0.0,0.0,0.0,0.0,0.0,0.0,0.0,0.0,0.0,0.0,0.0,0.0,0.0,0.0,0.0,-2.4202,0.0,0.0,-2.4944,-2.7032,-2.8887,-3.0117,-3.1352,0.0,0.0,0.0,0.0,-3.586,-3.5968,-3.6146,-3.6405,-3.6405,-3.6405,-3.6405,-3.6556,-3.6619,-3.6631,-3.7149,-3.7475,-3.7638,-3.8052,-3.8555,-3.9082,-3.9082,-3.932,-3.9697,-3.9697,-3.9697,-3.9697,-3.9697,-3.9697,-3.9697,-1.4105,0.0,0.0,-1.5579,0.0,0.0,-1.8302,-1.9174,0.0,-2.1955,-2.3178,0.0,-2.5365,-2.5841,-2.6175,-2.6449,-2.652,0.0,-2.6266,0.0,0.0,-2.6595,-2.6262,-2.6248,-2.6712,-2.5503,0.0,-2.4167,0.0,0.0,-2.2662,0.0,0.0,0.0,0.0,-2.4765,0.0,-2.6663,-2.7307,-2.8037,-2.8223,0.0,0.0,-2.815,-2.8091,-2.781,-2.815,-2.8291,-2.8291,-2.8291,-2.8291,-2.8291,-2.8291,-2.8291,-2.8291,-2.8291,-2.8291,-2.8291,-2.8291,-2.8291,-2.8232,-2.7839,-2.7718,-2.7559,-2.6864,-2.6655,-2.6655,0.0,-2.6408,-2.6262,0.0,0.0,0.0,0.0,0.0,0.0,0.0,0.0,0.0,0.0,-2.5062,0.0,-2.4319,-2.7408,-2.9503,-2.9503,-3.0998,0.0,0.0,0.0,0.0,-3.5157,-3.5498,-3.586,-3.6228,-3.6228,-3.6275,-3.6405,-3.6405,-3.6405,-3.6417,-3.6732,-3.7008,-3.7199,-3.7513,-3.7965,-3.8517,-3.8768,-3.9108,-3.9358,-3.9597,-3.9697,-3.9697,-3.9697,-3.9697,-3.9697,0.0,0.0,0.0,0.0,0.0,0.0,0.0,-1.9616,0.0,-2.2646,0.0,-2.4116,-2.5079,-2.5945,-2.6563,-2.6907,0.0,-2.7065,-2.6442,-2.6964,-2.7056,-2.6433,-2.734,-2.7691,-2.7431,-2.694,-2.6248,0.0,0.0,0.0,0.0,0.0,0.0,0.0,0.0,0.0,0.0,-2.7324,-2.7748,-2.7836,-2.8144,-2.8291,-2.8291,-2.8291,-2.8291,-2.8291,-2.8291,-2.8291,-2.8291,-2.8291,-2.8291,-2.8291,-2.8291,-2.8291,-2.8291,-2.8291,-2.8291,-2.8291,-2.8291,-2.8291,-2.8291,-2.8291,-2.8291,-2.814,-2.7559,-2.7419,-2.7419,-2.7419,-2.6912,-2.6802,0.0,0.0,0.0,0.0,0.0,0.0,0.0,0.0,0.0,0.0,0.0,0.0,-2.4211,-2.7209,-2.9161,0.0,0.0,0.0,0.0,0.0,0.0,-3.4221,-3.4884,-3.5464,-3.6015,0.0,-3.6193,-3.6405,-3.6405,-3.6405,-3.6405,-3.6405,-3.6669,-3.7073,-3.7073,-3.7387,-3.7939,-3.8442,-3.8793,-3.8931,-3.9484,-3.9697,-3.9697,-3.9697,-3.9697,-3.9697,0.0,0.0,0.0,0.0,0.0,-1.7832,-1.9753,-2.1929,-2.355,-2.4038,-2.4972,-2.5724,-2.6262,-2.6489,-2.6617,-2.6682,-2.6691,0.0,0.0,0.0,0.0,-2.659,-2.7187,-2.7476,-2.7377,-2.694,-2.64,0.0,0.0,0.0,0.0,0.0,0.0,0.0,0.0,0.0,-2.6618,-2.7399,0.0,-2.8193,-2.8262,-2.8291,-2.8291,-2.8291,-2.8291,-2.8291,-2.8291,-2.8291,-2.8291,-2.8291,-2.8291,-2.8291,-2.8291,-2.8291,-2.8291,-2.8291,-2.8291,-2.8291,-2.8291,-2.8291,-2.8291,-2.8291,-2.8291,-2.8271,-2.815,-2.8121,-2.8121,-2.8121,-2.8009,-2.7849,-2.754,0.0,0.0,0.0,0.0,0.0,0.0,0.0,0.0,0.0,0.0,-2.6455,0.0,-2.6064,0.0,0.0,0.0,0.0,0.0,0.0,0.0,0.0,-3.5367,0.0,0.0,0.0,-3.637,-3.6405,-3.6405,-3.6405,-3.6405,-3.6405,-3.6455,-3.6556,-3.6556,-3.6822,-3.7337,-3.7437,-3.8027,-3.8931,-3.9484,-3.9697,-3.9697,-3.9697,-3.9697,-3.9697,0.0,0.0,0.0,0.0,0.0,0.0,0.0,-2.2084,0.0,-2.4061,-2.5067,-2.5953,-2.6327,-2.671,-2.6976,-2.7178,-2.7196,-2.7114,-2.6912,-2.6894,-2.6802,-2.66,-2.7008,-2.7107,-2.7008,-2.7043,-2.6688,-2.5897,0.0,0.0,0.0,0.0,0.0,0.0,0.0,-2.5916,0.0,0.0,0.0,-2.7988,-2.8203,-2.8291,-2.8291,-2.8291,-2.8291,-2.8291,-2.8291,-2.8291,-2.8291,-2.8291,-2.8291,-2.8291,-2.8291,-2.8291,-2.8291,-2.8291,-2.8291,-2.8291,-2.8291,-2.8291,-2.8291,-2.8291,-2.8291,-2.8291,-2.8291,-2.8291,-2.8291,-2.8291,-2.8291,-2.8111,-2.7419,-2.6726,0.0,0.0,0.0,0.0,0.0,0.0,-2.6096,0.0,0.0,0.0,0.0,0.0,0.0,0.0,0.0,0.0,0.0,0.0,0.0,0.0,0.0,0.0,0.0,0.0,0.0,-3.6193,-3.6323,-3.6405,-3.6405,-3.6405,-3.6405,-3.6405,-3.6405,-3.6556,-3.6832,-3.7073,-3.7852,-3.8944,-3.917,-3.9446,-3.9697,-3.9697,-3.9697,-3.9697,0.0,-1.5378,0.0,0.0,-1.7782,0.0,-1.959,-2.1455,-2.3126,-2.404,-2.4717,-2.5484,-2.6462,-2.677,-2.7135,-2.7737,-2.7822,-2.7693,-2.7381,-2.7353,-2.716,-2.6848,-2.7012,-2.702,-2.6829,-2.7217,-2.6965,0.0,0.0,0.0,0.0,0.0,0.0,0.0,0.0,0.0,0.0,0.0,-2.7767,-2.7885,-2.8164,-2.8291,-2.8291,-2.8291,-2.8291,-2.8291,-2.8291,-2.8291,-2.8291,-2.8291,-2.8291,-2.8291,-2.8291,-2.8291,-2.8291,-2.8291,-2.8291,-2.8291,-2.8291,-2.8291,-2.8291,-2.8291,-2.8291,-2.8291,-2.8291,-2.8291,-2.8291,-2.8291,-2.8291,-2.8111,-2.7419,-2.6921,0.0,0.0,0.0,0.0,0.0,0.0,0.0,0.0,0.0,0.0,-2.5445,0.0,0.0,0.0,0.0,0.0,0.0,0.0,0.0,0.0,0.0,-3.5005,-3.5053,0.0,-3.5955,-3.6098,-3.6228,-3.6323,-3.6405,-3.6405,-3.6405,-3.6405,-3.6405,-3.6405,-3.6455,-3.7008,-3.7776,-3.8693,-3.8869,-3.9207,-3.9697,-3.9697,-3.9697,-3.9697,0.0,0.0,0.0,0.0,0.0,0.0,-1.8963,-2.0742,-2.2849,-2.4983,-2.4309,-2.4612,-2.7373,-2.6628,-2.6434,-2.7699,-2.7822,-2.7803,-2.7767,-2.7767,-2.7748,-2.7711,-2.7595,-2.7512,-2.7521,-2.7467,-2.716,0.0,0.0,-2.585,0.0,0.0,0.0,0.0,0.0,0.0,0.0,-2.7689,-2.7891,-2.8232,-2.8271,-2.8291,-2.8291,-2.8291,-2.8291,-2.8291,-2.8291,-2.8291,-2.8291,-2.8291,-2.8291,-2.8291,-2.8291,-2.8291,-2.8291,-2.8291,-2.8291,-2.8291,-2.8291,-2.8291,-2.8291,-2.8291,-2.8291,-2.8291,-2.8291,-2.8291,-2.8291,-2.8291,-2.8291,-2.8111,-2.7419,-2.7728,-2.7878,0.0,0.0,0.0,0.0,0.0,-2.7868,-2.727,0.0,0.0,0.0,-2.6026,0.0,0.0,0.0,0.0,0.0,0.0,0.0,-3.3672,0.0,-3.4304,-3.4588,-3.5279,-3.5895,-3.6358,-3.6146,-3.6146,-3.6405,-3.6405,-3.6405,-3.6405,-3.6405,-3.6405,-3.6455,-3.7008,-3.7538,-3.814,-3.8668,-3.9207,-3.9697,-3.9697,-3.9697,-3.9697,0.0,0.0,0.0,0.0,0.0,0.0,0.0,-2.0367,-2.1608,-2.3443,-2.3693,-2.4162,-2.5578,-2.5258,-2.5586,-2.7202,-2.7346,-2.7552,-2.8101,-2.8141,-2.8031,-2.7831,-2.7731,-2.7705,-2.7705,-2.7419,-2.7166,0.0,0.0,0.0,0.0,0.0,0.0,0.0,0.0,-2.7066,-2.7447,-2.7877,-2.8135,-2.8291,-2.8291,-2.8291,-2.8291,-2.8291,-2.8291,-2.8291,-2.8291,-2.8291,-2.8291,-2.8291,-2.8291,-2.8291,-2.8291,-2.8291,-2.8291,-2.8291,-2.8291,-2.8291,-2.8291,-2.8291,-2.8291,-2.8291,-2.8291,-2.8291,-2.8291,-2.8291,-2.8291,-2.8291,-2.8291,-2.8242,-2.796,-2.781,-2.7728,-2.7868,0.0,0.0,0.0,0.0,0.0,-2.795,0.0,-2.717,0.0,0.0,0.0,0.0,0.0,0.0,0.0,0.0,0.0,-3.3684,0.0,-3.4799,-3.4895,-3.5354,-3.5812,-3.6146,-3.6063,-3.6146,-3.6405,-3.6405,-3.6405,-3.6405,-3.6405,-3.6405,-3.643,-3.6644,-3.7059,-3.7575,-3.8128,-3.8693,-3.9245,-3.9572,-3.9697,-3.9697,-1.8474,0.0,-1.8932,0.0,-1.9687,-1.9939,-2.0267,-2.0434,-2.0862,-2.2041,-2.2657,-2.3384,-2.4461,-2.4243,-2.483,-2.6814,-2.7013,-2.7459,-2.8522,-2.8563,-2.8434,-2.8198,-2.8012,0.0,-2.8005,-2.7554,-2.7317,-2.7243,-2.6639,0.0,0.0,0.0,0.0,0.0,-2.6926,-2.7285,-2.7473,-2.8058,-2.8291,-2.8291,-2.8291,-2.8369,-2.8476,-2.8476,-2.8555,-2.8672,-2.8672,-2.8672,-2.8672,-2.8672,-2.8584,-2.8457,-2.833,-2.8291,-2.8291,-2.8291,-2.8291,-2.8291,-2.8291,-2.8291,-2.8291,-2.8291,-2.8291,-2.8291,-2.8291,-2.8291,-2.8291,-2.8291,-2.8291,-2.8291,-2.8291,-2.7888,-2.7728,-2.8242,0.0,0.0,0.0,-2.8291,0.0,-2.8019,-2.7578,-2.729,-2.729,-2.6854,0.0,0.0,0.0,0.0,0.0,0.0,0.0,0.0,0.0,0.0,0.0,-3.5198,-3.5572,-3.6015,-3.592,-3.6051,-3.6405,-3.6405,-3.6405,-3.6405,-3.6405,-3.6405,-3.6405,-3.6405,-3.6732,-3.7236,-3.7789,-3.8366,-3.8931,-3.9484,-3.9697,-3.9697,-1.9246,-1.9364,-1.9575,-2.0113,-2.0468,-2.0668,-2.0668,-2.0915,-2.1102,-2.1102,-2.1102,-2.2153,-2.4679,-2.3876,-2.4178,-2.6771,-2.7013,-2.7564,-2.8916,-2.8975,-2.8975,0.0,0.0,-2.8388,-2.8388,-2.7976,-2.7813,-2.7803,0.0,0.0,-2.5689,0.0,-2.5563,-2.6816,-2.706,-2.7449,-2.7897,-2.8174,-2.8291,-2.8291,-2.8291,-2.8545,-2.8916,-2.8916,-2.918,-2.9551,-2.9551,-2.9551,-2.9551,-2.9551,-2.9268,-2.8838,-2.8428,-2.8291,-2.8291,-2.8291,-2.8291,-2.8291,-2.8291,-2.8291,-2.8291,-2.8291,-2.8291,-2.8291,-2.8291,-2.8291,-2.8291,-2.8291,-2.8291,-2.8291,-2.8291,-2.8281,-2.8281,-2.8291,0.0,0.0,0.0,-2.8291,0.0,-2.74,-2.729,-2.729,-2.729,-2.728,0.0,0.0,0.0,0.0,0.0,0.0,0.0,-3.3696,-3.3696,0.0,-3.4137,-3.4571,-3.5223,-3.6015,-3.5716,-3.5895,-3.6405,-3.6405,-3.6405,-3.6405,-3.6405,-3.6405,-3.6405,-3.6405,-3.6732,-3.7236,-3.7789,-3.8366,-3.8931,-3.9484,-3.9697,-3.9697,-2.0252,-2.0431,-2.0591,-2.0753,-2.0909,-2.0969,-2.0969,-2.1049,-2.1109,-2.1109,-2.1109,-2.1418,-2.2223,-2.1971,-2.2459,0.0,-2.4371,-2.5293,0.0,-2.7633,-2.8062,-2.8984,-2.8865,-2.8792,-2.8792,-2.8397,-2.8196,-2.8196,0.0,0.0,0.0,-2.6819,-2.6999,-2.7466,-2.7743,-2.8096,-2.8441,-2.8718,-2.9004,-2.916,-2.916,-2.9238,-2.9365,-2.9365,-2.9453,-2.9626,-2.9626,-2.9626,-2.9626,-2.9626,-2.9473,-2.9287,-2.8857,-2.8525,-2.8291,-2.8291,-2.8291,-2.8291,-2.8291,-2.8291,-2.8291,-2.8291,-2.8291,-2.8291,-2.8291,-2.8291,-2.8291,-2.8291,-2.8291,-2.8291,-2.8291,-2.8291,-2.8291,-2.8291,-2.8291,0.0,-2.8291,0.0,-2.8242,-2.7999,-2.798,-2.798,-2.798,-2.798,0.0,0.0,0.0,0.0,0.0,0.0,0.0,0.0,-3.4186,0.0,-3.4872,-3.4836,-3.5126,-3.5716,-3.562,-3.5895,-3.6405,-3.6405,-3.6405,-3.6405,-3.6405,-3.6405,-3.6405,-3.6405,-3.6518,-3.6757,-3.7651,-3.8115,-3.8391,-3.9346,-3.9697,-3.9697,-2.0842,-2.0989,-2.1109,-2.1109,-2.1109,-2.1109,-2.1109,-2.1109,-2.1109,-2.1109,-2.1109,-2.1109,-2.1109,-2.1109,0.0,-2.2952,-2.3076,-2.4,-2.6095,-2.671,-2.7383,-2.8182,-2.8737,-2.8984,-2.8984,-2.8737,0.0,-2.8618,-2.8129,-2.7836,-2.7688,-2.7688,-2.7705,-2.7822,-2.8049,-2.8333,-2.8559,-2.8794,-2.9132,-2.9402,-2.9402,-2.9556,-2.9805,-2.9805,-2.9912,-3.0068,-3.0068,-3.0068,-3.0068,-3.0068,-2.9951,-2.9726,-2.9297,-2.8877,-2.8496,-2.834,-2.8291,-2.8291,-2.8291,-2.8291,-2.8291,-2.8291,-2.8291,-2.8291,-2.8291,-2.8291,-2.8291,-2.8291,-2.8291,-2.8291,-2.8291,-2.8291,-2.8291,-2.8291,-2.8291,-2.8291,-2.8291,0.0,-2.8232,0.0,0.0,0.0,0.0,-2.7941,-2.7849,0.0,0.0,0.0,0.0,0.0,0.0,-3.4138,-3.4558,-3.4884,-3.5078,-3.4884,-3.503,-3.5464,-3.5668,-3.5955,-3.6228,-3.637,-3.6405,-3.6405,-3.6405,-3.6405,-3.6405,-3.6405,-3.6405,-3.6518,-3.7575,-3.8002,-3.814,-3.9283,-3.9697,-3.9697,-2.1109,-2.1109,-2.1109,0.0,-2.1109,0.0,-2.1109,-2.1109,-2.1109,-2.1109,-2.1109,-2.1109,-2.1109,-2.1109,-2.1601,-2.2827,0.0,0.0,0.0,-2.6034,-2.6771,-2.6831,-2.8122,-2.8856,-2.8856,-2.8925,-2.8984,-2.8984,-2.8618,-2.8232,-2.7904,-2.7904,-2.7904,-2.7904,-2.8142,-2.8256,-2.8313,-2.854,-2.8823,-2.9162,-2.9162,-2.961,-3.0244,-3.0244,-3.0518,-3.0889,-3.0889,-3.0889,-3.0889,-3.0889,-3.0605,-3.0166,-2.9717,-2.9287,-2.8877,-2.8428,-2.8291,-2.8291,-2.8291,-2.8291,-2.8291,-2.8291,-2.8291,-2.8291,-2.8291,-2.8291,-2.8291,-2.8291,-2.8291,-2.8291,-2.8291,-2.8291,-2.8291,-2.8291,-2.8291,-2.8291,-2.8291,-2.8291,-2.8091,0.0,0.0,0.0,-2.7381,-2.7381,-2.7588,0.0,0.0,0.0,0.0,0.0,-3.3982,-3.4763,-3.4775,-3.4775,-3.4775,-3.4775,-3.492,-3.5223,-3.5716,-3.5968,-3.6015,-3.6275,-3.6405,-3.6405,-3.6405,-3.6405,-3.6405,-3.6405,-3.6405,-3.6518,-3.7575,-3.8002,-3.814,-3.9283,-3.9697,-3.9697,0.0,0.0,-2.1109,-2.1109,-2.1109,-2.1109,-2.1109,-2.1109,-2.1109,-2.1109,-2.1109,-2.1109,-2.1109,-2.1109,-2.1229,-2.1538,-2.1538,-2.216,-2.345,-2.3876,-2.4432,-2.5423,-2.6771,-2.7444,-2.7444,-2.8489,-2.8984,-2.8984,-2.8893,-2.8792,-2.87,-2.87,-2.87,-2.8691,-2.875,-2.8926,-2.9219,-2.9278,-2.9453,-2.9745,-2.9977,-3.0209,-3.0354,-3.0665,-3.0791,-3.0889,-3.0889,-3.0889,-3.0889,-3.0889,-3.082,-3.0596,-2.9814,-2.9502,-2.9268,-2.8516,-2.8291,-2.8291,-2.8291,-2.8291,-2.8291,-2.8291,-2.8291,-2.8291,-2.8291,-2.8291,-2.8291,-2.8291,-2.8291,-2.8291,-2.8291,-2.8291,-2.8291,-2.8291,-2.8291,-2.8291,-2.8291,-2.8291,-2.8252,0.0,-2.8038,-2.8038,-2.8038,-2.8038,-2.7941,0.0,0.0,0.0,0.0,-3.1429,-3.3208,-3.4763,-3.4775,-3.4775,-3.4775,-3.4775,-3.492,-3.5223,-3.5524,-3.5812,-3.6015,-3.6275,-3.6405,-3.6405,-3.6405,-3.6405,-3.6405,-3.6405,-3.6405,-3.6518,-3.7575,-3.8002,-3.814,-3.9283,-3.9697,-3.9697,-2.1109,-2.1109,-2.1109,-2.1109,-2.1109,-2.1109,-2.1109,-2.1109,-2.1109,-2.1109,-2.1109,-2.1109,-2.1109,-2.1109,-2.1109,-2.1109,-2.1109,-2.1418,-2.2153,-2.2764,-2.3387,-2.4124,-2.5362,-2.6338,-2.7021,-2.7693,-2.837,-2.8984,-2.8984,-2.8984,-2.8984,-2.8984,-2.8984,-2.8984,-2.8984,-2.9103,-2.9272,-2.9272,-2.945,-2.9745,-2.9912,-3.0147,-3.0441,-3.0577,-3.0762,-3.0889,-3.0889,-3.0889,-3.0889,-3.0889,-3.0752,-3.0459,-2.9785,-2.9434,-2.9141,-2.8486,-2.8291,-2.8291,-2.8291,-2.8291,-2.8291,-2.8291,-2.8291,-2.8291,-2.8291,-2.8291,-2.8291,-2.8291,-2.8291,-2.8291,-2.8291,-2.8291,-2.8291,-2.8291,-2.8019,-2.796,-2.8262,-2.8019,-2.797,-2.8271,-2.8291,-2.8291,-2.8291,-2.8291,-2.814,-2.78,-2.8256,0.0,-2.9343,-3.0483,-3.2018,-3.4005,-3.4531,-3.4775,-3.4775,-3.4775,-3.4884,-3.503,-3.5271,-3.5572,-3.5824,-3.6086,-3.6275,-3.6405,-3.6405,-3.6405,-3.6405,-3.6405,-3.6405,-3.6518,-3.7575,-3.8002,-3.814,-3.9283,-3.9697,-3.9697,-2.1109,-2.1109,-2.1109,-2.1109,-2.1109,-2.1109,-2.1109,-2.1109,-2.1109,-2.1109,-2.1109,-2.1109,-2.1109,-2.1109,-2.1109,-2.1109,-2.1109,-2.1109,-2.1109,-2.2153,-2.2772,-2.2772,-2.4,-2.524,-2.6399,-2.6589,-2.7383,-2.8677,-2.8677,-2.8797,-2.8984,-2.8984,-2.8984,-2.8984,-2.8984,-2.8984,-2.8984,-2.8984,-2.9153,-2.945,-2.9499,-2.9795,-3.0265,-3.0323,-3.0518,-3.083,-3.083,-3.083,-3.0879,-3.081,-3.0518,-3.0107,-2.9619,-2.9219,-2.8838,-2.8418,-2.8291,-2.8291,-2.8291,-2.8291,-2.8291,-2.8291,-2.8291,-2.8291,-2.8291,-2.8291,-2.8291,-2.8291,-2.8291,-2.8291,-2.8291,-2.8291,-2.8271,-2.816,-2.7738,-2.7588,-2.8101,0.0,-2.768,-2.8252,-2.8291,-2.8291,-2.8291,-2.8291,-2.8291,-2.8291,-2.8291,-2.8708,-2.9618,-2.9817,-3.0742,-3.2639,-3.3918,-3.4628,-3.4775,-3.4775,-3.4775,-3.4775,-3.5078,-3.532,-3.5572,-3.5872,-3.6098,-3.6323,-3.6358,-3.6405,-3.6405,-3.6405,-3.6455,-3.6631,-3.7613,-3.8065,-3.8266,-3.9308,-3.9697,-3.9697,-2.1109,-2.1109,-2.1109,-2.1109,-2.1109,-2.1109,-2.1109,-2.1109,-2.1109,-2.1109,-2.1109,-2.1109,-2.1109,-2.1109,-2.1109,-2.1109,-2.1109,-2.1109,-2.1109,-2.1292,-2.1418,-2.1418,-2.2709,-2.3504,-2.369,-2.474,-2.5973,-2.7323,-2.7323,-2.7873,-2.8984,-2.8984,-2.8984,-2.8984,-2.8984,-2.8984,-2.8984,-2.8984,-2.9044,-2.9103,-2.939,-2.9568,-2.9677,-2.9863,-3.0157,-3.045,-3.045,-3.0645,-3.083,-3.0439,-3.0254,-3.0059,-2.9268,-2.8975,-2.8838,-2.8418,-2.8291,-2.8291,-2.8291,-2.8291,-2.8291,-2.8291,-2.8291,-2.8291,-2.8291,-2.8291,-2.8291,-2.8291,-2.8291,-2.8291,-2.8291,-2.8291,-2.8121,-2.7549,-2.7839,-2.7989,-2.753,0.0,-2.8169,-2.8281,-2.8291,-2.8291,-2.8291,-2.8291,-2.8291,-2.8291,-2.8291,-2.8398,-2.8548,-2.9418,-3.0078,-3.038,-3.2387,-3.3857,-3.4775,-3.4775,-3.4775,-3.4775,-3.5078,-3.5223,-3.5271,-3.5764,-3.6015,-3.6051,-3.6323,-3.6405,-3.6405,-3.6405,-3.6681,-3.7123,-3.7764,-3.8304,-3.8818,-3.9459,-3.9697,-3.9697,-2.1109,-2.1109,-2.1109,-2.1109,-2.1109,-2.1109,-2.1109,-2.1109,-2.1109,-2.1109,-2.1109,-2.1109,-2.1109,-2.1109,-2.1109,-2.1109,-2.1109,-2.1109,-2.1109,-2.1109,-2.1109,-2.1109,-2.1664,-2.2334,-2.3076,-2.4371,-2.5301,-2.5912,-2.5912,-2.6589,-2.7933,-2.7933,-2.831,-2.8984,-2.8984,-2.8984,-2.8984,-2.8984,-2.8984,-2.8984,-2.9153,-2.9331,-2.9499,-2.9627,-2.9863,-3.0157,-3.0333,-3.0364,-3.0325,-3.0216,-2.9893,-2.9443,-2.9043,-2.876,-2.8545,-2.835,-2.8291,-2.8291,-2.8291,-2.8291,-2.8291,-2.8291,-2.8291,-2.8291,-2.8291,-2.8291,-2.8291,-2.8291,-2.8291,-2.8291,-2.8291,-2.8291,-2.8179,-2.7868,-2.781,0.0,-2.7839,-2.781,-2.7878,-2.8262,-2.8291,-2.8291,-2.8291,-2.8291,-2.8291,-2.8291,-2.8291,-2.8291,-2.8291,-2.8751,-2.9313,-2.9869,-3.2022,-3.3461,-3.3918,-3.4519,-3.4775,-3.4775,-3.4932,-3.5078,-3.5223,-3.562,-3.586,-3.6015,-3.6275,-3.6405,-3.6405,-3.6405,-3.6732,-3.7236,-3.7789,-3.8366,-3.8931,-3.9484,-3.9697,-3.9697,-2.1109,-2.1109,-2.1109,-2.1109,-2.1109,-2.1109,-2.1109,-2.1109,-2.1109,-2.1109,-2.1109,-2.1109,-2.1109,-2.1109,-2.1109,-2.1109,-2.1109,-2.1109,-2.1109,-2.1109,-2.1109,-2.1109,-2.1109,-2.1601,-2.2584,-2.3574,-2.4255,-2.4564,-2.4564,-2.524,-2.6529,-2.6529,-2.7073,-2.8062,-2.843,-2.8549,-2.8549,-2.8856,-2.8984,-2.8984,-2.8984,-2.9153,-2.939,-2.939,-2.9627,-2.9912,-3.0111,-3.0036,-2.99,-2.9914,-2.9463,-2.8896,-2.8809,-2.8555,-2.8291,-2.8291,-2.8291,-2.8291,-2.8291,-2.8291,-2.8291,-2.8291,-2.8291,-2.8291,-2.8291,-2.8291,-2.8291,-2.8291,-2.8291,-2.8291,-2.8291,-2.8291,-2.8262,-2.8101,0.0,-2.767,-2.8009,-2.7738,-2.7709,-2.8252,-2.8291,-2.8291,-2.8291,-2.8291,-2.8291,-2.8291,-2.8291,-2.8291,-2.8291,-2.8291,-2.8698,-2.9513,-3.1666,-3.2951,-3.3201,-3.4017,-3.4568,-3.4775,-3.4775,-3.4932,-3.5126,-3.5368,-3.5668,-3.592,-3.6181,-3.6323,-3.6405,-3.6405,-3.6807,-3.7412,-3.7839,-3.8429,-3.9158,-3.9534,-3.9697,-3.9697,-2.1109,-2.1109,-2.1109,-2.1109,-2.1109,-2.1109,-2.1109,-2.1109,-2.1109,-2.1109,-2.1109,-2.1109,-2.1109,-2.1109,-2.1109,-2.1109,-2.1109,-2.1109,-2.1109,-2.1109,-2.1109,-2.1109,-2.1109,-2.1172,-2.1229,-2.1355,-2.1971,-2.3263,-2.3263,-2.3876,-2.5178,-2.5178,-2.5178,-2.5362,-2.6589,-2.7142,-2.7203,-2.8489,-2.8984,-2.8984,-2.8984,-2.8984,-2.9044,-2.9044,-2.94,-2.9874,-2.9496,-2.9728,-3.0078,-2.9277,-2.8975,-2.8848,-2.8467,-2.831,-2.8291,-2.8291,-2.8291,-2.8291,-2.8291,-2.8291,-2.8291,-2.8291,-2.8291,-2.8291,-2.8291,-2.8291,-2.8291,-2.8291,-2.8291,-2.8291,-2.8291,-2.8291,-2.8111,-2.7448,0.0,0.0,-2.7439,-2.7859,-2.8252,-2.8281,-2.8291,-2.8291,-2.8291,-2.8291,-2.8291,-2.8291,-2.8291,-2.8291,-2.8291,-2.8291,-2.8344,-2.8398,-3.0546,-3.2185,-3.3201,-3.325,-3.3819,-3.4775,-3.4775,-3.4823,-3.4823,-3.5126,-3.538,-3.562,-3.5908,-3.6193,-3.6405,-3.6405,-3.6985,-3.7952,-3.799,-3.8668,-3.9634,-3.9685,-3.9697,-3.9697,-2.1109,-2.1109,-2.1109,-2.1109,-2.1109,-2.1109,-2.1109,-2.1109,-2.1109,-2.1109,-2.1109,-2.1109,-2.1109,-2.1109,-2.1109,-2.1109,-2.1109,-2.1109,-2.1109,-2.1109,-2.1109,-2.1109,-2.1109,-2.1109,-2.1109,-2.1109,-2.1355,-2.1846,-2.1846,-2.2522,-2.3822,-2.3822,-2.4247,-2.5056,-2.6407,-2.7013,-2.7082,-2.843,-2.8984,-2.8984,-2.8984,-2.8984,-2.8984,-2.8984,-2.9006,-2.8941,-2.9016,-2.8899,-2.8799,-2.8713,-2.8597,-2.8506,-2.834,-2.8291,-2.8291,-2.8291,-2.8291,-2.8291,-2.8291,-2.8291,-2.8291,-2.8291,-2.8291,-2.8291,-2.8291,-2.8291,-2.8291,-2.8291,-2.8291,-2.8291,-2.8291,-2.8291,-2.8242,-2.797,0.0,-2.8232,-2.797,-2.814,-2.8291,-2.8291,-2.8291,-2.8291,-2.8291,-2.8291,-2.8291,-2.8291,-2.8291,-2.8291,-2.8291,-2.8291,-2.8291,-2.8291,-2.9122,-3.0089,-3.1154,-3.1869,-3.2387,-3.2801,-3.3511,-3.3808,-3.3857,-3.4763,-3.5271,-3.538,-3.5812,-3.6051,-3.6146,-3.6323,-3.701,-3.8002,-3.8002,-3.8705,-3.9697,-3.9697,-3.9697,-3.9697,-2.1109,-2.1109,-2.1109,-2.1109,-2.1109,-2.1109,-2.1109,-2.1109,-2.1109,-2.1109,-2.1109,-2.1109,-2.1109,-2.1109,-2.1109,-2.1109,-2.1109,-2.1109,-2.1109,-2.1109,-2.1109,-2.1109,-2.1109,-2.1109,-2.1109,-2.1109,-2.1109,-2.1109,-2.1109,-2.1538,-2.2459,-2.2459,-2.2959,-2.3822,-2.517,-2.5782,-2.5904,-2.7624,-2.837,-2.843,-2.8797,-2.8984,-2.8966,-2.8847,-2.8685,-2.8526,-2.8431,-2.8249,-2.8028,-2.8134,-2.8157,-2.8184,-2.8184,-2.8237,-2.8291,-2.8291,-2.8291,-2.8291,-2.8291,-2.8291,-2.8291,-2.8291,-2.8291,-2.8291,-2.8291,-2.8291,-2.8291,-2.8291,-2.8291,-2.8291,-2.8291,-2.8291,-2.8291,-2.8291,-2.8291,-2.8291,-2.8291,-2.8291,-2.8291,-2.8291,-2.8291,-2.8291,-2.8291,-2.8291,-2.8291,-2.8291,-2.8291,-2.8291,-2.8291,-2.8291,-2.8291,-2.8291,-2.8291,-2.8654,-2.9418,-3.0494,-3.1268,-3.1626,-3.2336,-3.2889,-3.325,-3.4164,-3.4823,-3.5223,-3.5572,-3.5812,-3.6015,-3.6193,-3.6975,-3.8002,-3.8002,-3.8705,-3.9697,-3.9697,-3.9697,-3.9697,-2.1109,-2.1109,-2.1109,-2.1109,-2.1109,-2.1109,-2.1109,-2.1109,-2.1109,-2.1109,-2.1109,-2.1109,-2.1109,-2.1109,-2.1109,-2.1109,-2.1109,-2.1109,-2.1109,-2.1109,-2.1109,-2.1109,-2.1109,-2.1109,-2.1109,-2.1109,-2.1109,-2.1109,-2.1109,-2.1109,-2.1109,-2.1109,-2.1109,-2.1172,-2.2522,-2.3076,-2.3263,-2.5904,-2.6952,-2.7073,-2.843,-2.8984,-2.8929,-2.8544,-2.8544,-2.8656,-2.7856,-2.7789,-2.8045,-2.7573,-2.7638,-2.7906,-2.7906,-2.8067,-2.8291,-2.8291,-2.8291,-2.8291,-2.8291,-2.8291,-2.8291,-2.8291,-2.8291,-2.8291,-2.8291,-2.8291,-2.8291,-2.8291,-2.8291,-2.8291,-2.8291,-2.8291,-2.8291,-2.8291,-2.8291,-2.8291,-2.8291,-2.8291,-2.8291,-2.8291,-2.8291,-2.8291,-2.8291,-2.8291,-2.8291,-2.8291,-2.8291,-2.8291,-2.8291,-2.8291,-2.8291,-2.8291,-2.8291,-2.8291,-2.8291,-2.9365,-3.0442,-3.1575,-3.1575,-3.2134,-3.3151,-3.3201,-3.3906,-3.5175,-3.5175,-3.5476,-3.5968,-3.5968,-3.6794,-3.8002,-3.8002,-3.8693,-3.9697,-3.9697,-3.9697,-3.9697,-2.1109,-2.1109,-2.1109,-2.1109,-2.1109,-2.1109,-2.1109,-2.1109,-2.1109,-2.1109,-2.1109,-2.1109,-2.1109,-2.1109,-2.1109,-2.1109,-2.1109,-2.1109,-2.1109,-2.1109,-2.1109,-2.1109,-2.1109,-2.1109,-2.1109,-2.1109,-2.1109,-2.1109,-2.1109,-2.1109,-2.1109,-2.1109,-2.1109,-2.1172,-2.2522,-2.3076,-2.3193,-2.4871,-2.5607,-2.5607,-2.6034,-2.6067,-2.6014,-2.6727,-2.6763,-2.65,-2.7083,-2.7317,-2.7321,-2.7199,-2.7314,-2.753,-2.753,-2.7584,-2.7647,-2.7647,-2.7862,-2.8014,-2.8014,-2.8184,-2.8291,-2.8291,-2.8291,-2.8291,-2.8291,-2.8291,-2.8291,-2.8291,-2.8291,-2.8291,-2.8291,-2.8291,-2.8291,-2.8291,-2.8291,-2.8291,-2.8291,-2.8291,-2.8291,-2.8291,-2.8291,-2.8291,-2.8291,-2.8291,-2.8291,-2.8291,-2.8291,-2.8291,-2.8291,-2.8291,-2.8291,-2.8291,-2.8291,-2.8291,-2.8291,-2.8601,-2.8963,-2.927,-3.0037,-3.0587,-3.0897,-3.1728,-3.2286,-3.2689,-3.2889,-3.3487,-3.4348,-3.4495,-3.5721,-3.7468,-3.7655,-3.8441,-3.9426,-3.9633,-3.9697,-3.9697,-2.1109,-2.1109,-2.1109,-2.1109,-2.1109,-2.1109,-2.1109,-2.1109,-2.1109,-2.1109,-2.1109,-2.1109,-2.1109,-2.1109,-2.1109,-2.1109,-2.1109,-2.1109,-2.1109,-2.1109,-2.1109,-2.1109,-2.1109,-2.1109,-2.1109,-2.1109,-2.1109,-2.1109,-2.1109,-2.1109,-2.1109,-2.1109,-2.1109,-2.1172,-2.1971,-2.2341,-2.2404,-2.3698,-2.4255,-2.4301,-2.4652,-2.4722,-2.4627,-2.5108,-2.5019,-2.4733,-2.5332,-2.5468,-2.5487,-2.599,-2.66,-2.726,-2.7377,-2.7377,-2.7377,-2.7377,-2.7638,-2.7906,-2.7906,-2.8121,-2.8291,-2.8291,-2.8291,-2.8291,-2.8291,-2.8291,-2.8291,-2.8291,-2.8291,-2.8291,-2.8291,-2.8291,-2.8291,-2.8291,-2.8291,-2.8291,-2.8291,-2.8291,-2.8291,-2.8291,-2.8291,-2.8291,-2.8291,-2.8291,-2.8291,-2.8291,-2.8291,-2.8291,-2.8291,-2.8291,-2.8291,-2.8291,-2.8291,-2.8291,-2.8291,-2.8291,-2.8291,-2.8291,-2.8953,-2.9513,-2.9922,-3.0598,-3.1165,-3.1626,-3.1779,-3.2275,-3.2989,-3.3128,-3.4241,-3.5892,-3.6021,-3.7051,-3.8449,-3.8607,-3.9037,-3.953,-2.1109,-2.1109,-2.1109,-2.1109,-2.1109,-2.1109,-2.1109,-2.1109,-2.1109,-2.1109,-2.1109,-2.1109,-2.1109,-2.1109,-2.1109,-2.1109,-2.1109,-2.1109,-2.1109,-2.1109,-2.1109,-2.1109,-2.1109,-2.1109,-2.1109,-2.1109,-2.1109,-2.1109,-2.1109,-2.1109,-2.1109,-2.1109,-2.1109,-2.1109,-2.1109,-2.1109,-2.1166,-2.2396,-2.2889,-2.2985,-2.3871,-2.4199,-2.4121,-2.3628,-2.3409,-2.3346,-2.3093,-2.2974,-2.3151,-2.4278,-2.5606,-2.6826,-2.7098,-2.726,-2.7323,-2.7323,-2.7584,-2.7853,-2.7853,-2.8077,-2.8291,-2.8291,-2.8291,-2.8291,-2.8291,-2.8291,-2.8291,-2.8291,-2.8291,-2.8291,-2.8291,-2.8291,-2.8291,-2.8291,-2.8291,-2.8291,-2.8291,-2.8291,-2.8291,-2.8291,-2.8291,-2.8291,-2.8291,-2.8291,-2.8291,-2.8291,-2.8291,-2.8291,-2.8291,-2.8291,-2.8291,-2.8291,-2.8291,-2.8291,-2.8291,-2.8291,-2.8291,-2.8291,-2.8291,-2.8804,-2.9775,-2.9775,-3.0338,-3.1319,-3.1319,-3.1524,-3.1819,-3.1819,-3.2638,-3.3862,-3.3926,-3.529,-3.7192,-3.7245,-3.812,-3.9258,-2.1109,-2.1109,-2.1109,-2.1109,-2.1109,-2.1109,-2.1109,-2.1109,-2.1109,-2.1109,-2.1109,-2.1109,-2.1109,-2.1109,-2.1109,-2.1109,-2.1109,-2.1109,-2.1109,-2.1109,-2.1109,-2.1109,-2.1109,-2.1109,-2.1109,-2.1109,-2.1109,-2.1109,-2.1109,-2.1109,-2.1109,-2.1109,-2.1109,-2.1109,-2.1109,-2.1109,-2.1109,-2.1418,-2.1538,-2.151,-2.152,-2.1373,-2.1243,-2.1796,-2.1894,-2.1835,-2.2667,-2.2974,-2.303,-2.332,-2.4214,-2.5276,-2.5331,-2.6008,-2.6745,-2.6745,-2.7107,-2.753,-2.753,-2.7916,-2.8291,-2.8291,-2.8291,-2.8291,-2.8291,-2.8291,-2.8291,-2.8291,-2.8291,-2.8291,-2.8291,-2.8291,-2.8291,-2.8291,-2.8291,-2.8291,-2.8291,-2.8291,-2.8291,-2.8291,-2.8291,-2.8291,-2.8291,-2.8291,-2.8291,-2.8291,-2.8291,-2.8291,-2.8291,-2.8291,-2.8291,-2.8291,-2.8291,-2.8291,-2.8291,-2.8291,-2.8291,-2.8291,-2.8291,-2.8398,-2.8654,-2.8654,-2.8804,-2.9016,-2.9016,-2.9523,-3.0338,-3.0338,-3.2017,-3.4589,-3.4797,-3.622,-3.8133,-3.8344,-3.8619,-3.8945,-2.0075,-2.0652,-2.1109,-2.1109,-2.1109,-2.1109,-2.1109,-2.1109,-2.1109,-2.1109,-2.1109,-2.1109,-2.1109,-2.1109,-2.1109,-2.1109,-2.1109,-2.1109,-2.1109,-2.1109,-2.1109,-2.1109,-2.1109,-2.1109,-2.1109,-2.1109,-2.1109,-2.1109,-2.1109,-2.1109,-2.1109,-2.1109,-2.1109,-2.1109,-2.1109,-2.1109,-2.1109,-2.1109,-2.1029,-2.0875,-2.0581,-2.0287,-2.0053,-2.0392,-2.0468,-2.0443,-2.106,-2.1623,-2.2135,-2.2135,-2.2926,-2.3935,-2.3935,-2.439,-2.5008,-2.5569,-2.6054,-2.6472,-2.7034,-2.7638,-2.813,-2.813,-2.8184,-2.8291,-2.8291,-2.8291,-2.8291,-2.8291,-2.8291,-2.8291,-2.8291,-2.8291,-2.8291,-2.8291,-2.8291,-2.8291,-2.8291,-2.8291,-2.8291,-2.8291,-2.8291,-2.8291,-2.8291,-2.8291,-2.8291,-2.8291,-2.8291,-2.8291,-2.8291,-2.8291,-2.8291,-2.8291,-2.8291,-2.8291,-2.8291,-2.8291,-2.8291,-2.8291,-2.8291,-2.8291,-2.8291,-2.8291,-2.8291,-2.8291,-2.8291,-2.8601,-2.9175,-2.9323,-3.0549,-3.2373,-3.2695,-3.4314,-3.6534,-3.6642,-3.7524,-3.8631,-1.9297,-2.0329,-2.1109,-2.1109,-2.1109,-2.1109,-2.1109,-2.1109,-2.1109,-2.1109,-2.1109,-2.1109,-2.1109,-2.1109,-2.1109,-2.1109,-2.1109,-2.1109,-2.1109,-2.1109,-2.1109,-2.1109,-2.1109,-2.1109,-2.1109,-2.1109,-2.1109,-2.1109,-2.1109,-2.1109,-2.1109,-2.1109,-2.1109,-2.1109,-2.1109,-2.1109,-2.1109,-2.1056,-2.0895,-2.0648,-2.0301,-2.0013,-1.9766,-1.9479,-1.9424,-1.9424,-1.9424,-2.0046,-2.0895,-2.0895,-2.168,-2.27,-2.27,-2.2805,-2.3199,-2.4214,-2.4697,-2.5186,-2.6364,-2.7088,-2.7574,-2.7736,-2.797,-2.8184,-2.8237,-2.8291,-2.8291,-2.8291,-2.8291,-2.8291,-2.8291,-2.8291,-2.8291,-2.8291,-2.8291,-2.8291,-2.8291,-2.8291,-2.8291,-2.8291,-2.8291,-2.8291,-2.8291,-2.8291,-2.8291,-2.8291,-2.8291,-2.8291,-2.8291,-2.8291,-2.8291,-2.8291,-2.8291,-2.8291,-2.8291,-2.8291,-2.8291,-2.8291,-2.8291,-2.8291,-2.8291,-2.8291,-2.8291,-2.8291,-2.8291,-2.8291,-2.833,-2.875,-2.928,-2.9934,-3.0359,-3.2071,-3.4391,-3.4391,-3.5936,-3.808,-2.0589,-2.0982,-2.1109,-2.1109,-2.1109,-2.1109,-2.1109,-2.1109,-2.1109,-2.1109,-2.1109,-2.1109,-2.1109,-2.1109,-2.1109,-2.1109,-2.1109,-2.1109,-2.1109,-2.1109,-2.1109,-2.1109,-2.1109,-2.1109,-2.1109,-2.1109,-2.1109,-2.1109,-2.1109,-2.1109,-2.1109,-2.1109,-2.1109,-2.1109,-2.1109,-2.1109,-2.1089,-2.0842,-2.0715,-2.0628,-2.008,-1.9833,-1.9766,-1.9479,-1.9424,-1.9424,-1.9424,-1.9482,-1.9649,-1.9649,-2.0443,-2.146,-2.146,-2.2135,-2.3038,-2.3199,-2.3407,-2.3886,-2.5131,-2.568,-2.6182,-2.7206,-2.7485,-2.7593,-2.7906,-2.8121,-2.8291,-2.8291,-2.8291,-2.8291,-2.8291,-2.8291,-2.8291,-2.8291,-2.8291,-2.8291,-2.8291,-2.8291,-2.8291,-2.8291,-2.8291,-2.8291,-2.8291,-2.8291,-2.8291,-2.8291,-2.8291,-2.8291,-2.8291,-2.8291,-2.8291,-2.8291,-2.8291,-2.8291,-2.8291,-2.8291,-2.8291,-2.8291,-2.8291,-2.8291,-2.8291,-2.8291,-2.8291,-2.8291,-2.8291,-2.8291,-2.833,-2.875,-2.9809,-3.1175,-3.1618,-3.2846,-3.4391,-3.4391,-3.5278,-3.6557,-1.8722,-2.0075,-2.1109,-2.1109,-2.1109,-2.1109,-2.1109,-2.1109,-2.1109,-2.1109,-2.1109,-2.1109,-2.1109,-2.1109,-2.1109,-2.1109,-2.1109,-2.1109,-2.1109,-2.1109,-2.1109,-2.1109,-2.1109,-2.1109,-2.1109,-2.1109,-2.1109,-2.1109,-2.1109,-2.1109,-2.1109,-2.1109,-2.1109,-2.1109,-2.1109,-2.1022,-2.0862,-2.0728,-2.0488,-2.0167,-1.9907,-1.97,-1.9546,-1.9477,-1.9424,-1.9424,-1.9424,-1.9424,-1.9424,-1.9424,-1.9764,-2.022,-2.022,-2.0551,-2.1117,-2.1794,-2.207,-2.2451,-2.3631,-2.4689,-2.5516,-2.6027,-2.6808,-2.7431,-2.7593,-2.7691,-2.7916,-2.8237,-2.8291,-2.8291,-2.8291,-2.8291,-2.8291,-2.8291,-2.8291,-2.8291,-2.8291,-2.8291,-2.8291,-2.8291,-2.8291,-2.8291,-2.8291,-2.8291,-2.8291,-2.8291,-2.8291,-2.8291,-2.8291,-2.8291,-2.8291,-2.8291,-2.8291,-2.8291,-2.8291,-2.8291,-2.8291,-2.8291,-2.8291,-2.8291,-2.8291,-2.8291,-2.8291,-2.8291,-2.8291,-2.8291,-2.834,-2.9014,-2.9717,-3.0444,-3.1147,-3.2215,-3.3515,-3.4179,-3.4725,-3.5223]}]]